[[{"header":{"parameterUnit":"m.s-1","parameterCategory":1,"la1":31.0,"la2":29.5877,"lo1":-88.7671,"lo2":-86.6584,"dy":0.0162,"dx":0.0185,"nx":115,"ny":88,"refTime":"2023-09-11T06:00:00:Z","depth":0,"parameterNumber":2,"parameterNumberName":"U-component_of_WINDS"},"data":[0.0,0.0,0.0,0.0,0.0,0.0,0.0,0.0,0.0,0.0,0.0,0.0,0.0,0.0,0.0,0.0,0.0,0.0,0.0,0.0,0.0,0.0,0.0,0.0,0.0,0.0,0.0,0.0,0.0,0.0,0.0,0.0,0.0,0.0,0.0,0.0,0.0,0.0,0.0,0.0,0.0,0.0,0.0,0.0,0.0,0.0,0.0,0.0,0.0,0.0,0.0,0.0,0.0,0.0,0.0,0.0,0.0,0.0,0.0,0.0,0.0,0.0,0.0,0.0,0.0,0.0,0.0,0.0,0.0,0.0,0.0,0.0,0.0,0.0,0.0,0.0,0.0,0.0,0.0,0.0,0.0,0.0,0.0,0.0,0.0,0.0,0.0,0.0,0.0,0.0,0.0,0.0,0.0,0.0,0.0,0.0,0.0,0.0,0.0,0.0,0.0,0.0,0.0,0.0,0.0,0.0,0.0,0.0,0.0,0.0,0.0,0.0,0.0,0.0,0.0,0.0,0.0,0.0,0.0,0.0,0.0,0.0,0.0,0.0,0.0,0.0,0.0,0.0,0.0,0.0,0.0,0.0,0.0,0.0,0.0,0.0,0.0,0.0,0.0,0.0,0.0,0.0,0.0,0.0,0.0,0.0,0.0,0.0,0.0,0.0,0.0,0.0,0.0,0.0,0.0,0.0,0.0,0.0,0.0,0.0,0.0,0.0,0.0,0.0,0.0,0.0,0.0,0.0,0.0,0.0,0.0,0.0,0.0,0.0,0.0,0.0,0.0,0.0,0.0,0.0,0.0,0.0,0.0,0.0,0.0,0.0,0.0,0.0,0.0,0.0,0.0,0.0,0.0,0.0,0.0,0.0,0.0,0.0,0.0,0.0,0.0,0.0,0.0,0.0,0.0,0.0,0.0,0.0,0.0,0.0,0.0,0.0,0.0,0.0,0.0,0.0,0.0,0.0,0.0,0.0,0.0,0.0,0.0,0.0,0.0,0.0,0.0,0.0,0.0,0.0,0.0,0.0,0.0,0.0,0.0,0.0,0.0,0.0,0.0,0.0,0.0,0.0,0.0,0.0,0.0,0.0,0.0,0.0,0.0,0.0,0.0,0.0,0.0,0.0,0.0,0.0,0.0,0.0,0.0,0.0,0.0,0.0,0.0,0.0,0.0,0.0,0.0,0.0,0.0,0.0,0.0,0.0,0.0,0.0,0.0,0.0,0.0,0.0,0.0,0.0,0.0,0.0,0.0,0.0,0.0,0.0,0.0,0.0,0.0,0.0,0.0,0.0,0.0,0.0,0.0,0.0,0.0,0.0,0.0,0.0,0.0,0.0,0.0,0.0,0.0,0.0,0.0,0.0,0.0,0.0,0.0,0.0,0.0,0.0,0.0,0.0,0.0,0.0,0.0,0.0,0.0,0.0,0.0,0.0,0.0,0.0,0.0,0.0,0.0,0.0,0.0,0.0,0.0,0.0,0.0,0.0,0.0,0.0,0.0,0.0,0.0,0.0,0.0,0.0,0.0,0.0,0.0,0.0,0.0,0.0,0.0,0.0,0.0,0.0,0.0,0.0,0.0,0.0,0.0,0.0,0.0,0.0,0.0,0.0,0.0,0.0,0.0,0.0,0.0,0.0,0.0,0.0,0.0,0.0,0.0,0.0,0.0,0.0,0.0,0.0,0.0,0.0,0.0,0.0,0.0,0.0,0.0,0.0,0.0,0.0,0.0,0.0,0.0,0.0,0.0,0.0,0.0,0.0,0.0,0.0,0.0,0.0,0.0,0.0,0.0,0.0,0.0,0.0,0.0,0.0,0.0,0.0,0.0,0.0,0.0,0.0,0.0,0.0,0.0,0.0,0.0,0.0,0.0,0.0,0.0,0.0,0.0,0.0,0.0,0.0,0.0,0.0,0.0,0.0,0.0,0.0,0.0,0.0,0.0,0.0,0.0,0.0,0.0,0.0,0.0,0.0,0.0,0.0,0.0,0.0,0.0,0.0,0.0,0.0,0.0,0.0,0.0,0.0,0.0,0.0,0.0,0.0,0.0,0.0,0.0,0.0,0.0,0.0,0.0,0.0,0.0,0.0,0.0,0.0,0.0,0.0,0.0,0.0,0.0,0.0,0.0,0.0,0.0,0.0,0.0,0.0,0.0,0.0,0.0,0.0,0.0,0.0,0.0,0.0,0.0,0.0,0.0,0.0,0.0,0.0,0.0,0.0,0.0,0.0,0.0,0.0,0.0,0.0,0.0,0.0,0.0,0.0,0.0,0.0,0.0,0.0,0.0,0.0,0.0,0.0,0.0,0.0,0.0,0.0,0.0,0.0,0.0,0.0,0.0,0.0,0.0,0.0,0.0,0.0,0.0,0.0,0.0,0.0,0.0,0.0,0.0,0.0,0.0,0.0,0.0,0.0,0.0,0.0,0.0,0.0,0.0,0.0,0.0,0.0,0.0,0.0,0.0,0.0,0.0,0.0,0.0,0.0,0.0,0.0,0.0,0.0,0.0,0.0,0.0,0.0,0.0,0.0,0.0,0.0,0.0,0.0,0.0,0.0,0.0,0.0,0.0,0.0,0.0,0.0,0.0,0.0,0.0,0.0,0.0,0.0,0.0,0.0,0.0,0.0,0.0,0.0,0.0,0.0,0.0,0.0,0.0,0.0,0.0,0.0,0.0,0.0,0.0,0.0,0.0,0.0,0.0,0.0,0.0,0.0,0.0,0.0,0.0,0.0,0.0,0.0,0.0,0.0,0.0,0.0,0.0,0.0,0.0,0.0,0.0,0.0,0.0,0.0,0.0,0.0,0.0,0.0,0.0,0.0,0.0,0.0,0.0,0.0,0.0,0.0,0.0,0.0,0.0,0.0,0.0,0.0,0.0,0.0,0.0,0.0,0.0,0.0,0.0,0.0,0.0,0.0,0.0,0.0,0.0,0.0,0.0,0.0,0.0,0.0,0.0,0.0,0.0,0.0,0.0,0.0,0.0,0.0,0.0,0.0,0.0,0.0,0.0,0.0,0.0,0.0,0.0,0.0,0.0,0.0,0.0,0.0,0.0,0.0,0.0,0.0,0.0,0.0,0.0,0.0,0.0,0.0,0.0,0.0,0.0,0.0,0.0,0.0,0.0,0.0,0.0,0.0,0.0,0.0,0.0,0.0,0.0,0.0,0.0,0.0,0.0,0.0,0.0,0.0,0.0,0.0,0.0,0.0,0.0,0.0,0.0,0.0,0.0,0.0,0.0,0.0,0.0,0.0,0.0,0.0,0.0,0.0,0.0,0.0,0.0,0.0,0.0,0.0,0.0,0.0,0.0,0.0,0.0,0.0,0.0,0.0,0.0,0.0,0.0,0.0,0.0,0.0,0.0,0.0,0.0,0.0,0.0,0.0,0.0,0.0,0.0,0.0,0.0,0.0,0.0,0.0,0.0,0.0,0.0,0.0,0.0,0.0,0.0,0.0,0.0,0.0,0.0,0.0,0.0,0.0,0.0,0.0,0.0,0.0,0.0,0.0,0.0,0.0,0.0,0.0,0.0,0.0,0.0,0.0,0.0,0.0,0.0,0.0,0.0,0.0,0.0,0.0,0.0,0.0,0.0,0.0,0.0,0.0,0.0,0.0,0.0,0.0,0.0,0.0,0.0,0.0,0.0,0.0,0.0,0.0,0.0,0.0,0.0,0.0,0.0,0.0,0.0,0.0,0.0,0.0,0.0,0.0,0.0,0.0,0.0,0.0,0.0,0.0,0.0,0.0,0.0,0.0,0.0,0.0,0.0,0.0,0.0,0.0,0.0,0.0,0.0,0.0,0.0,0.0,0.0,0.0,0.0,0.0,0.0,0.0,0.0,0.0,0.0,0.0,0.0,0.0,0.0,0.0,0.0,0.0,0.0,0.0,0.0,0.0,0.0,0.0,0.0,0.0,0.0,0.0,0.0,0.0,0.0,0.0,0.0,0.0,0.0,0.0,0.0,0.0,0.0,0.0,0.0,0.0,0.0,0.0,0.0,0.0,0.0,0.0,0.0,0.0,0.0,0.0,0.0,0.0,0.0,0.0,0.0,0.0,0.0,0.0,0.0,0.0,0.0,0.0,0.0,0.0,0.0,0.0,0.0,0.0,0.0,0.0,0.0,0.0,0.0,0.0,0.0,0.0,0.0,0.0,0.0,0.0,0.0,0.0,0.0,0.0,0.0,0.0,0.0,0.0,0.0,0.0,0.0,0.0,0.0,0.0,0.0,0.0,0.0,0.0,0.0,0.0,0.0,0.0,0.0,0.0,-2.5444,0.0,0.0,0.0,0.0,0.0,0.0,0.0,0.0,0.0,0.0,0.0,0.0,0.0,0.0,0.0,0.0,0.0,0.0,0.0,0.0,0.0,0.0,0.0,0.0,0.0,0.0,0.0,0.0,0.0,0.0,0.0,0.0,0.0,0.0,0.0,0.0,0.0,0.0,0.0,0.0,0.0,0.0,0.0,0.0,0.0,0.0,0.0,0.0,0.0,0.0,0.0,0.0,0.0,0.0,0.0,0.0,0.0,0.0,0.0,0.0,0.0,0.0,0.0,0.0,0.0,0.0,0.0,0.0,0.0,0.0,0.0,0.0,0.0,0.0,0.0,0.0,0.0,0.0,0.0,0.0,0.0,0.0,0.0,0.0,0.0,0.0,0.0,0.0,0.0,0.0,0.0,0.0,0.0,0.0,0.0,0.0,0.0,0.0,0.0,0.0,0.0,0.0,0.0,0.0,0.0,0.0,0.0,0.0,0.0,0.0,-2.6378,-2.5546,-2.6253,-2.6269,-2.5449,0.0,0.0,0.0,0.0,0.0,0.0,0.0,0.0,0.0,0.0,0.0,0.0,0.0,0.0,0.0,0.0,0.0,0.0,0.0,0.0,0.0,0.0,0.0,0.0,0.0,0.0,0.0,0.0,0.0,0.0,0.0,0.0,0.0,0.0,0.0,0.0,0.0,0.0,0.0,0.0,0.0,0.0,0.0,0.0,0.0,0.0,0.0,0.0,0.0,0.0,0.0,0.0,0.0,0.0,0.0,0.0,0.0,0.0,0.0,0.0,0.0,0.0,0.0,0.0,0.0,0.0,0.0,0.0,0.0,0.0,0.0,0.0,0.0,0.0,0.0,0.0,0.0,0.0,0.0,0.0,0.0,0.0,0.0,0.0,0.0,0.0,0.0,0.0,0.0,0.0,0.0,0.0,0.0,0.0,0.0,0.0,0.0,0.0,0.0,0.0,0.0,0.0,0.0,0.0,0.0,0.0,0.0,0.0,0.0,0.0,0.0,0.0,-2.6953,-2.694,-2.626,0.0,0.0,0.0,0.0,0.0,0.0,0.0,0.0,0.0,0.0,0.0,0.0,0.0,0.0,0.0,0.0,0.0,0.0,0.0,0.0,0.0,0.0,0.0,0.0,0.0,0.0,0.0,0.0,0.0,0.0,0.0,0.0,0.0,0.0,0.0,0.0,0.0,0.0,0.0,0.0,0.0,0.0,0.0,0.0,0.0,0.0,0.0,0.0,0.0,0.0,0.0,0.0,0.0,0.0,0.0,0.0,0.0,0.0,0.0,0.0,0.0,0.0,0.0,0.0,0.0,0.0,0.0,0.0,0.0,0.0,0.0,0.0,0.0,0.0,0.0,0.0,0.0,0.0,0.0,0.0,0.0,0.0,0.0,0.0,0.0,0.0,0.0,0.0,0.0,0.0,0.0,0.0,0.0,0.0,0.0,0.0,0.0,0.0,0.0,0.0,0.0,0.0,0.0,0.0,0.0,0.0,0.0,0.0,0.0,0.0,-2.6684,-2.8876,-2.8937,0.0,-2.8695,0.0,0.0,0.0,0.0,0.0,0.0,0.0,0.0,0.0,0.0,0.0,0.0,0.0,0.0,0.0,0.0,0.0,0.0,0.0,0.0,0.0,0.0,0.0,0.0,0.0,0.0,0.0,0.0,0.0,0.0,0.0,0.0,0.0,0.0,0.0,0.0,0.0,0.0,0.0,0.0,0.0,0.0,0.0,0.0,0.0,0.0,0.0,0.0,0.0,0.0,0.0,0.0,0.0,0.0,0.0,0.0,0.0,0.0,0.0,0.0,0.0,0.0,0.0,0.0,0.0,0.0,0.0,0.0,0.0,0.0,0.0,0.0,0.0,0.0,0.0,0.0,0.0,0.0,0.0,0.0,0.0,0.0,0.0,0.0,0.0,0.0,0.0,0.0,0.0,0.0,0.0,0.0,0.0,0.0,0.0,0.0,0.0,0.0,0.0,0.0,0.0,0.0,0.0,0.0,0.0,0.0,0.0,0.0,0.0,0.0,-2.7737,-2.9307,-2.9282,-2.8753,0.0,0.0,0.0,0.0,0.0,0.0,0.0,0.0,0.0,0.0,0.0,0.0,0.0,0.0,0.0,0.0,0.0,0.0,0.0,0.0,0.0,0.0,0.0,0.0,0.0,0.0,0.0,0.0,0.0,0.0,0.0,0.0,0.0,0.0,0.0,0.0,0.0,0.0,0.0,0.0,0.0,0.0,0.0,0.0,0.0,0.0,0.0,0.0,0.0,0.0,0.0,0.0,0.0,0.0,0.0,0.0,0.0,0.0,0.0,0.0,0.0,0.0,0.0,0.0,0.0,0.0,0.0,0.0,0.0,0.0,0.0,0.0,0.0,0.0,0.0,0.0,0.0,0.0,0.0,0.0,0.0,0.0,0.0,0.0,0.0,0.0,0.0,0.0,0.0,0.0,0.0,0.0,0.0,0.0,0.0,0.0,0.0,0.0,0.0,0.0,0.0,0.0,0.0,0.0,0.0,0.0,0.0,0.0,0.0,0.0,-2.8129,-2.8958,-3.0215,-2.9428,-2.8401,-2.7329,0.0,0.0,0.0,0.0,0.0,0.0,0.0,0.0,0.0,0.0,0.0,0.0,0.0,0.0,0.0,0.0,0.0,0.0,0.0,0.0,0.0,0.0,0.0,0.0,0.0,0.0,0.0,0.0,0.0,0.0,0.0,0.0,0.0,0.0,0.0,0.0,0.0,0.0,0.0,0.0,0.0,0.0,0.0,0.0,0.0,0.0,0.0,0.0,0.0,0.0,0.0,0.0,0.0,0.0,0.0,0.0,0.0,0.0,0.0,0.0,0.0,0.0,0.0,0.0,0.0,0.0,0.0,0.0,0.0,0.0,0.0,0.0,0.0,0.0,0.0,0.0,0.0,0.0,0.0,0.0,0.0,0.0,0.0,0.0,0.0,0.0,0.0,0.0,0.0,0.0,0.0,0.0,0.0,0.0,0.0,0.0,0.0,0.0,0.0,0.0,0.0,0.0,0.0,0.0,0.0,0.0,0.0,0.0,-3.2525,-3.0436,-3.0307,-3.2538,-2.9624,-2.8301,0.0,0.0,0.0,0.0,0.0,0.0,0.0,0.0,0.0,0.0,0.0,0.0,0.0,0.0,0.0,0.0,0.0,0.0,0.0,0.0,0.0,0.0,0.0,0.0,0.0,0.0,0.0,0.0,0.0,0.0,0.0,0.0,0.0,0.0,0.0,0.0,0.0,0.0,0.0,0.0,0.0,0.0,0.0,0.0,0.0,0.0,0.0,0.0,0.0,0.0,0.0,0.0,0.0,0.0,0.0,0.0,0.0,0.0,0.0,0.0,0.0,0.0,0.0,0.0,0.0,0.0,0.0,0.0,0.0,0.0,0.0,0.0,0.0,0.0,0.0,0.0,0.0,0.0,0.0,0.0,0.0,0.0,0.0,0.0,0.0,0.0,0.0,0.0,0.0,0.0,0.0,0.0,0.0,0.0,0.0,0.0,0.0,0.0,0.0,0.0,0.0,0.0,0.0,0.0,0.0,0.0,0.0,0.0,0.0,-2.9034,-3.0257,-3.1507,-3.2782,-3.0731,-2.9666,0.0,0.0,0.0,0.0,0.0,0.0,0.0,0.0,0.0,0.0,0.0,0.0,0.0,0.0,0.0,0.0,0.0,0.0,0.0,0.0,0.0,0.0,0.0,0.0,0.0,0.0,0.0,0.0,0.0,0.0,0.0,0.0,0.0,0.0,0.0,0.0,0.0,0.0,0.0,0.0,0.0,0.0,0.0,0.0,0.0,0.0,0.0,0.0,0.0,0.0,0.0,0.0,0.0,0.0,0.0,0.0,0.0,0.0,0.0,0.0,0.0,0.0,0.0,0.0,0.0,0.0,0.0,0.0,0.0,0.0,0.0,0.0,0.0,0.0,0.0,0.0,0.0,0.0,0.0,0.0,0.0,0.0,0.0,0.0,0.0,0.0,0.0,0.0,0.0,0.0,0.0,0.0,0.0,0.0,0.0,0.0,0.0,0.0,0.0,0.0,0.0,0.0,0.0,0.0,0.0,0.0,0.0,0.0,0.0,-2.8356,0.0,-3.2656,-3.2723,-3.1,-2.9712,0.0,0.0,0.0,0.0,0.0,0.0,0.0,0.0,0.0,0.0,0.0,0.0,0.0,0.0,0.0,0.0,0.0,0.0,0.0,0.0,0.0,0.0,0.0,0.0,0.0,0.0,0.0,0.0,0.0,0.0,0.0,0.0,0.0,0.0,0.0,0.0,0.0,0.0,0.0,0.0,0.0,0.0,0.0,0.0,0.0,0.0,0.0,0.0,0.0,0.0,0.0,0.0,0.0,0.0,0.0,0.0,0.0,0.0,0.0,0.0,0.0,0.0,0.0,0.0,0.0,0.0,0.0,0.0,0.0,0.0,0.0,0.0,0.0,0.0,0.0,0.0,0.0,0.0,0.0,0.0,0.0,0.0,0.0,0.0,0.0,0.0,0.0,0.0,0.0,0.0,0.0,0.0,0.0,0.0,0.0,0.0,0.0,0.0,0.0,0.0,0.0,0.0,0.0,0.0,0.0,0.0,0.0,0.0,-2.743,-3.1322,-3.3154,-3.3633,-3.2649,-3.0347,-2.8294,0.0,0.0,0.0,0.0,0.0,0.0,0.0,0.0,0.0,0.0,0.0,0.0,0.0,0.0,0.0,0.0,0.0,0.0,0.0,0.0,0.0,0.0,0.0,0.0,0.0,0.0,0.0,0.0,0.0,0.0,0.0,0.0,0.0,0.0,0.0,0.0,0.0,0.0,0.0,0.0,0.0,0.0,0.0,0.0,0.0,0.0,0.0,0.0,0.0,0.0,0.0,0.0,0.0,0.0,0.0,0.0,0.0,0.0,0.0,0.0,0.0,0.0,0.0,0.0,0.0,0.0,0.0,0.0,0.0,0.0,0.0,0.0,0.0,0.0,0.0,0.0,0.0,0.0,0.0,0.0,0.0,0.0,0.0,0.0,0.0,0.0,0.0,0.0,0.0,0.0,0.0,0.0,0.0,0.0,0.0,0.0,0.0,0.0,0.0,0.0,0.0,0.0,0.0,0.0,0.0,0.0,0.0,0.0,0.0,-2.9012,-3.1776,-3.3916,-3.5062,-3.1202,-2.9831,0.0,0.0,0.0,0.0,0.0,0.0,0.0,0.0,0.0,0.0,0.0,0.0,0.0,0.0,0.0,0.0,0.0,0.0,0.0,0.0,0.0,0.0,0.0,0.0,0.0,0.0,0.0,0.0,0.0,0.0,0.0,0.0,0.0,0.0,0.0,0.0,0.0,0.0,0.0,0.0,0.0,0.0,0.0,0.0,0.0,0.0,0.0,0.0,0.0,0.0,0.0,0.0,0.0,0.0,0.0,0.0,0.0,0.0,0.0,0.0,0.0,0.0,0.0,0.0,0.0,0.0,0.0,0.0,0.0,0.0,0.0,0.0,0.0,0.0,0.0,0.0,0.0,0.0,0.0,0.0,0.0,0.0,0.0,0.0,0.0,0.0,0.0,0.0,0.0,0.0,0.0,0.0,0.0,0.0,0.0,0.0,0.0,0.0,0.0,0.0,0.0,0.0,0.0,0.0,0.0,0.0,0.0,0.0,0.0,-2.9749,-3.2283,-3.445,-3.5977,-3.2051,-3.0623,-3.1974,0.0,0.0,0.0,0.0,0.0,0.0,0.0,0.0,0.0,0.0,0.0,0.0,0.0,0.0,0.0,0.0,0.0,0.0,0.0,0.0,0.0,0.0,0.0,0.0,0.0,0.0,0.0,0.0,0.0,0.0,0.0,0.0,0.0,0.0,0.0,0.0,0.0,0.0,0.0,0.0,0.0,0.0,0.0,0.0,0.0,0.0,0.0,0.0,0.0,0.0,0.0,0.0,0.0,0.0,0.0,0.0,0.0,0.0,0.0,0.0,0.0,0.0,0.0,0.0,0.0,0.0,0.0,0.0,0.0,0.0,0.0,0.0,0.0,0.0,0.0,0.0,0.0,0.0,0.0,0.0,0.0,0.0,0.0,0.0,0.0,0.0,0.0,0.0,0.0,0.0,0.0,0.0,0.0,0.0,0.0,0.0,0.0,0.0,0.0,0.0,0.0,0.0,0.0,0.0,0.0,0.0,0.0,0.0,-3.2814,-3.4475,-3.539,-3.5455,-3.2924,-3.0814,0.0,0.0,0.0,0.0,0.0,0.0,0.0,0.0,0.0,0.0,0.0,0.0,0.0,0.0,0.0,0.0,0.0,0.0,0.0,0.0,0.0,0.0,0.0,0.0,0.0,0.0,0.0,0.0,0.0,0.0,0.0,0.0,0.0,0.0,0.0,0.0,0.0,0.0,0.0,0.0,0.0,0.0,0.0,0.0,0.0,0.0,0.0,0.0,0.0,0.0,0.0,0.0,0.0,0.0,0.0,0.0,0.0,0.0,0.0,0.0,0.0,0.0,0.0,0.0,0.0,0.0,0.0,0.0,0.0,0.0,0.0,0.0,0.0,0.0,0.0,0.0,0.0,0.0,0.0,0.0,0.0,0.0,0.0,0.0,0.0,0.0,0.0,0.0,0.0,0.0,0.0,0.0,0.0,0.0,0.0,0.0,0.0,0.0,0.0,0.0,0.0,0.0,0.0,0.0,0.0,0.0,0.0,0.0,0.0,-3.4495,-3.6184,-3.7366,-3.7955,-3.4443,-3.2257,0.0,0.0,0.0,0.0,0.0,0.0,0.0,0.0,0.0,0.0,0.0,0.0,0.0,0.0,0.0,0.0,0.0,0.0,0.0,0.0,0.0,0.0,0.0,0.0,0.0,0.0,0.0,0.0,0.0,0.0,0.0,0.0,0.0,0.0,0.0,0.0,0.0,0.0,0.0,0.0,0.0,0.0,0.0,0.0,0.0,0.0,0.0,0.0,0.0,0.0,0.0,0.0,0.0,0.0,0.0,0.0,0.0,0.0,0.0,0.0,0.0,0.0,0.0,0.0,0.0,0.0,0.0,0.0,0.0,0.0,0.0,0.0,0.0,0.0,0.0,0.0,0.0,0.0,0.0,0.0,0.0,0.0,0.0,0.0,0.0,0.0,0.0,0.0,0.0,0.0,0.0,0.0,0.0,0.0,0.0,0.0,0.0,0.0,0.0,0.0,0.0,0.0,0.0,0.0,0.0,0.0,0.0,0.0,-3.2814,-3.5698,-3.7405,-3.8395,-3.8582,-3.5871,-3.3556,0.0,0.0,0.0,0.0,0.0,0.0,0.0,0.0,0.0,0.0,0.0,0.0,0.0,0.0,0.0,0.0,0.0,0.0,0.0,0.0,0.0,0.0,0.0,0.0,0.0,0.0,0.0,0.0,0.0,0.0,0.0,0.0,0.0,0.0,0.0,0.0,0.0,0.0,0.0,0.0,0.0,0.0,0.0,0.0,0.0,0.0,0.0,0.0,0.0,0.0,0.0,0.0,0.0,0.0,0.0,0.0,0.0,0.0,0.0,0.0,0.0,0.0,0.0,0.0,0.0,0.0,0.0,0.0,0.0,0.0,0.0,0.0,0.0,0.0,0.0,0.0,0.0,0.0,0.0,0.0,0.0,0.0,0.0,0.0,0.0,0.0,0.0,0.0,0.0,0.0,0.0,0.0,0.0,0.0,0.0,0.0,0.0,0.0,0.0,0.0,0.0,0.0,0.0,0.0,0.0,0.0,0.0,0.0,-3.3146,-3.6413,-3.8204,-3.8725,-3.7923,-3.6972,-3.4566,0.0,0.0,0.0,0.0,0.0,0.0,0.0,0.0,0.0,0.0,0.0,0.0,0.0,0.0,0.0,0.0,0.0,0.0,0.0,0.0,0.0,0.0,0.0,0.0,0.0,0.0,0.0,0.0,0.0,0.0,0.0,0.0,0.0,0.0,0.0,0.0,0.0,0.0,0.0,0.0,0.0,0.0,0.0,0.0,0.0,0.0,0.0,0.0,0.0,0.0,0.0,0.0,0.0,0.0,0.0,0.0,0.0,0.0,0.0,0.0,0.0,0.0,0.0,0.0,0.0,0.0,0.0,0.0,0.0,0.0,0.0,0.0,0.0,0.0,0.0,0.0,0.0,0.0,0.0,0.0,0.0,0.0,0.0,0.0,0.0,0.0,0.0,0.0,0.0,0.0,0.0,0.0,0.0,0.0,0.0,0.0,0.0,0.0,0.0,0.0,0.0,0.0,0.0,0.0,0.0,0.0,0.0,0.0,-3.3804,-3.6433,-3.8183,-3.8722,-3.7924,-3.6438,-3.3993,0.0,0.0,0.0,0.0,0.0,0.0,0.0,0.0,0.0,0.0,0.0,0.0,0.0,0.0,0.0,0.0,0.0,0.0,0.0,0.0,0.0,0.0,0.0,0.0,0.0,0.0,0.0,0.0,0.0,0.0,0.0,0.0,0.0,0.0,0.0,0.0,0.0,0.0,0.0,0.0,0.0,0.0,0.0,0.0,0.0,0.0,0.0,0.0,-2.4969,0.0,0.0,0.0,0.0,0.0,0.0,0.0,0.0,0.0,0.0,0.0,0.0,0.0,0.0,0.0,0.0,0.0,0.0,0.0,0.0,0.0,0.0,0.0,0.0,0.0,0.0,0.0,0.0,0.0,0.0,0.0,0.0,0.0,0.0,0.0,0.0,0.0,0.0,0.0,0.0,0.0,0.0,0.0,0.0,0.0,0.0,0.0,0.0,0.0,0.0,0.0,0.0,0.0,0.0,0.0,0.0,0.0,0.0,0.0,-3.4205,-3.7015,-3.806,-3.8323,-3.7855,-3.6315,-3.3853,0.0,0.0,0.0,0.0,0.0,0.0,0.0,0.0,0.0,0.0,0.0,0.0,0.0,0.0,0.0,0.0,0.0,0.0,0.0,0.0,0.0,0.0,0.0,0.0,0.0,0.0,0.0,0.0,0.0,0.0,0.0,0.0,0.0,0.0,0.0,0.0,0.0,0.0,0.0,0.0,0.0,0.0,0.0,0.0,0.0,0.0,0.0,0.0,0.0,0.0,0.0,0.0,0.0,0.0,0.0,0.0,0.0,0.0,0.0,0.0,0.0,0.0,0.0,0.0,0.0,0.0,0.0,0.0,0.0,0.0,0.0,0.0,0.0,0.0,0.0,0.0,0.0,0.0,0.0,0.0,0.0,0.0,0.0,0.0,0.0,0.0,0.0,0.0,0.0,0.0,0.0,0.0,0.0,0.0,0.0,0.0,0.0,0.0,0.0,0.0,0.0,0.0,0.0,0.0,0.0,0.0,0.0,-3.1997,-3.4376,-3.7461,-3.7678,-3.7717,-3.7679,-3.6163,-3.376,-3.0576,0.0,0.0,0.0,0.0,0.0,0.0,0.0,0.0,0.0,0.0,0.0,0.0,0.0,0.0,0.0,0.0,0.0,0.0,0.0,0.0,0.0,0.0,0.0,0.0,0.0,0.0,0.0,0.0,0.0,0.0,0.0,0.0,0.0,0.0,0.0,0.0,0.0,0.0,-2.5454,-2.6285,0.0,0.0,0.0,0.0,0.0,0.0,0.0,0.0,-2.5697,0.0,0.0,0.0,0.0,0.0,0.0,0.0,0.0,0.0,0.0,0.0,0.0,0.0,0.0,0.0,0.0,0.0,0.0,0.0,0.0,0.0,0.0,0.0,0.0,0.0,0.0,0.0,0.0,0.0,0.0,0.0,0.0,0.0,0.0,0.0,0.0,0.0,0.0,0.0,0.0,0.0,0.0,0.0,0.0,0.0,0.0,0.0,0.0,0.0,0.0,0.0,0.0,0.0,0.0,0.0,0.0,-3.1266,-3.2338,-3.4176,-3.6792,-3.6903,-3.6887,-3.6858,-3.5329,-3.3226,-3.0623,0.0,0.0,0.0,0.0,0.0,0.0,0.0,0.0,0.0,0.0,0.0,0.0,0.0,0.0,0.0,0.0,0.0,0.0,0.0,0.0,0.0,0.0,0.0,0.0,0.0,0.0,0.0,0.0,0.0,0.0,0.0,0.0,0.0,0.0,0.0,0.0,0.0,0.0,0.0,-2.7618,-2.8326,0.0,0.0,0.0,0.0,0.0,0.0,0.0,0.0,-2.5303,0.0,0.0,0.0,0.0,0.0,0.0,0.0,0.0,0.0,0.0,0.0,0.0,0.0,0.0,0.0,0.0,0.0,0.0,0.0,0.0,0.0,0.0,0.0,0.0,0.0,0.0,0.0,0.0,0.0,0.0,0.0,0.0,0.0,0.0,0.0,0.0,0.0,0.0,0.0,0.0,0.0,0.0,0.0,0.0,0.0,0.0,0.0,0.0,0.0,0.0,0.0,0.0,0.0,0.0,0.0,-3.0886,-3.266,-3.4607,-3.6622,-3.6721,-3.6704,-3.6701,-3.4725,-3.264,0.0,0.0,0.0,0.0,0.0,0.0,0.0,0.0,0.0,0.0,0.0,0.0,0.0,0.0,0.0,0.0,0.0,0.0,0.0,0.0,0.0,0.0,0.0,0.0,0.0,0.0,0.0,0.0,0.0,0.0,0.0,0.0,0.0,0.0,0.0,0.0,0.0,0.0,0.0,0.0,-2.8153,-2.8796,-2.8382,0.0,0.0,0.0,0.0,0.0,0.0,-2.6442,-2.6314,0.0,0.0,0.0,0.0,0.0,0.0,0.0,0.0,0.0,0.0,0.0,0.0,0.0,0.0,0.0,0.0,0.0,0.0,0.0,0.0,0.0,0.0,0.0,0.0,0.0,0.0,0.0,0.0,0.0,0.0,0.0,0.0,0.0,0.0,0.0,0.0,0.0,0.0,0.0,0.0,0.0,0.0,0.0,0.0,0.0,0.0,0.0,0.0,0.0,0.0,0.0,0.0,0.0,0.0,0.0,-3.0343,-3.2737,-3.4769,-3.6368,-3.6454,-3.6412,-3.6228,-3.3992,-3.1981,0.0,0.0,0.0,0.0,0.0,0.0,0.0,0.0,0.0,0.0,0.0,0.0,0.0,0.0,0.0,0.0,0.0,0.0,0.0,0.0,0.0,0.0,0.0,0.0,0.0,0.0,0.0,0.0,0.0,0.0,0.0,0.0,0.0,0.0,0.0,0.0,0.0,0.0,0.0,0.0,0.0,-2.958,-2.9394,-2.9882,0.0,0.0,0.0,0.0,-2.7645,-2.7579,0.0,0.0,0.0,0.0,0.0,0.0,0.0,0.0,0.0,0.0,0.0,0.0,0.0,0.0,0.0,0.0,0.0,0.0,0.0,0.0,0.0,0.0,0.0,0.0,0.0,0.0,0.0,0.0,0.0,0.0,0.0,0.0,0.0,0.0,0.0,0.0,0.0,0.0,0.0,0.0,0.0,0.0,0.0,0.0,0.0,0.0,0.0,0.0,0.0,0.0,0.0,0.0,0.0,0.0,0.0,0.0,-3.0387,-3.2192,-3.3955,-3.5538,-3.5656,-3.5284,-3.4514,-3.283,-3.1154,0.0,0.0,0.0,0.0,0.0,0.0,0.0,0.0,0.0,0.0,0.0,0.0,0.0,0.0,0.0,0.0,0.0,0.0,0.0,0.0,0.0,0.0,0.0,0.0,0.0,0.0,0.0,0.0,0.0,0.0,0.0,0.0,0.0,0.0,0.0,0.0,0.0,0.0,0.0,0.0,0.0,-3.1868,-3.1051,-3.104,-3.0761,0.0,0.0,-2.8257,-2.8211,-2.8193,0.0,0.0,0.0,0.0,0.0,0.0,0.0,0.0,0.0,0.0,0.0,0.0,0.0,0.0,0.0,0.0,0.0,0.0,0.0,0.0,0.0,0.0,0.0,0.0,0.0,0.0,0.0,0.0,0.0,0.0,0.0,0.0,0.0,0.0,0.0,0.0,0.0,0.0,0.0,0.0,0.0,0.0,0.0,0.0,0.0,0.0,0.0,0.0,0.0,0.0,0.0,0.0,0.0,0.0,0.0,-2.8725,-3.0392,-3.2113,-3.3814,-3.5423,-3.5489,-3.5091,-3.4269,-3.2171,-3.0738,0.0,0.0,0.0,0.0,0.0,0.0,0.0,0.0,0.0,0.0,0.0,0.0,0.0,0.0,0.0,0.0,0.0,0.0,0.0,0.0,0.0,0.0,0.0,0.0,0.0,0.0,0.0,0.0,0.0,0.0,0.0,0.0,0.0,0.0,0.0,0.0,0.0,0.0,0.0,0.0,0.0,0.0,-3.0574,-3.1278,0.0,0.0,0.0,-2.9869,-3.0385,0.0,0.0,0.0,0.0,0.0,0.0,0.0,0.0,0.0,0.0,0.0,0.0,0.0,0.0,0.0,0.0,0.0,0.0,0.0,0.0,0.0,0.0,0.0,0.0,0.0,0.0,0.0,0.0,0.0,0.0,0.0,0.0,0.0,0.0,0.0,0.0,0.0,0.0,0.0,0.0,0.0,0.0,0.0,0.0,0.0,0.0,0.0,0.0,0.0,0.0,0.0,0.0,0.0,0.0,0.0,0.0,0.0,-3.0058,-3.2004,-3.3705,-3.5122,-3.5188,-3.4795,-3.3952,-3.1535,0.0,0.0,0.0,0.0,0.0,0.0,0.0,0.0,0.0,0.0,0.0,0.0,0.0,0.0,0.0,0.0,0.0,0.0,0.0,0.0,0.0,0.0,0.0,0.0,0.0,0.0,0.0,-2.1196,0.0,0.0,0.0,0.0,0.0,0.0,0.0,0.0,0.0,0.0,0.0,0.0,0.0,0.0,-3.1284,-3.0557,-3.1693,-3.2364,0.0,0.0,-3.1204,-3.1698,-3.0819,-3.0235,0.0,0.0,0.0,0.0,0.0,0.0,0.0,0.0,0.0,0.0,0.0,0.0,0.0,0.0,0.0,0.0,0.0,0.0,0.0,0.0,0.0,0.0,0.0,0.0,0.0,0.0,0.0,0.0,0.0,0.0,0.0,0.0,0.0,0.0,0.0,0.0,0.0,0.0,0.0,0.0,0.0,0.0,0.0,0.0,0.0,0.0,0.0,0.0,0.0,0.0,0.0,0.0,0.0,0.0,0.0,-2.9228,-3.1713,-3.3409,-3.4244,-3.4353,-3.3971,-3.3098,-3.067,-2.9419,0.0,0.0,0.0,0.0,0.0,0.0,0.0,0.0,0.0,0.0,0.0,0.0,0.0,0.0,0.0,0.0,0.0,0.0,0.0,0.0,0.0,0.0,0.0,0.0,0.0,0.0,0.0,0.0,0.0,0.0,0.0,0.0,0.0,0.0,0.0,0.0,0.0,0.0,0.0,0.0,0.0,-3.2175,-3.1964,-3.2687,-3.3181,0.0,0.0,-3.168,-3.1012,-3.0845,-3.0584,-2.9915,0.0,0.0,0.0,0.0,0.0,0.0,0.0,0.0,0.0,0.0,0.0,0.0,0.0,0.0,0.0,0.0,0.0,0.0,0.0,0.0,0.0,0.0,0.0,0.0,0.0,0.0,0.0,0.0,0.0,0.0,0.0,0.0,0.0,0.0,0.0,0.0,0.0,0.0,0.0,0.0,0.0,0.0,0.0,0.0,0.0,0.0,0.0,0.0,0.0,0.0,0.0,0.0,0.0,-2.8564,-2.989,-3.1447,-3.2654,-3.3429,-3.3521,-3.3156,-3.2274,-3.0843,-2.9873,0.0,0.0,0.0,0.0,0.0,0.0,0.0,0.0,0.0,0.0,0.0,0.0,0.0,0.0,0.0,0.0,0.0,0.0,0.0,0.0,0.0,0.0,0.0,0.0,0.0,0.0,0.0,0.0,-2.3851,-2.439,-2.5196,0.0,0.0,0.0,0.0,0.0,0.0,0.0,0.0,0.0,0.0,-3.2164,-3.1457,-3.2048,0.0,0.0,-3.1699,-3.1211,-3.1432,-3.0701,-3.0189,-3.0443,-2.9026,0.0,0.0,0.0,0.0,0.0,0.0,0.0,0.0,0.0,0.0,0.0,0.0,0.0,0.0,0.0,0.0,0.0,0.0,0.0,0.0,0.0,0.0,0.0,0.0,0.0,0.0,0.0,0.0,0.0,0.0,0.0,0.0,0.0,0.0,0.0,0.0,0.0,0.0,0.0,0.0,0.0,0.0,0.0,0.0,0.0,0.0,0.0,0.0,0.0,0.0,0.0,0.0,-2.8853,-3.0037,-3.1193,-3.2072,-3.2605,-3.2662,-3.2429,-3.1821,-3.0802,-3.0079,0.0,0.0,0.0,0.0,0.0,0.0,0.0,0.0,0.0,0.0,0.0,0.0,0.0,0.0,0.0,0.0,0.0,0.0,0.0,0.0,0.0,0.0,0.0,0.0,0.0,0.0,0.0,0.0,-2.426,-2.4673,-2.5225,0.0,0.0,0.0,0.0,0.0,0.0,0.0,0.0,0.0,0.0,-3.1722,-3.0968,-3.1735,-3.2379,-3.2371,-3.184,-3.1632,-3.2278,-3.1049,-3.0236,-3.0913,0.0,0.0,0.0,0.0,0.0,0.0,0.0,0.0,0.0,0.0,0.0,0.0,0.0,0.0,0.0,0.0,0.0,0.0,0.0,0.0,0.0,0.0,0.0,0.0,0.0,0.0,0.0,0.0,0.0,0.0,0.0,0.0,0.0,0.0,0.0,0.0,0.0,0.0,0.0,0.0,0.0,0.0,0.0,0.0,0.0,0.0,0.0,0.0,0.0,0.0,0.0,0.0,0.0,-2.9177,-2.928,-3.0934,-3.1774,-3.1722,-3.1781,-3.184,-3.1845,-3.03,-2.983,-3.0613,0.0,0.0,0.0,0.0,0.0,0.0,0.0,0.0,0.0,0.0,0.0,0.0,0.0,0.0,0.0,0.0,0.0,0.0,0.0,0.0,0.0,0.0,0.0,0.0,0.0,0.0,-2.4058,-2.4774,-2.5288,0.0,0.0,0.0,0.0,0.0,0.0,0.0,0.0,0.0,0.0,-3.0406,-3.0833,-3.0833,-3.2104,-3.3015,-3.317,-3.3173,-3.3224,-3.332,-3.2023,-3.0998,0.0,0.0,0.0,0.0,0.0,0.0,0.0,0.0,0.0,0.0,0.0,0.0,0.0,0.0,0.0,0.0,0.0,0.0,0.0,0.0,0.0,0.0,0.0,0.0,0.0,0.0,0.0,-2.8061,-2.8507,0.0,0.0,0.0,0.0,0.0,0.0,0.0,0.0,0.0,0.0,0.0,-2.9289,-3.039,0.0,0.0,0.0,0.0,0.0,0.0,0.0,0.0,0.0,0.0,0.0,0.0,-2.9467,-2.9998,-3.0646,-3.1004,-3.0955,-3.0989,-3.1026,-3.1079,-3.0552,-3.0397,-3.0671,0.0,0.0,0.0,0.0,0.0,0.0,0.0,0.0,0.0,0.0,0.0,0.0,0.0,0.0,0.0,0.0,0.0,0.0,0.0,0.0,0.0,0.0,0.0,0.0,0.0,-2.5725,0.0,0.0,0.0,0.0,0.0,0.0,0.0,0.0,0.0,0.0,0.0,-2.883,-2.9686,-3.0498,-3.097,-3.0951,-3.1363,-3.1689,0.0,0.0,0.0,0.0,0.0,0.0,0.0,0.0,0.0,0.0,0.0,0.0,0.0,0.0,-2.7211,-2.7455,-2.7043,-2.6978,-2.7998,0.0,0.0,0.0,0.0,0.0,0.0,0.0,0.0,0.0,0.0,0.0,0.0,0.0,0.0,0.0,0.0,-2.9147,0.0,0.0,0.0,0.0,0.0,0.0,0.0,0.0,-2.9651,-3.0617,-3.1419,-3.1975,-3.1981,0.0,-3.1482,-3.1018,0.0,0.0,0.0,0.0,0.0,0.0,0.0,0.0,-2.9931,-3.0446,-3.0568,-3.0619,-3.0606,-3.0608,-3.0653,-3.07,-3.0707,-3.0563,-3.0243,-2.8893,-2.8404,0.0,0.0,0.0,0.0,0.0,0.0,0.0,0.0,0.0,0.0,0.0,0.0,0.0,0.0,0.0,0.0,0.0,0.0,0.0,0.0,0.0,0.0,0.0,-2.6619,0.0,0.0,0.0,0.0,0.0,0.0,0.0,0.0,0.0,-2.8774,-2.8949,-2.923,-2.9732,-3.0269,-3.06,-3.0555,0.0,0.0,0.0,0.0,0.0,0.0,0.0,-3.0919,-3.0435,-3.0516,-3.0473,-2.9986,-2.9353,-2.8993,-2.9192,0.0,0.0,-2.8727,-2.8361,-2.8296,-2.9267,-2.8623,-2.8203,-2.9179,-2.8843,-2.8524,0.0,0.0,0.0,0.0,0.0,0.0,0.0,0.0,-3.1451,-3.178,0.0,-3.0999,0.0,0.0,0.0,0.0,0.0,0.0,0.0,0.0,-3.1796,-3.2274,-3.3049,-3.3165,-3.3146,-3.3107,-3.3068,-3.2677,-3.1849,-3.0119,0.0,0.0,0.0,0.0,0.0,0.0,-3.0535,-3.0578,-3.0604,-3.0606,-3.0606,-3.0669,-3.07,-3.07,-3.0703,-3.0321,-2.9544,-3.0146,-2.9836,-2.8275,-2.8094,0.0,0.0,0.0,0.0,0.0,0.0,0.0,0.0,0.0,0.0,0.0,0.0,0.0,0.0,0.0,0.0,0.0,0.0,0.0,0.0,-2.5662,0.0,0.0,0.0,0.0,0.0,0.0,0.0,0.0,0.0,0.0,-2.8806,-2.9412,-2.9895,-2.9873,0.0,0.0,0.0,0.0,-3.0987,-3.105,-3.1775,-3.2303,-3.2346,-3.1712,-3.1191,-3.1146,0.0,0.0,-2.9895,-2.9904,-2.9603,-2.8806,-2.8642,-2.8733,-2.9382,-2.9476,-2.9514,-2.9486,-2.9382,-2.9485,-2.9418,-2.9091,-2.8992,-3.6456,0.0,0.0,0.0,0.0,-3.2858,-3.3109,-3.317,-3.2904,-3.3113,-3.3581,-3.2783,0.0,0.0,0.0,0.0,0.0,0.0,-3.1623,-3.1835,-3.2489,-3.2929,-3.3224,-3.44,-3.4347,-3.3185,-3.3122,-3.2982,-3.2682,-3.1041,-3.0315,-3.0568,0.0,0.0,0.0,0.0,-3.0572,-3.061,-3.0649,-3.0669,-3.0673,-3.0696,-3.0707,-3.0703,-3.071,-3.0597,-3.0321,-2.9369,-2.9195,-2.9894,-2.8223,0.0,0.0,0.0,0.0,0.0,0.0,0.0,0.0,0.0,0.0,0.0,0.0,0.0,0.0,0.0,0.0,0.0,0.0,0.0,-2.7621,-2.7628,-2.7571,0.0,0.0,0.0,0.0,0.0,0.0,0.0,0.0,0.0,-2.9725,-2.9836,-3.017,0.0,0.0,-3.0146,-3.0644,-3.0511,-3.0337,-3.0316,0.0,0.0,0.0,-3.1064,-3.1091,-3.0566,-3.019,-2.9943,-2.9912,-2.9851,-2.975,-2.9477,-2.9396,-2.9418,-2.9551,-2.9157,-2.8604,-2.8079,-2.8296,-2.8446,-2.7923,-2.7651,-2.7551,-3.8481,-3.6421,-3.5179,-3.4245,-3.3648,-3.3982,-3.4016,-3.3847,-3.3752,-3.3989,-3.4409,-3.3928,-3.3703,-3.3675,-3.2775,0.0,0.0,0.0,-3.2551,-3.2895,-3.3456,-3.3872,-3.4255,-3.5224,-3.5016,-3.3746,-3.3669,-3.3475,-3.3097,-3.1773,-3.1142,-3.1142,0.0,0.0,-3.0554,-3.0589,-3.0606,-3.0645,-3.0677,-3.0695,-3.0711,-3.0692,-3.0699,-3.0694,-3.0694,-3.0694,-3.0694,-2.97,-2.9292,-2.9641,-2.8887,-2.8165,0.0,0.0,0.0,0.0,0.0,0.0,0.0,0.0,0.0,0.0,0.0,-2.4215,0.0,0.0,0.0,0.0,-2.6829,-2.7754,-2.8585,-2.854,0.0,0.0,0.0,0.0,0.0,0.0,0.0,-2.9518,-3.0029,-3.0324,-3.024,-3.02,-3.0297,-3.0665,-3.0361,-3.0255,-3.0647,0.0,-3.0116,-3.0072,-3.0106,-3.014,-3.014,-3.0552,-3.0704,-3.023,-3.0076,-2.9983,-2.9918,-2.9876,-2.9605,-2.9022,-2.8799,-2.855,-2.7877,-2.7551,-2.7571,-2.7648,-2.7753,-2.7633,-2.7139,-2.6963,-2.6943,-3.988,-3.9638,-3.793,-3.6287,-3.4889,-3.5533,-3.4942,-3.3587,-3.4303,-3.4593,-3.4585,-3.4605,-3.4566,-3.4449,-3.3673,0.0,-3.3294,-3.331,-3.3775,-3.4589,-3.4608,-3.4976,-3.5689,-3.5708,-3.5321,-3.4599,-3.4599,-3.4181,-3.3389,-3.2481,-3.2082,-3.2178,-3.1196,-3.0686,-3.0608,-3.0602,-3.0641,-3.07,-3.0703,-3.0694,-3.0694,-3.0694,-3.0694,-3.0694,-3.0694,-3.0694,-3.0694,-3.0694,-2.9933,-2.8356,-2.9661,-2.9412,-2.708,0.0,0.0,0.0,0.0,0.0,0.0,0.0,0.0,0.0,0.0,0.0,0.0,0.0,0.0,0.0,-2.6746,0.0,-2.7923,-2.8608,0.0,0.0,0.0,-2.955,-3.0224,-2.9702,-2.9569,-3.0225,0.0,0.0,-3.0206,0.0,-3.0107,-2.988,-3.0013,-3.0123,-3.009,-3.0114,-3.011,-2.9924,-2.997,-2.9982,-2.9822,-2.9891,-2.9863,-2.9748,-2.9848,-2.9687,-2.962,-2.9631,-2.9028,-2.7777,-2.7406,-2.7008,-2.5322,-2.5855,-2.6547,-2.8005,-2.7585,-2.6978,-2.6886,-2.685,-2.7046,-4.0385,-3.978,-3.9326,-3.8461,-3.7361,-3.6938,-3.6522,-3.6061,-3.5655,-3.5484,-3.5493,-3.5491,-3.513,-3.4532,-3.4967,-3.4799,-3.4227,-3.4859,-3.5257,-3.5418,-3.5475,-3.56,-3.5775,-3.5775,-3.5674,-3.5499,-3.5422,-3.5321,-3.5039,-3.3622,-3.3222,-3.3794,-3.2396,-3.1328,-3.0692,-3.0676,-3.068,-3.0703,-3.071,-3.0694,-3.0694,-3.0694,-3.0694,-3.0694,-3.0694,-3.0694,-3.0694,-3.0694,-3.0205,-2.9152,-2.8861,-2.8165,-2.6983,-2.7469,0.0,0.0,0.0,0.0,0.0,0.0,0.0,0.0,0.0,-2.5611,-2.7334,0.0,-2.7036,0.0,-2.7099,-2.7024,-2.7837,-2.7541,0.0,0.0,-2.9408,-3.0001,-2.9543,-3.0966,-3.134,-2.9668,-3.0019,-2.9886,-2.864,-2.8486,-2.8475,-2.8424,-2.9518,-3.0267,-3.0121,-2.9672,-2.911,-2.8548,-2.8447,-2.8358,-2.8371,-2.8249,-2.824,-2.8118,-2.8134,-2.81,-2.8101,-2.8074,-2.7907,-2.7539,-2.7902,-2.7803,-2.6849,-2.6874,-2.7056,-2.7426,-2.6822,-2.619,-2.6155,-2.6192,-2.6408,-4.0813,-4.0376,-4.0372,-4.0047,-3.9399,-3.8175,-3.739,-3.6962,-3.6508,-3.6124,-3.5797,-3.5791,-3.5527,-3.5138,-3.5585,-3.5538,-3.5141,-3.5584,-3.5788,-3.5741,-3.5793,-3.5797,-3.5797,-3.5797,-3.5579,-3.5221,-3.5178,-3.5174,-3.5087,-3.3867,-3.3666,-3.4462,-3.3212,-3.2341,-3.1875,-3.1859,-3.1658,-3.1239,-3.0881,-3.0694,-3.0694,-3.0694,-3.0694,-3.0694,-3.0694,-3.0694,-3.0694,-3.0321,-2.9894,-2.9428,-2.8939,-2.8298,-2.7505,-2.753,-2.7514,0.0,0.0,0.0,0.0,0.0,0.0,0.0,0.0,0.0,0.0,0.0,-2.7547,0.0,-2.7224,-2.7037,-2.787,-2.7883,-2.8051,-2.8487,-2.9381,-2.9897,-2.98,-3.0304,-3.0296,-2.9333,-2.9239,-2.9094,-2.8511,-2.8439,-2.8464,-2.8489,-2.9283,-2.9679,-2.9206,-2.8757,-2.8334,-2.79,-2.7806,-2.7794,-2.7732,-2.7689,-2.7644,-2.7623,-2.7908,-2.8115,-2.8139,-2.8429,-2.8521,-2.8161,-2.837,-2.8361,-2.753,-2.731,-2.7312,-2.724,-2.6906,-2.6556,-2.6476,-2.6487,-2.6712,-4.1053,-4.0954,-4.1053,-4.1005,-4.0715,-3.9248,-3.8101,-3.7172,-3.7075,-3.6623,-3.5974,-3.5969,-3.5969,-3.595,-3.5989,-3.5911,-3.5795,-3.5795,-3.5795,-3.5795,-3.5795,-3.5795,-3.5795,-3.5795,-3.5398,-3.4686,-3.4664,-3.4664,-3.4628,-3.3849,-3.388,-3.4602,-3.3841,-3.3511,-3.3635,-3.3635,-3.3076,-3.1922,-3.1223,-3.0865,-3.0869,-3.0865,-3.0869,-3.0872,-3.0752,-3.0697,-3.0688,-2.9962,-2.9519,-2.9408,-2.9425,-2.9017,-2.8171,-2.7542,-2.7873,0.0,-2.8119,0.0,0.0,0.0,0.0,0.0,0.0,0.0,0.0,-2.814,-2.7965,-2.7709,-2.708,-2.6968,-2.7647,-2.8457,-2.9012,-2.9104,-2.9342,-2.9733,-3.0342,-2.9337,-2.8695,-2.9156,-2.8631,-2.8466,-2.8835,-2.8923,-2.8862,-2.8881,-2.8805,-2.8627,-2.8065,-2.7797,-2.7588,-2.752,-2.7593,-2.7601,-2.7737,-2.7745,-2.7695,-2.7771,-2.8186,-2.8745,-2.8643,-2.9195,-2.9479,-2.8796,-2.8643,-2.8423,-2.7581,-2.7459,-2.7503,-2.7514,-2.7506,-2.7444,-2.7397,-2.7372,-2.7636,-4.0741,-4.0133,-4.0798,-4.0671,-3.9967,-4.033,-3.9591,-3.8079,-3.743,-3.7053,-3.6853,-3.6856,-3.6848,-3.6848,-3.6848,-3.6479,-3.5814,-3.5795,-3.5795,-3.5795,-3.5795,-3.5795,-3.5795,-3.5795,-3.5713,-3.5557,-3.5542,-3.5562,-3.5538,-3.4688,-3.4734,-3.5596,-3.473,-3.466,-3.5363,0.0,0.0,0.0,-3.1833,-3.1736,-3.1755,-3.1755,-3.1766,-3.1741,-3.107,0.0,-3.0764,-3.0564,-3.0146,-2.9513,-2.949,0.0,0.0,0.0,0.0,0.0,0.0,0.0,0.0,0.0,0.0,0.0,-2.9599,-2.8983,-2.9094,-2.8462,-2.7446,-2.6145,-2.6412,-2.6489,-2.6044,-2.6706,-2.7471,-2.8211,-2.9439,-3.0342,-3.0515,-3.1339,-3.1391,-2.9487,-2.9684,-2.949,-2.8343,-2.7576,-2.7485,-2.8121,-2.7586,-2.7412,-2.7865,-2.7335,-2.6641,-2.6049,-2.6577,-2.7105,-2.771,-2.7744,-2.7726,-2.7746,-2.7797,-2.7969,-2.8046,-2.8116,-2.8224,-2.802,-2.8398,-2.8558,-2.7764,-2.7979,-2.8364,-2.8337,-2.835,-2.8363,-2.8347,-2.8286,-2.8486,-4.1504,0.0,-4.2031,-4.2106,0.0,-4.2137,-4.1589,-4.0253,-3.8517,-3.7328,-3.6531,-3.6938,-3.6864,-3.6491,-3.691,-3.6615,-3.5795,-3.5795,-3.5795,-3.5795,-3.5795,-3.5795,-3.5795,-3.5795,-3.5791,-3.5797,-3.5791,-3.5791,-3.5782,-3.5387,-3.5437,-3.5882,-3.5415,-3.5425,-3.5878,-3.5463,-3.439,-3.2661,-3.1783,-3.1349,-3.137,-3.1358,-3.1345,-3.1336,0.0,0.0,0.0,0.0,0.0,0.0,0.0,0.0,0.0,0.0,0.0,-3.0014,-3.0049,-3.0263,-3.0655,-3.0694,-3.0694,-3.0694,-2.9913,-2.9223,-2.8798,-2.7935,-2.7238,-2.6842,-2.6781,-2.6761,-2.6804,-2.7536,-2.8209,-2.87,-2.9799,-3.0549,-3.0588,-3.0898,-3.069,-2.9593,-2.9284,-2.9009,-2.8613,-2.8261,-2.815,-2.8497,-2.8269,-2.7954,-2.795,-2.7614,-2.7113,-2.6745,-2.6935,-2.7377,-2.7782,-2.7852,-2.7811,-2.7819,-2.8165,-2.8414,-2.8434,-2.8768,-2.9038,-2.9058,-2.9321,-2.9363,-2.9037,-2.9165,-2.9391,-2.9391,-2.9372,-2.9333,-2.9344,-2.9236,-2.9217,-4.2324,-4.2285,-4.3281,-4.3594,-4.3476,-4.3633,-4.3125,-4.2012,0.0,0.0,0.0,-3.6885,-3.6708,-3.6105,-3.6791,-3.6662,-3.5854,-3.5815,-3.5826,-3.5795,-3.5795,-3.5795,-3.5795,-3.5795,-3.5791,-3.5821,-3.5822,-3.583,-3.5822,-3.5878,-3.5901,-3.593,-3.5908,-3.5916,-3.586,-3.5047,-3.4257,-3.3526,-3.1974,-3.1155,-3.117,-3.1018,-3.0925,-3.0928,-3.0837,-3.0801,-3.0791,-3.0113,-3.0067,-3.0752,-3.0147,-3.0037,-3.0628,-3.0095,-3.0014,-3.0603,-3.003,-2.9952,-3.0655,-3.0694,-3.0632,-3.048,-2.9972,-2.9266,-2.8394,-2.7542,-2.7318,-2.8039,-2.7454,-2.7334,-2.8039,-2.8888,-2.9389,-2.9408,-3.0106,-3.0602,-3.0563,-2.9993,-2.9646,-2.9455,-2.9007,-2.8718,-2.9361,-2.9322,-2.9389,-2.9462,-2.93,-2.9194,-2.8648,-2.8251,-2.7982,-2.8107,-2.8144,-2.8203,-2.841,-2.8497,-2.8367,-2.8512,-2.9013,-2.9409,-2.952,-2.9981,-3.0359,-3.026,-3.0355,-3.0248,-3.0222,-3.0144,-3.0232,-3.0218,-3.015,-3.0125,-3.0076,-2.9956,-2.9746,-4.2031,-4.1504,-4.3047,-4.3262,-4.2637,-4.3379,-4.2812,-4.123,-3.9328,-3.8349,-3.8103,-3.7454,-3.7121,-3.7004,-3.714,-3.6713,-3.5915,-3.5895,-3.5849,0.0,-3.5795,-3.5795,-3.5795,-3.5795,-3.5834,-3.5887,-3.5889,-3.5888,-3.5892,-3.589,-3.5927,-3.5978,-3.5929,-3.5927,-3.5917,-3.5112,-3.4641,-3.448,-3.346,-3.2941,-3.2915,-3.2204,-3.1805,-3.1787,-3.1101,-3.0752,-3.0786,-3.0665,-3.0696,-3.0878,-3.0779,-3.0732,-3.0768,-3.0652,-3.0638,-3.0698,-3.0584,-3.0554,-3.0694,-3.0694,-3.0383,-2.97,-3.015,-3.0143,-2.9271,-2.841,-2.7976,-2.8101,-2.802,-2.7961,-2.8136,-2.8927,-2.9451,-2.947,-3.0125,-3.0606,-3.0606,-3.0485,-3.0369,-3.0346,-3.0341,-3.0182,-3.0232,-2.9814,-2.9698,-3.0128,-2.9842,-2.9586,-2.9846,-2.9036,-2.8481,-2.8924,-2.9076,-2.9347,-2.9777,-3.011,-2.9994,-3.0143,-3.0148,-3.0226,-3.0206,-3.0346,-3.0471,-3.0495,-3.0436,-3.0396,-3.0364,-3.0317,-3.0286,-3.0247,-3.0214,-3.018,-3.0123,-3.0053,-2.9737,-4.3613,-4.3418,-4.459,-4.4883,-4.4531,-4.4941,-4.414,-4.248,-4.119,-3.9544,-3.7927,-3.7874,-3.7377,-3.6577,-3.698,-3.6716,-3.5883,-3.5883,-3.5892,-3.5852,-3.5852,-3.5852,-3.5849,-3.5872,-3.5858,-3.5894,-3.5899,-3.5887,-3.5899,-3.5955,-3.5985,-3.6012,-3.5956,-3.5978,-3.598,-3.5615,-3.54,-3.5373,-3.4051,-3.3329,-3.3274,-3.2448,-3.202,-3.1984,-3.1193,-3.0762,-3.0803,-3.0834,-3.0858,-3.0879,-3.0918,-3.0876,-3.0805,-3.0796,-3.0799,-3.0762,-3.0756,-3.0745,-3.0745,-3.072,-3.0526,-3.015,-3.048,-3.0535,-3.0139,-2.932,-2.9006,-2.9426,-2.9096,-2.8996,-2.9446,-2.9873,-3.0102,-3.0121,-3.0451,-3.0642,-3.0642,-3.0653,-3.0665,-3.0661,-3.0633,-3.0606,-3.0602,-3.0257,-3.0141,-3.0528,-3.025,-3.0285,-3.0637,-3.0067,-2.9606,-2.9982,-3.0027,-3.0146,-3.0518,-3.0567,-3.0539,-3.0558,-3.0558,-3.0558,-3.0558,-3.0549,-3.0549,-3.0554,-3.0535,-3.051,-3.0505,-3.0463,-3.0394,-3.0365,-3.0299,-3.0247,-3.02,-2.982,-2.9368,-4.4883,-4.4805,-4.5859,-4.6191,-4.5996,-4.5801,-4.4844,-4.3358,-4.248,-4.0527,-3.8141,-3.8149,-3.7477,-3.6345,-3.6728,-3.6567,-3.5978,-3.5937,-3.5914,-3.5888,-3.5888,-3.5888,-3.5888,-3.5888,-3.591,-3.5914,-3.5917,-3.5919,-3.5926,-3.5957,-3.6021,-3.6002,-3.601,-3.6012,-3.6012,-3.6011,-3.6011,-3.593,-3.4668,-3.3877,-3.3596,-3.2739,-3.2213,-3.1979,-3.142,-3.1074,-3.1084,-3.0955,-3.0996,-3.1172,-3.0996,-3.0858,-3.0793,-3.0791,-3.0784,-3.0783,-3.0802,-3.0786,-3.0799,-3.0725,-3.0695,-3.0704,-3.0704,-3.0704,-3.0639,-3.0079,-2.9959,-3.0499,-3.0049,-2.9972,-3.0477,-3.0655,-3.0694,-3.0694,-3.0694,-3.069,-3.071,-3.0699,-3.0707,-3.0707,-3.0649,-3.0622,-3.0622,-3.0622,-3.0603,-3.0607,-3.0677,-3.0695,-3.071,-3.0694,-3.0694,-3.0687,-3.0638,-3.0599,-3.0696,-3.0645,-3.0629,-3.0614,-3.0633,-3.0629,-3.061,-3.061,-3.0629,-3.0606,-3.0613,-3.0595,-3.0621,-3.0559,-3.053,-3.0495,-3.0431,-3.038,-3.0311,-2.9793,-2.9336,-4.457,-4.4121,-4.5644,-4.584,-4.5098,-4.4355,-4.3496,-4.2519,-4.168,-4.0723,-3.9551,-3.8086,-3.7363,-3.7089,-3.6445,-3.611,-3.6002,-3.6002,-3.5973,-3.5912,-3.5888,-3.5888,-3.589,-3.589,-3.5937,-3.597,-3.5999,-3.5987,-3.5992,-3.5995,-3.6016,-3.6015,-3.6015,-3.6015,-3.6014,-3.6014,-3.6012,-3.6005,-3.5832,-3.5377,-3.4575,-3.3652,-3.284,-3.2108,-3.204,-3.1996,-3.1963,-3.1288,-3.1269,-3.1934,-3.1328,-3.0878,-3.0817,-3.0793,-3.0786,-3.0792,-3.0803,-3.0786,-3.0804,-3.0737,-3.07,-3.0697,-3.0697,-3.071,-3.0695,-3.061,-3.0587,-3.0665,-3.0616,-3.0577,-3.0674,-3.0694,-3.0694,-3.0694,-3.0694,-3.0694,-3.0713,-3.071,-3.071,-3.071,-3.0683,-3.0687,-3.0683,-3.0683,-3.0683,-3.068,-3.0683,-3.071,-3.0697,-3.0694,-3.0694,-3.071,-3.0692,-3.068,-3.07,-3.07,-3.0696,-3.0677,-3.0677,-3.0677,-3.0677,-3.0641,-3.061,-3.0673,-3.0622,-3.0633,-3.0657,-3.0649,-3.06,-3.0578,-3.055,-3.0525,-3.0417,-3.0183,-3.0079,-4.5526,-4.5312,-4.5996,-4.5801,-4.5,-4.4609,-4.3672,-4.2383,-4.2051,-4.1426,-4.0508,-3.8847,-3.7793,-3.7285,-3.6914,-3.6484,-3.6015,-3.6014,-3.5973,-3.5968,-3.5968,-3.5948,-3.5968,-3.5969,-3.597,-3.6011,-3.6013,-3.6016,-3.6015,-3.6016,-3.6016,-3.6016,-3.6016,-3.6016,-3.6015,-3.6015,-3.6015,-3.6014,-3.6013,-3.5817,-3.5421,-3.4605,-3.397,-3.364,-3.3145,-3.2862,-3.2848,-3.2539,-3.2344,-3.2207,-3.1836,-3.1406,-3.0878,-3.0858,-3.0857,-3.0874,-3.0829,-3.0794,-3.0798,-3.0765,-3.073,-3.0706,-3.0703,-3.0697,-3.0694,-3.0697,-3.0697,-3.0704,-3.0691,-3.0701,-3.0694,-3.0694,-3.0694,-3.0694,-3.0694,-3.0694,-3.0694,-3.0694,-3.0694,-3.0694,-3.0694,-3.0694,-3.0694,-3.0694,-3.0697,-3.0701,-3.0701,-3.0704,-3.0698,-3.0707,-3.0697,-3.0701,-3.071,-3.0699,-3.0699,-3.0699,-3.0699,-3.0699,-3.0699,-3.0699,-3.0699,-3.0676,-3.0668,-3.0695,-3.0668,-3.0661,-3.0696,-3.0692,-3.0657,-3.0604,-3.055,-3.051,-3.0419,-3.0343,-3.026,-4.624,-4.6267,-4.6289,-4.5664,-4.4668,-4.4648,-4.3652,-4.2168,-4.207,-4.1621,-4.0762,-3.9746,-3.869,-3.7714,-3.7422,-3.6933,-3.6406,-3.6348,-3.6211,-3.6035,-3.6016,-3.6016,-3.6016,-3.6016,-3.6016,-3.6016,-3.6016,-3.6016,-3.6016,-3.6016,-3.6016,-3.6016,-3.6016,-3.6016,-3.6016,-3.6016,-3.6016,-3.6015,-3.6015,-3.6015,-3.5916,-3.5385,-3.4951,-3.4676,-3.4093,-3.3746,-3.3749,-3.3535,-3.3144,-3.2559,-3.2324,-3.1797,-3.0976,-3.0918,-3.0918,-3.0898,-3.0838,-3.079,-3.0785,-3.0798,-3.0765,-3.074,-3.0718,-3.0735,-3.0728,-3.0725,-3.0739,-3.0728,-3.0739,-3.0707,-3.0711,-3.0707,-3.0711,-3.0714,-3.0711,-3.0707,-3.0737,-3.0711,-3.0707,-3.0707,-3.072,-3.0724,-3.0727,-3.073,-3.0733,-3.073,-3.0746,-3.0701,-3.0716,-3.0727,-3.072,-3.0701,-3.0695,-3.0704,-3.0697,-3.0697,-3.0697,-3.0697,-3.0697,-3.0697,-3.0697,-3.0697,-3.0694,-3.0706,-3.071,-3.0671,-3.0621,-3.063,-3.0389,-3.03,-3.0238,-3.0298,-3.0451,-3.0389,-3.0232,-4.6204,-4.6209,-4.6264,-4.5331,-4.3769,-4.3789,-4.2812,-4.125,-4.125,-4.0762,-4.0137,-4.0547,-4.0058,-3.8475,-3.7655,-3.7265,-3.7226,-3.7109,-3.6699,-3.6055,-3.6016,-3.6016,-3.6016,-3.6016,-3.6016,-3.6016,-3.6016,-3.6016,-3.6016,-3.6016,-3.6016,-3.6016,-3.6016,-3.6016,-3.6016,-3.6016,-3.6016,-3.6015,-3.6015,-3.6015,-3.6014,-3.5957,-3.5507,-3.4842,-3.4666,-3.4648,-3.457,-3.3867,-3.3398,-3.3359,-3.2656,-3.1855,-3.1055,-3.0918,-3.0918,-3.0918,-3.0838,-3.0797,-3.0794,-3.0786,-3.0798,-3.0796,-3.0792,-3.0791,-3.0774,-3.0773,-3.0782,-3.0789,-3.0796,-3.075,-3.0709,-3.0722,-3.0725,-3.0776,-3.0728,-3.0728,-3.0781,-3.0728,-3.0703,-3.0722,-3.0759,-3.0772,-3.0791,-3.0798,-3.0782,-3.0769,-3.0789,-3.0769,-3.0737,-3.0756,-3.0756,-3.0728,-3.07,-3.071,-3.0704,-3.0707,-3.0691,-3.0695,-3.0695,-3.0695,-3.0707,-3.0704,-3.0697,-3.0694,-3.0697,-3.0655,-3.0535,-3.0256,-2.9837,-2.9683,-2.9687,-2.9801,-3.0419,-3.0492,-3.0355,-4.617,-4.6202,-4.6231,-4.5266,-4.3768,-4.371,-4.2441,-4.0449,-4.0371,-3.9883,-3.9101,-3.8847,-3.8652,-3.8554,-3.7694,-3.7284,-3.7245,-3.6738,-3.6309,-3.6016,-3.6016,-3.6016,-3.6016,-3.6016,-3.6016,-3.6016,-3.6016,-3.6016,-3.6016,-3.6016,-3.6015,-3.6015,-3.6015,-3.6015,-3.6015,-3.6016,-3.6016,-3.6015,-3.6016,-3.6016,-3.6015,-3.6016,-3.584,-3.5566,-3.5527,-3.5527,-3.5527,-3.5215,-3.4805,-3.4258,-3.3437,-3.2598,-3.1797,-3.1211,-3.0918,-3.0898,-3.0879,-3.0839,-3.0817,-3.0794,-3.0789,-3.0801,-3.08,-3.08,-3.0795,-3.0794,-3.0789,-3.0803,-3.0798,-3.0774,-3.0765,-3.0765,-3.0769,-3.0791,-3.0791,-3.0772,-3.0796,-3.0779,-3.0762,-3.0762,-3.0784,-3.0786,-3.08,-3.0789,-3.0801,-3.0789,-3.0784,-3.0786,-3.0772,-3.0786,-3.0779,-3.0777,-3.0769,-3.0762,-3.075,-3.0725,-3.071,-3.071,-3.071,-3.0694,-3.071,-3.0707,-3.0704,-3.0698,-3.0695,-3.0532,-3.0354,-2.98,-2.9421,-2.9733,-2.9679,-2.94,-3.0447,-3.035,-3.0255,-4.5722,-4.5777,-4.5785,-4.5135,-4.4114,-4.3805,-4.2576,-4.0722,-4.0136,-3.9414,-3.8594,-3.7968,-3.7929,-3.8066,-3.7558,-3.7284,-3.7245,-3.668,-3.6269,-3.6015,-3.6016,-3.6015,-3.6015,-3.6015,-3.6015,-3.6016,-3.6016,-3.6016,-3.6016,-3.6016,-3.6016,-3.6014,-3.6015,-3.6015,-3.6014,-3.6014,-3.6015,-3.6015,-3.6015,-3.6015,-3.6015,-3.6015,-3.6015,-3.6014,-3.6014,-3.6015,-3.6015,-3.6015,-3.5605,-3.4726,-3.3867,-3.289,-3.1855,-3.1211,-3.0918,-3.0918,-3.0918,-3.0879,-3.0838,-3.0838,-3.0817,-3.0832,-3.0832,-3.0832,-3.0829,-3.0809,-3.0788,-3.0784,-3.0801,-3.0799,-3.0815,-3.0824,-3.0812,-3.0804,-3.08,-3.0802,-3.0784,-3.079,-3.0799,-3.0785,-3.0799,-3.0798,-3.082,-3.0833,-3.081,-3.0796,-3.0831,-3.0837,-3.0801,-3.0799,-3.079,-3.0794,-3.0786,-3.0786,-3.079,-3.0761,-3.0745,-3.0743,-3.0742,-3.072,-3.0717,-3.0714,-3.0709,-3.0703,-3.0597,-3.0374,-2.9975,-2.9418,-2.9463,-2.9818,-2.9116,-2.8472,-2.9342,-3.0089,-2.9991,-4.4908,-4.4977,-4.4929,-4.4883,-4.4507,-4.3952,-4.3175,-4.1869,-4.0524,-3.9412,-3.865,-3.8496,-3.7968,-3.748,-3.7226,-3.7226,-3.7147,-3.705,-3.666,-3.6054,-3.6015,-3.6015,-3.6012,-3.6013,-3.6014,-3.6014,-3.6054,-3.6035,-3.6016,-3.6094,-3.6113,-3.6034,-3.6014,-3.6013,-3.6011,-3.6011,-3.6011,-3.6012,-3.6013,-3.6013,-3.6011,-3.6013,-3.6013,-3.6011,-3.6011,-3.6011,-3.6011,-3.6011,-3.564,-3.4819,-3.396,-3.2671,-3.1383,-3.0953,-3.0915,-3.0916,-3.0916,-3.0898,-3.0898,-3.0898,-3.0898,-3.0898,-3.0898,-3.0898,-3.0897,-3.0838,-3.0798,-3.0814,-3.0812,-3.079,-3.0807,-3.085,-3.0849,-3.0816,-3.0812,-3.0795,-3.0799,-3.08,-3.0785,-3.0793,-3.079,-3.0811,-3.0872,-3.0866,-3.086,-3.0841,-3.0862,-3.0864,-3.0824,-3.0786,-3.0787,-3.0784,-3.0799,-3.0799,-3.08,-3.08,-3.0794,-3.0785,-3.0784,-3.0769,-3.0767,-3.0765,-3.0738,-3.073,-3.0737,-3.0511,-2.9823,-2.9266,-2.8774,-2.8803,-2.8026,-2.7932,-2.8909,-2.9729,-2.9699,-4.5321,-4.4939,-4.548,-4.4704,-4.3361,-4.3542,-4.2597,-4.0735,-4.0073,-3.9409,-3.8609,-3.7965,-3.7555,-3.7204,-3.6696,-3.6423,-3.6403,-3.6404,-3.6247,-3.6031,-3.6013,-3.6032,-3.6011,-3.6011,-3.6012,-3.611,-3.6637,-3.656,-3.6209,-3.6599,-3.6636,-3.6127,-3.6031,-3.601,-3.6046,-3.6009,-3.601,-3.6011,-3.6011,-3.6011,-3.6011,-3.6011,-3.6011,-3.6007,-3.6007,-3.6003,-3.6013,-3.6005,-3.5873,-3.558,-3.476,-3.351,-3.2026,-3.1187,-3.0933,-3.0914,-3.0915,-3.0915,-3.0896,-3.0916,-3.0897,-3.0916,-3.0915,-3.0916,-3.0897,-3.0878,-3.0878,-3.0879,-3.0879,-3.0859,-3.0859,-3.0839,-3.0838,-3.0846,-3.0867,-3.087,-3.0871,-3.0853,-3.0875,-3.0876,-3.0814,-3.0813,-3.0853,-3.087,-3.0849,-3.0874,-3.0894,-3.0876,-3.0818,-3.0799,-3.08,-3.0799,-3.0798,-3.0797,-3.0818,-3.0818,-3.0816,-3.0811,-3.0819,-3.0803,-3.0798,-3.0792,-3.0765,-3.0774,-3.0762,-3.0431,-2.9741,-2.9198,-2.8744,-2.8314,-2.8006,-2.8398,-2.9139,-2.923,-2.9,-4.523,-4.4841,-4.5038,-4.4476,-4.3265,-4.3292,-4.2319,-4.0818,-4.0091,-3.9525,-3.8944,-3.8097,-3.7723,-3.753,-3.6811,-3.6422,-3.6362,-3.6127,-3.5953,-3.6035,-3.6379,-3.6321,-3.6144,-3.6379,-3.6476,-3.6653,-3.7356,-3.7318,-3.6576,-3.7298,-3.7355,-3.663,-3.6476,-3.6514,-3.6431,-3.6159,-3.6005,-3.6005,-3.6007,-3.6008,-3.6006,-3.6008,-3.6006,-3.6021,-3.6019,-3.6014,-3.6002,-3.6016,-3.6022,-3.5785,-3.4887,-3.3539,-3.2191,-3.1333,-3.0866,-3.0868,-3.085,-3.087,-3.0872,-3.0853,-3.0874,-3.0894,-3.0913,-3.0913,-3.0913,-3.0913,-3.0913,-3.0914,-3.0915,-3.0916,-3.0897,-3.0858,-3.0859,-3.0916,-3.0897,-3.0917,-3.0918,-3.0918,-3.0918,-3.0898,-3.0878,-3.0858,-3.0857,-3.0837,-3.0835,-3.0878,-3.0898,-3.0879,-3.0859,-3.0859,-3.0839,-3.08,-3.08,-3.0819,-3.0837,-3.0838,-3.082,-3.084,-3.0837,-3.0811,-3.0785,-3.0798,-3.0791,-3.078,-3.0788,-3.0401,-2.9776,-2.9338,-2.8899,-2.849,-2.816,-2.8121,-2.8376,-2.8085,-2.7921,-4.463,-4.454,-4.3849,-4.3867,-4.4059,-4.2905,-4.2236,-4.1905,-4.0554,-3.9859,-3.9658,-3.8898,-3.8491,-3.8296,-3.7592,-3.7203,-3.7033,-3.6398,-3.6114,-3.6287,-3.6746,-3.6876,-3.6562,-3.68,-3.7037,-3.7487,-3.8155,-3.8039,-3.7237,-3.8019,-3.8135,-3.7115,-3.6958,-3.7152,-3.6855,-3.6364,-3.6013,-3.6014,-3.6021,-3.6019,-3.6014,-3.6019,-3.6021,-3.6013,-3.6013,-3.6009,-3.6019,-3.5997,-3.5995,-3.5793,-3.4412,-3.3145,-3.2223,-3.1324,-3.0825,-3.0813,-3.0792,-3.0799,-3.0806,-3.0807,-3.0828,-3.089,-3.0888,-3.0889,-3.089,-3.0888,-3.0887,-3.089,-3.0892,-3.0893,-3.0875,-3.0874,-3.0875,-3.0876,-3.0897,-3.0916,-3.0915,-3.0915,-3.0915,-3.0915,-3.0896,-3.0877,-3.0878,-3.084,-3.0839,-3.0858,-3.0896,-3.0875,-3.0873,-3.0852,-3.0852,-3.0832,-3.079,-3.0809,-3.0825,-3.0826,-3.081,-3.0813,-3.0838,-3.082,-3.0818,-3.0814,-3.0807,-3.0799,-3.0732,-3.0329,-2.9981,-2.9589,-2.9338,-2.9121,-2.8593,-2.7868,-2.7656,-2.7775,-2.779,-4.3386,-4.2876,-4.3255,-4.2854,-4.2077,-4.2052,-4.1848,-4.1294,-4.082,-4.0524,-4.0415,-3.9726,-3.9346,-3.9275,-3.8454,-3.8045,-3.7828,-3.715,-3.6806,-3.6869,-3.7019,-3.7524,-3.7512,-3.6815,-3.705,-3.8067,-3.8401,-3.8147,-3.7424,-3.8186,-3.7834,-3.6387,-3.6483,-3.6424,-3.6265,-3.6148,-3.6031,-3.6012,-3.6013,-3.6014,-3.6013,-3.6013,-3.6014,-3.6012,-3.5991,-3.5985,-3.599,-3.5953,-3.5953,-3.5867,-3.433,-3.3335,-3.2923,-3.1636,-3.0798,-3.0801,-3.0803,-3.0785,-3.0788,-3.0789,-3.081,-3.0831,-3.0833,-3.0828,-3.081,-3.081,-3.081,-3.0831,-3.0831,-3.0813,-3.0815,-3.0815,-3.0834,-3.0836,-3.0868,-3.0914,-3.0913,-3.0914,-3.0914,-3.0916,-3.0916,-3.0876,-3.0836,-3.0817,-3.0815,-3.0826,-3.0823,-3.0822,-3.0839,-3.0837,-3.0817,-3.0812,-3.0789,-3.0789,-3.0788,-3.0788,-3.0789,-3.0789,-3.0819,-3.0827,-3.0837,-3.0859,-3.0837,-3.081,-3.0807,-3.0506,-3.0278,-2.9989,-2.9842,-2.9713,-2.8931,-2.8227,-2.8483,-2.8641,-2.8515,-4.3106,-4.2654,-4.279,-4.2302,-4.1461,-4.1558,-4.1335,-4.0954,-4.0858,-4.0854,-4.0746,-4.0393,-4.017,-4.0068,-3.9262,-3.8854,-3.8699,-3.7616,-3.7078,-3.7109,-3.7108,-3.7428,-3.7611,-3.6884,-3.7087,-3.7965,-3.8454,-3.8084,-3.7575,-3.816,-3.777,-3.6872,-3.6558,-3.6539,-3.6597,-3.6148,-3.6012,-3.601,-3.6009,-3.6007,-3.6007,-3.6002,-3.6022,-3.6001,-3.596,-3.5851,-3.5463,-3.5037,-3.5112,-3.5381,-3.4393,-3.3382,-3.3243,-3.1759,-3.0823,-3.0784,-3.0784,-3.0786,-3.079,-3.0792,-3.0794,-3.0798,-3.0799,-3.0799,-3.0799,-3.0799,-3.0799,-3.0801,-3.0799,-3.0799,-3.0799,-3.0799,-3.0799,-3.0803,-3.0836,-3.0864,-3.0845,-3.0863,-3.0864,-3.0847,-3.0848,-3.0847,-3.0786,-3.0786,-3.08,-3.0792,-3.0789,-3.0806,-3.0801,-3.0798,-3.0796,-3.0792,-3.079,-3.0792,-3.0794,-3.0794,-3.0796,-3.0796,-3.0798,-3.0807,-3.0841,-3.0854,-3.0839,-3.08,-3.0798,-3.0735,-3.0533,-3.0384,-3.0349,-2.9991,-2.9188,-2.8913,-2.9149,-2.9203,-2.9117,-4.3117,-4.3063,-4.2274,-4.197,-4.1776,-4.115,-4.0881,-4.0873,-4.0821,-4.0809,-4.0773,-4.0794,-4.0692,-4.0739,-3.9973,-3.958,-3.9387,-3.8119,-3.7447,-3.7327,-3.7292,-3.7404,-3.7275,-3.7457,-3.7723,-3.8174,-3.8528,-3.8216,-3.7921,-3.8294,-3.7983,-3.7142,-3.6967,-3.7085,-3.6773,-3.6305,-3.6051,-3.6009,-3.6004,-3.602,-3.5997,-3.599,-3.5966,-3.5964,-3.5953,-3.5493,-3.4759,-3.4141,-3.4216,-3.5552,-3.4116,-3.3264,-3.2991,-3.1622,-3.0899,-3.0784,-3.0786,-3.0789,-3.0798,-3.08,-3.0784,-3.079,-3.0792,-3.0794,-3.0792,-3.0792,-3.0792,-3.079,-3.0796,-3.0792,-3.0792,-3.0794,-3.0792,-3.0792,-3.0796,-3.0796,-3.0796,-3.0798,-3.0799,-3.0799,-3.0801,-3.0799,-3.0798,-3.0798,-3.0796,-3.0794,-3.0792,-3.079,-3.0786,-3.0786,-3.0784,-3.08,-3.0798,-3.0798,-3.0798,-3.0798,-3.0784,-3.0786,-3.0786,-3.0794,-3.0803,-3.0819,-3.0806,-3.0794,-3.08,-3.0801,-3.074,-3.0695,-3.0683,-3.0516,-2.991,-2.9731,-2.967,-2.9567,-2.9462,-4.1318,-4.1261,-4.1132,-4.1086,-4.1047,-4.0899,-4.0808,-4.0839,-4.0815,-4.0796,-4.0802,-4.0803,-4.0797,-4.0771,-4.0532,-4.0164,-3.9551,-3.8932,-3.8661,-3.7981,-3.8076,-3.7669,-3.744,-3.7821,-3.8914,-3.9503,-3.9601,-3.9015,-3.8432,-3.8024,-3.7734,-3.649,-3.6412,-3.6298,-3.6264,-3.6184,-3.6009,-3.6002,-3.5999,-3.5994,-3.5986,-3.5955,-3.589,-3.5848,-3.5791,-3.5391,-3.4778,-3.4416,-3.4195,-3.3718,-3.2995,-3.2382,-3.2226,-3.1405,-3.0838,-3.0799,-3.0799,-3.0801,-3.0784,-3.0784,-3.0786,-3.0789,-3.0791,-3.0789,-3.0789,-3.0789,-3.0789,-3.0789,-3.0789,-3.0791,-3.0791,-3.0789,-3.0791,-3.0791,-3.0789,-3.0791,-3.0793,-3.0786,-3.0796,-3.0798,-3.0796,-3.0794,-3.0786,-3.0784,-3.08,-3.0793,-3.0789,-3.0789,-3.0789,-3.0791,-3.0786,-3.0782,-3.0779,-3.076,-3.0762,-3.076,-3.0762,-3.0769,-3.0769,-3.0793,-3.0786,-3.0796,-3.0789,-3.0799,-3.0789,-3.0796,-3.08,-3.082,-3.0777,-3.0693,-3.0627,-3.0429,-3.0211,-3.0028,-2.9692,-4.0746,-4.072,-4.0739,-4.0778,-4.0797,-4.0797,-4.0797,-4.0797,-4.0797,-4.0784,-4.0759,-4.0784,-4.0784,-4.0752,-4.0745,-4.0332,-3.9559,-3.9036,-3.8644,-3.8241,-3.8273,-3.8083,-3.7947,-3.8335,-3.9153,-3.8848,-3.8154,-3.7666,-3.7396,-3.7325,-3.6822,-3.6057,-3.5968,-3.6072,-3.5999,-3.5978,-3.5953,-3.5945,-3.5955,-3.5946,-3.596,-3.5908,-3.5602,-3.5229,-3.4899,-3.4286,-3.3427,-3.2895,-3.2526,-3.2107,-3.1713,-3.1663,-3.1863,-3.1261,-3.0835,-3.0767,-3.0791,-3.0789,-3.0767,-3.0764,-3.0742,-3.0764,-3.0745,-3.0745,-3.0745,-3.0742,-3.0762,-3.0745,-3.0745,-3.0742,-3.0764,-3.0764,-3.0745,-3.0742,-3.0742,-3.0762,-3.0747,-3.0784,-3.0798,-3.08,-3.0798,-3.0791,-3.0786,-3.0786,-3.0777,-3.0767,-3.0745,-3.0745,-3.0742,-3.0745,-3.0745,-3.0739,-3.0739,-3.0739,-3.0742,-3.0742,-3.0739,-3.0742,-3.0725,-3.0772,-3.0801,-3.0793,-3.0786,-3.0801,-3.0794,-3.0784,-3.0793,-3.0838,-3.084,-3.0761,-3.074,-3.0775,-3.0595,-3.0125,-2.9809,-4.0674,-4.068,-4.0687,-4.0733,-4.0778,-4.0778,-4.0875,-4.0984,-4.0971,-4.0907,-4.07,-4.0746,-4.0546,-4.0301,-4.0249,-3.9997,-3.9655,-3.8972,-3.8663,-3.9197,-3.9257,-3.8955,-3.8849,-3.9127,-3.8637,-3.633,-3.6901,-3.6826,-3.6473,-3.6138,-3.6372,-3.5977,-3.5953,-3.5984,-3.5984,-3.5936,-3.5912,-3.5907,-3.5908,-3.5911,-3.5905,-3.5869,-3.5482,-3.4722,-3.4206,-3.3444,-3.2683,-3.1983,-3.1287,-3.0879,-3.0769,-3.1116,-3.1394,-3.1243,-3.0764,-3.07,-3.0767,-3.0748,-3.0719,-3.0716,-3.0716,-3.0694,-3.07,-3.07,-3.07,-3.0703,-3.0706,-3.0706,-3.0706,-3.0706,-3.0703,-3.0706,-3.0706,-3.0703,-3.0703,-3.0703,-3.0706,-3.0753,-3.0762,-3.0772,-3.0772,-3.0767,-3.0762,-3.0776,-3.0748,-3.0719,-3.0716,-3.0697,-3.0694,-3.0694,-3.0716,-3.073,-3.0727,-3.0727,-3.0713,-3.0728,-3.0725,-3.0722,-3.0703,-3.0731,-3.0778,-3.0769,-3.0765,-3.078,-3.0796,-3.0788,-3.0798,-3.0808,-3.0814,-3.0797,-3.0741,-3.0683,-3.0448,-3.0116,-2.988,-4.066,-4.061,-4.0626,-4.0628,-4.0628,-4.0628,-4.1014,-4.1644,-4.1593,-4.1277,-4.0621,-4.0589,-3.9824,-3.8994,-3.8608,-3.9277,-3.9914,-3.9353,-3.9643,-4.0649,-4.0803,-4.0345,-3.946,-3.9917,-3.9104,-3.7851,-3.7838,-3.7914,-3.6972,-3.6888,-3.6281,-3.5955,-3.5749,-3.5756,-3.5836,-3.5914,-3.5638,-3.5566,-3.5668,-3.5733,-3.5739,-3.5783,-3.5407,-3.4621,-3.4255,-3.368,-3.3089,-3.2779,-3.2449,-3.1736,-3.1057,-3.0839,-3.0886,-3.0795,-3.071,-3.0701,-3.0717,-3.0717,-3.0685,-3.0701,-3.0701,-3.0704,-3.0688,-3.0695,-3.0698,-3.071,-3.0694,-3.0697,-3.0697,-3.07,-3.0703,-3.0691,-3.0697,-3.07,-3.0691,-3.0691,-3.0691,-3.0685,-3.0701,-3.071,-3.0713,-3.0716,-3.0727,-3.0717,-3.0711,-3.0685,-3.0685,-3.0681,-3.0681,-3.0685,-3.0688,-3.0697,-3.0706,-3.071,-3.0697,-3.0704,-3.0716,-3.071,-3.071,-3.0694,-3.0722,-3.0725,-3.072,-3.0757,-3.0793,-3.0786,-3.0799,-3.0791,-3.0798,-3.0784,-3.0694,-3.0582,-3.035,-3.0116,-2.998,-4.1048,-4.0607,-4.0591,-4.0593,-4.0588,-4.0588,-4.0819,-4.1205,-4.1224,-4.0728,-4.013,-3.9925,-3.9558,-3.878,-3.8247,-3.891,-3.9503,-3.8678,-3.9161,-4.0333,-4.0584,-4.0346,-3.9599,-4.0314,-3.9361,-3.8276,-3.838,-3.8035,-3.6459,-3.5865,-3.5877,-3.5643,-3.5026,-3.4711,-3.4961,-3.4669,-3.4643,-3.4648,-3.4987,-3.5228,-3.5282,-3.5519,-3.5292,-3.4723,-3.4351,-3.3795,-3.2807,-3.3063,-3.2473,-3.148,-3.1265,-3.1041,-3.0758,-3.0614,-3.0641,-3.0653,-3.068,-3.068,-3.0645,-3.0657,-3.0638,-3.0638,-3.0665,-3.0649,-3.0676,-3.0687,-3.0704,-3.0691,-3.0704,-3.0697,-3.0644,-3.066,-3.0649,-3.0599,-3.0599,-3.0603,-3.0599,-3.0611,-3.0614,-3.0607,-3.0618,-3.0637,-3.0633,-3.0645,-3.0645,-3.0645,-3.0645,-3.0642,-3.0657,-3.0642,-3.0645,-3.0638,-3.0641,-3.0645,-3.0653,-3.0656,-3.0681,-3.0685,-3.0688,-3.0691,-3.0698,-3.0682,-3.0716,-3.0737,-3.075,-3.0779,-3.0789,-3.0802,-3.0792,-3.0781,-3.0731,-3.0621,-3.0376,-3.0147,-3.0011,-4.1605,-4.0827,-4.0827,-4.0626,-4.0393,-4.0528,-4.0489,-4.0419,-4.0779,-4.0198,-3.9136,-3.9241,-3.9061,-3.8553,-3.8362,-3.8581,-3.9244,-3.8086,-3.8878,-3.9946,-4.0247,-3.9963,-3.9886,-3.9983,-3.9681,-3.8183,-3.7784,-3.7143,-3.5994,-3.5342,-3.5279,-3.5327,-3.4272,-3.398,-3.4598,-3.449,-3.3722,-3.3868,-3.427,-3.4672,-3.489,-3.5146,-3.5049,-3.427,-3.4168,-3.3383,-3.2153,-3.243,-3.2159,-3.1415,-3.1178,-3.1221,-3.0679,-3.0543,-3.0543,-3.0572,-3.0621,-3.0629,-3.0621,-3.0613,-3.0613,-3.0613,-3.0617,-3.0597,-3.0589,-3.0621,-3.0657,-3.0634,-3.0645,-3.0625,-3.0589,-3.0595,-3.0558,-3.0525,-3.0501,-3.0492,-3.0477,-3.0496,-3.0492,-3.051,-3.0537,-3.0546,-3.0557,-3.0585,-3.058,-3.0576,-3.0576,-3.0576,-3.0572,-3.058,-3.058,-3.058,-3.0572,-3.0576,-3.058,-3.057,-3.0618,-3.0657,-3.0661,-3.0665,-3.068,-3.0671,-3.0688,-3.0701,-3.0736,-3.0748,-3.0776,-3.0786,-3.076,-3.075,-3.0769,-3.0566,-3.0115,-3.0084,-3.0107,-4.2354,-4.1566,-4.1558,-4.0745,-3.9715,-4.0204,-4.0088,-3.9723,-4.0897,-4.0285,-3.831,-3.878,-3.801,-3.6894,-3.7641,-3.8503,-3.9211,-3.9558,-3.9944,-4.0812,-4.1101,-4.0824,-4.0504,-4.0511,-3.973,-3.8341,-3.7468,-3.656,-3.5753,-3.5451,-3.5504,-3.5485,-3.5248,-3.5355,-3.503,-3.4654,-3.5251,-3.5168,-3.5228,-3.5313,-3.5255,-3.4851,-3.4145,-3.3573,-3.3286,-3.2927,-3.2093,-3.2207,-3.1892,-3.1496,-3.0868,-3.0598,-3.0419,-3.0414,-3.0414,-3.0458,-3.0525,-3.0615,-3.0588,-3.0602,-3.0578,-3.0583,-3.0592,-3.0549,-3.0525,-3.0511,-3.0511,-3.0452,-3.0487,-3.0506,-3.0482,-3.0501,-3.052,-3.0486,-3.0446,-3.0427,-3.0422,-3.0384,-3.0398,-3.0406,-3.0414,-3.0446,-3.0462,-3.0491,-3.052,-3.0515,-3.051,-3.051,-3.0501,-3.0511,-3.0525,-3.0525,-3.0525,-3.053,-3.0535,-3.054,-3.0554,-3.0619,-3.0623,-3.0613,-3.061,-3.0626,-3.0649,-3.0668,-3.069,-3.0711,-3.0724,-3.0713,-3.0706,-3.0717,-3.0747,-3.0283,-2.9701,-2.9849,-3.0193,-4.2737,-4.1669,-4.1161,-4.06,-3.9996,-3.9861,-3.9877,-3.9912,-3.9681,-3.9065,-3.8084,-3.7796,-3.7161,-3.6488,-3.7086,-3.8063,-3.9066,-3.9297,-3.9617,-4.053,-4.0884,-4.0915,-4.0754,-4.0927,-4.0365,-3.8753,-3.7779,-3.6785,-3.5907,-3.5134,-3.501,-3.5375,-3.4681,-3.4253,-3.4851,-3.4314,-3.4045,-3.4077,-3.4456,-3.5014,-3.5271,-3.5123,-3.4719,-3.4283,-3.4225,-3.3493,-3.2686,-3.2904,-3.218,-3.1501,-3.0847,-3.0891,-3.0538,-3.0404,-3.0404,-3.039,-3.0442,-3.0474,-3.0488,-3.0534,-3.0534,-3.0493,-3.0499,-3.0463,-3.0428,-3.0392,-3.0373,-3.0345,-3.0373,-3.0361,-3.0339,-3.0321,-3.0322,-3.0336,-3.0354,-3.0336,-3.0304,-3.0292,-3.028,-3.0286,-3.0305,-3.0311,-3.0328,-3.0359,-3.0377,-3.04,-3.0414,-3.0408,-3.0411,-3.0439,-3.046,-3.05,-3.05,-3.0505,-3.0505,-3.0496,-3.0501,-3.054,-3.055,-3.054,-3.0539,-3.0552,-3.0576,-3.0613,-3.0618,-3.0642,-3.0664,-3.0675,-3.0697,-3.0703,-3.0703,-3.0242,-2.9816,-3.0094,-3.038,-4.2047,-4.0911,-4.0489,-4.0159,-3.9805,-3.9133,-3.8927,-3.8973,-3.8416,-3.7788,-3.7276,-3.6738,-3.6519,-3.6692,-3.6834,-3.7591,-3.8861,-3.8488,-3.8738,-3.94,-4.0035,-4.0477,-4.0446,-4.0758,-3.9984,-3.8842,-3.7406,-3.6476,-3.5583,-3.4957,-3.4946,-3.532,-3.4552,-3.4153,-3.4203,-3.4136,-3.3923,-3.3961,-3.4374,-3.4767,-3.5025,-3.5294,-3.5011,-3.4843,-3.4721,-3.4342,-3.3168,-3.3266,-3.2472,-3.1366,-3.1226,-3.1143,-3.0484,-3.0299,-3.0292,-3.0299,-3.0324,-3.033,-3.0349,-3.0379,-3.0421,-3.0398,-3.0362,-3.0343,-3.0336,-3.0299,-3.0254,-3.0235,-3.0228,-3.0203,-3.0177,-3.0176,-3.0195,-3.02,-3.018,-3.0178,-3.0183,-3.0159,-3.0173,-3.0192,-3.0178,-3.0164,-3.0199,-3.0194,-3.0221,-3.0273,-3.028,-3.0299,-3.0324,-3.0348,-3.0359,-3.0377,-3.0383,-3.0389,-3.0425,-3.0436,-3.0458,-3.0474,-3.046,-3.0476,-3.0472,-3.0467,-3.0496,-3.0516,-3.0554,-3.058,-3.0582,-3.0644,-3.0691,-3.0607,-3.0507,-3.0321,-3.0172,-3.0291,-3.0128,-3.9678,-3.8979,-3.9755,-3.9299,-3.8145,-3.7956,-3.711,-3.6531,-3.739,-3.699,-3.5974,-3.5731,-3.6212,-3.6635,-3.6942,-3.7404,-3.8257,-3.8892,-3.9219,-3.9585,-4.0073,-4.0373,-4.0162,-3.9365,-3.8451,-3.7793,-3.6815,-3.5906,-3.5288,-3.5151,-3.5178,-3.5276,-3.4885,-3.5085,-3.5067,-3.476,-3.4553,-3.4592,-3.4856,-3.4599,-3.4607,-3.4626,-3.4542,-3.3635,-3.3704,-3.3658,-3.2783,-3.292,-3.2519,-3.1293,-3.1257,-3.1073,-3.0326,-3.0185,-3.0159,-3.0171,-3.0199,-3.0199,-3.0192,-3.0254,-3.0318,-3.0292,-3.0246,-3.0225,-3.0206,-3.0145,-3.0116,-3.0128,-3.0097,-3.0097,-3.009,-3.009,-3.006,-3.0053,-3.0049,-3.0061,-3.0061,-3.0061,-3.0057,-3.0083,-3.0068,-3.0046,-3.003,-3.0034,-3.0101,-3.0159,-3.0213,-3.0232,-3.0213,-3.0227,-3.0234,-3.0241,-3.0247,-3.0279,-3.0324,-3.0349,-3.0367,-3.0365,-3.0352,-3.0369,-3.0392,-3.0403,-3.0403,-3.0436,-3.0476,-3.0487,-3.0525,-3.0591,-3.0595,-3.0477,-3.027,-2.9904,-2.9476,-2.9274,-2.9016,-3.9309,-3.8671,-3.8437,-3.8067,-3.7612,-3.7051,-3.68,-3.6651,-3.6394,-3.6006,-3.5477,-3.601,-3.6716,-3.73,-3.7577,-3.8262,-3.9335,-3.92,-3.9546,-3.9969,-4.0361,-4.0204,-3.9654,-3.9012,-3.8278,-3.7221,-3.6286,-3.5691,-3.5256,-3.5201,-3.5234,-3.5281,-3.5254,-3.5246,-3.5226,-3.5174,-3.4956,-3.4735,-3.4879,-3.4786,-3.4184,-3.4176,-3.4312,-3.4363,-3.3715,-3.3772,-3.3372,-3.2877,-3.221,-3.1524,-3.0978,-3.0532,-3.0194,-3.0117,-3.0083,-3.0087,-3.0125,-3.0083,-3.0068,-3.0138,-3.0219,-3.0171,-3.0113,-3.0083,-3.0076,-3.0019,-2.998,-2.9964,-2.9975,-2.9972,-2.9905,-2.9916,-2.9907,-2.9907,-2.9916,-2.9943,-2.9951,-2.9959,-2.994,-2.9948,-2.9934,-2.9893,-2.9885,-2.9866,-2.9956,-3.0053,-3.011,-3.014,-3.0113,-3.0121,-3.0116,-3.0138,-3.0152,-3.0173,-3.0239,-3.0253,-3.026,-3.0267,-3.026,-3.0286,-3.0304,-3.0292,-3.0286,-3.0342,-3.0389,-3.0422,-3.0456,-3.0525,-3.0511,-3.0486,-2.9939,-2.9267,-2.8826,-2.8329,-2.8074,-3.8578,-3.8101,-3.7412,-3.7241,-3.7318,-3.6264,-3.6188,-3.6567,-3.5659,-3.5381,-3.5753,-3.6588,-3.7463,-3.8012,-3.7702,-3.8415,-3.9216,-3.9169,-3.9369,-3.9629,-3.9793,-3.9665,-3.9271,-3.8624,-3.7728,-3.6706,-3.6347,-3.5925,-3.5108,-3.5134,-3.5098,-3.5089,-3.5089,-3.5089,-3.5196,-3.5132,-3.4848,-3.4592,-3.4715,-3.4717,-3.4001,-3.3906,-3.4031,-3.4359,-3.3788,-3.3625,-3.3415,-3.3016,-3.217,-3.1466,-3.0875,-3.0438,-3.0194,-3.0046,-3.003,-3.0041,-3.0041,-3.0007,-3.0007,-3.003,-3.0068,-3.0007,-2.9975,-2.9951,-2.9916,-2.9899,-2.9874,-2.9876,-2.9868,-2.9842,-2.978,-2.9815,-2.9842,-2.9841,-2.9841,-2.9841,-2.9841,-2.9841,-2.9832,-2.9823,-2.9816,-2.9825,-2.9825,-2.9815,-2.9868,-2.9934,-2.9951,-2.9975,-2.9975,-2.9991,-3.0022,-3.0042,-3.006,-3.0109,-3.0157,-3.0159,-3.0187,-3.0194,-3.0188,-3.0227,-3.0234,-3.0207,-3.0214,-3.0286,-3.0329,-3.0361,-3.0377,-3.0414,-3.0487,-3.0537,-2.9775,-2.8896,-2.8006,-2.7547,-2.737,-3.7037,-3.6938,-3.6913,-3.7051,-3.7095,-3.5531,-3.5012,-3.542,-3.5287,-3.5579,-3.6307,-3.7109,-3.7985,-3.842,-3.7578,-3.8085,-3.8917,-3.8458,-3.8476,-3.9183,-3.9204,-3.9004,-3.8517,-3.789,-3.6996,-3.6368,-3.596,-3.5515,-3.4927,-3.487,-3.4841,-3.4851,-3.487,-3.4889,-3.5155,-3.5129,-3.501,-3.487,-3.4943,-3.4428,-3.3809,-3.3515,-3.3506,-3.3529,-3.2978,-3.2807,-3.3132,-3.2703,-3.1925,-3.1317,-3.0964,-3.0527,-3.0067,-2.9959,-2.9916,-2.991,-2.9901,-2.9893,-2.9893,-2.9893,-2.9885,-2.9841,-2.9859,-2.9832,-2.9806,-2.9798,-2.9798,-2.9798,-2.9808,-2.9808,-2.978,-2.978,-2.9771,-2.9763,-2.9763,-2.9763,-2.9773,-2.9773,-2.9764,-2.9764,-2.9782,-2.978,-2.978,-2.9799,-2.979,-2.9808,-2.9789,-2.9806,-2.9851,-2.9876,-2.9907,-2.994,-2.998,-2.9996,-3.0046,-3.0072,-3.0082,-3.0109,-3.0123,-3.0145,-3.0166,-3.0178,-3.0206,-3.0253,-3.0279,-3.0292,-3.0292,-3.0292,-3.0188,-2.9989,-2.9375,-2.853,-2.7543,-2.6776,-2.6618,-3.6211,-3.6222,-3.6222,-3.628,-3.6159,-3.5114,-3.4918,-3.5515,-3.6018,-3.6283,-3.6433,-3.7503,-3.8321,-3.841,-3.8354,-3.8382,-3.913,-3.8691,-3.8693,-3.9359,-3.8862,-3.8267,-3.7773,-3.7022,-3.611,-3.5475,-3.5171,-3.5177,-3.4773,-3.4693,-3.4713,-3.4743,-3.4701,-3.4771,-3.484,-3.4793,-3.4651,-3.4169,-3.4026,-3.3695,-3.2955,-3.2491,-3.2342,-3.2723,-3.2042,-3.1947,-3.2581,-3.1956,-3.1389,-3.0982,-3.0698,-3.0179,-2.9906,-2.9823,-2.9823,-2.9834,-2.9825,-2.9798,-2.9789,-2.978,-2.978,-2.9771,-2.978,-2.9771,-2.9789,-2.9789,-2.9771,-2.9754,-2.9736,-2.9727,-2.9719,-2.9729,-2.9729,-2.9729,-2.9729,-2.9719,-2.9719,-2.9719,-2.9738,-2.9719,-2.9729,-2.9738,-2.9738,-2.9701,-2.9692,-2.971,-2.9691,-2.9754,-2.9808,-2.9798,-2.9832,-2.9868,-2.9893,-2.9893,-2.9899,-2.9964,-2.9969,-2.9996,-3.0019,-3.0042,-3.0076,-3.0106,-3.0128,-3.0157,-3.0185,-3.0213,-3.0125,-2.9979,-2.9639,-2.9272,-2.8487,-2.7767,-2.6823,-2.6184,-2.5904,-3.5921,-3.6169,-3.5918,-3.5787,-3.5637,-3.4869,-3.4821,-3.5427,-3.6381,-3.6681,-3.6749,-3.8052,-3.8859,-3.8848,-3.8689,-3.8935,-3.9542,-3.8852,-3.8901,-3.946,-3.8414,-3.7769,-3.7112,-3.6276,-3.548,-3.4851,-3.4859,-3.4921,-3.4545,-3.4526,-3.4505,-3.4513,-3.4513,-3.4509,-3.4489,-3.4314,-3.4208,-3.3919,-3.3872,-3.36,-3.3025,-3.2496,-3.1959,-3.2042,-3.1609,-3.0923,-3.1261,-3.1063,-3.0537,-3.0349,-3.0049,-2.9673,-2.9719,-2.9747,-2.9728,-2.9728,-2.9746,-2.9737,-2.9709,-2.9709,-2.97,-2.9692,-2.9737,-2.9755,-2.9755,-2.9746,-2.9737,-2.9719,-2.9682,-2.9673,-2.9645,-2.9655,-2.9645,-2.9645,-2.9645,-2.9645,-2.9645,-2.9645,-2.9655,-2.9655,-2.9664,-2.9673,-2.9664,-2.9617,-2.9579,-2.9598,-2.9617,-2.9664,-2.9718,-2.9727,-2.9727,-2.9745,-2.9782,-2.9763,-2.9798,-2.9849,-2.9866,-2.9874,-2.9907,-2.994,-2.9964,-2.9988,-3.0022,-3.0046,-3.0068,-3.0018,-2.9879,-2.9646,-2.9078,-2.8249,-2.7271,-2.6573,-2.5962,-2.5858,-2.5789,-3.5988,-3.6547,-3.5888,-3.5557,-3.5472,-3.4761,-3.4457,-3.4598,-3.618,-3.6914,-3.7061,-3.844,-3.9014,-3.912,-3.857,-3.8614,-3.9089,-3.8527,-3.8795,-3.8757,-3.7791,-3.7234,-3.6587,-3.5807,-3.4969,-3.4698,-3.4686,-3.4677,-3.43,-3.4044,-3.4027,-3.4041,-3.3864,-3.3808,-3.3649,-3.3362,-3.3457,-3.362,-3.3202,-3.3064,-3.2811,-3.2274,-3.183,-3.1594,-3.0919,-3.0366,-3.0375,-3.0178,-2.9869,-2.9691,-2.9578,-2.955,-2.9578,-2.9598,-2.9598,-2.9607,-2.9664,-2.9655,-2.9636,-2.9636,-2.9608,-2.956,-2.9617,-2.9664,-2.9683,-2.9683,-2.9655,-2.9664,-2.9617,-2.9598,-2.9579,-2.956,-2.955,-2.955,-2.955,-2.954,-2.954,-2.955,-2.956,-2.9569,-2.9579,-2.9598,-2.956,-2.9531,-2.9378,-2.9433,-2.9443,-2.9454,-2.9513,-2.9598,-2.9589,-2.9617,-2.9626,-2.9654,-2.9682,-2.97,-2.9736,-2.9745,-2.9815,-2.9866,-2.9874,-2.9899,-2.9951,-2.9967,-2.9932,-2.9877,-2.9848,-2.9195,-2.8281,-2.7456,-2.7069,-2.6533,-2.629,-2.6352,-2.6255,-3.4838,-3.5042,-3.4801,-3.4665,-3.4586,-3.4345,-3.4245,-3.4603,-3.6583,-3.7327,-3.6845,-3.7843,-3.8329,-3.8287,-3.7541,-3.7757,-3.796,-3.812,-3.8101,-3.7785,-3.7173,-3.6503,-3.5789,-3.5058,-3.4402,-3.4278,-3.4334,-3.4401,-3.4025,-3.3654,-3.332,-3.3227,-3.2911,-3.2658,-3.2372,-3.1775,-3.2553,-3.287,-3.2353,-3.215,-3.1944,-3.1184,-3.0947,-3.0522,-3.024,-2.9802,-2.9715,-2.9622,-2.9417,-2.9407,-2.9378,-2.9378,-2.9373,-2.9384,-2.9412,-2.9453,-2.9472,-2.9472,-2.9472,-2.9472,-2.9453,-2.9423,-2.9453,-2.9521,-2.954,-2.956,-2.956,-2.9569,-2.955,-2.954,-2.9531,-2.9521,-2.9511,-2.9511,-2.9511,-2.9511,-2.9511,-2.9501,-2.9511,-2.9491,-2.9501,-2.9351,-2.9349,-2.9235,-2.9118,-2.9206,-2.9222,-2.9188,-2.9295,-2.9348,-2.9454,-2.9465,-2.9483,-2.9502,-2.9492,-2.9512,-2.9579,-2.9636,-2.9691,-2.9745,-2.9763,-2.9789,-2.9868,-2.9901,-2.9883,-2.9907,-2.9929,-2.9133,-2.8271,-2.8165,-2.7822,-2.7163,-2.6683,-2.6792,-2.6904,-3.4245,-3.4269,-3.4245,-3.4197,-3.4161,-3.4124,-3.4136,-3.4538,-3.6166,-3.663,-3.6333,-3.7071,-3.7424,-3.7368,-3.6991,-3.7002,-3.7352,-3.7365,-3.7384,-3.7193,-3.6501,-3.6016,-3.5243,-3.4525,-3.416,-3.4036,-3.4023,-3.4059,-3.3745,-3.3229,-3.2822,-3.2353,-3.1844,-3.195,-3.1945,-3.1772,-3.1911,-3.2042,-3.1742,-3.1046,-3.07,-3.053,-3.0342,-3.0039,-2.9887,-2.9651,-2.9507,-2.9407,-2.9204,-2.9204,-2.9175,-2.9152,-2.9152,-2.9203,-2.9209,-2.927,-2.931,-2.932,-2.932,-2.9339,-2.9299,-2.9249,-2.9238,-2.9278,-2.9372,-2.9441,-2.9491,-2.9521,-2.9482,-2.9463,-2.9463,-2.9491,-2.9491,-2.951,-2.951,-2.951,-2.95,-2.949,-2.9441,-2.9421,-2.9279,-2.9109,-2.8975,-2.8878,-2.8577,-2.8239,-2.8241,-2.8456,-2.8709,-2.9076,-2.9219,-2.9314,-2.9322,-2.933,-2.932,-2.933,-2.9401,-2.9471,-2.9512,-2.957,-2.9617,-2.9654,-2.9719,-2.979,-2.9859,-2.9866,-2.9874,-2.926,-2.8582,-2.8524,-2.8401,-2.784,-2.7421,-2.7391,-2.7499,-3.4074,-3.4074,-3.4092,-3.4049,-3.4061,-3.4043,-3.4036,-3.4085,-3.5045,-3.5442,-3.5665,-3.6278,-3.6593,-3.6525,-3.6246,-3.6294,-3.6459,-3.6501,-3.6507,-3.653,-3.5681,-3.5112,-3.4697,-3.4301,-3.3714,-3.3755,-3.3852,-3.3823,-3.3515,-3.2797,-3.1911,-3.1591,-3.1466,-3.1646,-3.2041,-3.1703,-3.177,-3.1912,-3.1481,-3.0877,-3.1355,-3.1498,-3.153,-3.1186,-3.0694,-3.0199,-2.9913,-2.951,-2.9017,-2.8994,-2.8952,-2.8923,-2.8952,-2.901,-2.903,-2.9068,-2.9138,-2.9145,-2.9145,-2.9134,-2.9089,-2.9026,-2.8962,-2.9026,-2.9127,-2.9296,-2.937,-2.9431,-2.9392,-2.9372,-2.9372,-2.9351,-2.9351,-2.933,-2.931,-2.9307,-2.9275,-2.9265,-2.9254,-2.9214,-2.9185,-2.8997,-2.8779,-2.8699,-2.8655,-2.7721,-2.7633,-2.805,-2.8267,-2.8773,-2.8964,-2.9152,-2.9149,-2.9156,-2.9189,-2.92,-2.9251,-2.9296,-2.9341,-2.9392,-2.9471,-2.9511,-2.955,-2.9617,-2.97,-2.979,-2.9693,-2.9219,-2.8988,-2.8954,-2.8768,-2.8423,-2.8203,-2.8178,-2.8319,-3.3868,-3.3855,-3.382,-3.3807,-3.382,-3.386,-3.3881,-3.3934,-3.4195,-3.4759,-3.536,-3.5639,-3.5751,-3.5656,-3.5143,-3.5142,-3.5526,-3.5589,-3.5559,-3.5346,-3.4755,-3.4301,-3.3666,-3.351,-3.314,-3.3195,-3.3397,-3.3495,-3.282,-3.1869,-3.1231,-3.1396,-3.1175,-3.1243,-3.1905,-3.1587,-3.1727,-3.1984,-3.1618,-3.1329,-3.1667,-3.1495,-3.1299,-3.0809,-3.024,-2.9886,-2.9527,-2.9071,-2.8864,-2.8846,-2.8834,-2.8822,-2.8852,-2.8864,-2.8893,-2.8945,-2.8945,-2.894,-2.8917,-2.8887,-2.8858,-2.8803,-2.8779,-2.8815,-2.894,-2.9112,-2.9222,-2.9275,-2.9307,-2.9286,-2.9257,-2.9217,-2.9185,-2.9152,-2.9119,-2.9082,-2.9026,-2.9026,-2.9044,-2.9033,-2.9033,-2.8863,-2.8627,-2.8501,-2.8491,-2.8449,-2.8474,-2.8573,-2.8421,-2.8651,-2.8765,-2.8899,-2.8917,-2.8929,-2.8998,-2.9055,-2.9108,-2.9163,-2.9222,-2.9265,-2.9315,-2.937,-2.9423,-2.9472,-2.9541,-2.9617,-2.9682,-2.9589,-2.9399,-2.9314,-2.928,-2.8996,-2.9139,-2.9167,-2.9342,-3.3712,-3.3712,-3.3671,-3.3675,-3.3643,-3.3675,-3.3684,-3.3744,-3.3748,-3.4104,-3.461,-3.4752,-3.4821,-3.4783,-3.4246,-3.419,-3.4652,-3.4647,-3.4679,-3.4463,-3.4189,-3.3821,-3.3335,-3.3062,-3.323,-3.3266,-3.3099,-3.2855,-3.2074,-3.1438,-3.1035,-3.0986,-3.0656,-3.1027,-3.1631,-3.1803,-3.1941,-3.2178,-3.1978,-3.2024,-3.2107,-3.1897,-3.1461,-3.0856,-3.0459,-3.0013,-2.9441,-2.9022,-2.8737,-2.8712,-2.8675,-2.8625,-2.8643,-2.8612,-2.8637,-2.8675,-2.87,-2.8724,-2.8669,-2.8626,-2.8614,-2.8563,-2.8531,-2.8556,-2.8657,-2.8815,-2.8922,-2.8991,-2.9071,-2.9071,-2.9082,-2.9071,-2.903,-2.8996,-2.8962,-2.8915,-2.8875,-2.8827,-2.8815,-2.8798,-2.8682,-2.8403,-2.8143,-2.7846,-2.7767,-2.7374,-2.7689,-2.813,-2.8154,-2.8382,-2.8529,-2.8675,-2.8718,-2.8792,-2.887,-2.8905,-2.8929,-2.8998,-2.9067,-2.9123,-2.9167,-2.9265,-2.932,-2.938,-2.9412,-2.9482,-2.9512,-2.954,-2.9636,-2.9547,-2.9612,-2.9632,-2.9815,-2.9855,-2.9777,-3.353,-3.3563,-3.3549,-3.3563,-3.3581,-3.3509,-3.3477,-3.3491,-3.3477,-3.3563,-3.3744,-3.392,-3.3939,-3.3985,-3.3985,-3.3972,-3.4002,-3.4115,-3.405,-3.395,-3.3753,-3.334,-3.3246,-3.3332,-3.3305,-3.3141,-3.2908,-3.2314,-3.1623,-3.1154,-3.0831,-3.0464,-3.0889,-3.1568,-3.2093,-3.2365,-3.2495,-3.2549,-3.2523,-3.2637,-3.2639,-3.2477,-3.1778,-3.1342,-3.1,-3.0542,-2.974,-2.9165,-2.8674,-2.86,-2.8549,-2.851,-2.8327,-2.826,-2.8355,-2.834,-2.7994,-2.8157,-2.8335,-2.8268,-2.8319,-2.8344,-2.8295,-2.8322,-2.8427,-2.8505,-2.8619,-2.8706,-2.8779,-2.8875,-2.8887,-2.8863,-2.8839,-2.8785,-2.8749,-2.8725,-2.8682,-2.8529,-2.8437,-2.8399,-2.8126,-2.7833,-2.7558,-2.7264,-2.6988,-2.6561,-2.658,-2.6952,-2.7385,-2.7812,-2.8113,-2.8386,-2.8592,-2.8681,-2.8737,-2.8773,-2.8785,-2.8846,-2.8917,-2.8975,-2.9033,-2.9089,-2.9156,-2.9262,-2.9307,-2.933,-2.9412,-2.9491,-2.9579,-2.9654,-2.9719,-2.9738,-2.9745,-2.977,-2.9761,-3.3256,-3.3352,-3.3241,-3.3286,-3.3408,-3.3367,-3.3382,-3.3408,-3.3426,-3.3437,-3.3466,-3.3509,-3.3629,-3.3889,-3.3921,-3.3881,-3.382,-3.3807,-3.3726,-3.3652,-3.3255,-3.2816,-3.2696,-3.299,-3.2998,-3.2889,-3.2704,-3.2218,-3.1673,-3.1324,-3.1342,-3.16,-3.1727,-3.2271,-3.2841,-3.2865,-3.252,-3.234,-3.1956,-3.1803,-3.1425,-3.1335,-3.1524,-3.0986,-3.0283,-2.9512,-2.885,-2.8657,-2.8541,-2.8484,-2.8381,-2.8306,-2.8011,-2.7697,-2.7684,-2.7725,-2.7369,-2.7541,-2.7725,-2.7807,-2.7879,-2.8214,-2.8191,-2.8196,-2.8232,-2.8205,-2.83,-2.8349,-2.8466,-2.8644,-2.8669,-2.8569,-2.8518,-2.8448,-2.8396,-2.8427,-2.8419,-2.7998,-2.7653,-2.7469,-2.723,-2.6984,-2.6776,-2.6626,-2.6626,-2.6333,-2.6315,-2.6662,-2.695,-2.7327,-2.7674,-2.7898,-2.8193,-2.8497,-2.8531,-2.8625,-2.865,-2.8712,-2.8755,-2.8846,-2.8881,-2.8888,-2.8959,-2.9085,-2.913,-2.9145,-2.9254,-2.9372,-2.9463,-2.9532,-2.9645,-2.9701,-2.9691,-2.9699,-2.9727]},{"header":{"parameterUnit":"m.s-1","parameterCategory":1,"la1":31.0,"la2":29.5877,"lo1":-88.7671,"lo2":-86.6584,"dy":0.0162,"dx":0.0185,"nx":115,"ny":88,"refTime":"2023-09-11T06:00:00:Z","depth":0,"parameterNumber":3,"parameterNumberName":"V-component_of_WINDS"},"data":[0.0,0.0,0.0,0.0,0.0,0.0,0.0,0.0,0.0,0.0,0.0,0.0,0.0,0.0,0.0,0.0,0.0,0.0,0.0,0.0,0.0,0.0,0.0,0.0,0.0,0.0,0.0,0.0,0.0,0.0,0.0,0.0,0.0,0.0,0.0,0.0,0.0,0.0,0.0,0.0,0.0,0.0,0.0,0.0,0.0,0.0,0.0,0.0,0.0,0.0,0.0,0.0,0.0,0.0,0.0,0.0,0.0,0.0,0.0,0.0,0.0,0.0,0.0,0.0,0.0,0.0,0.0,0.0,0.0,0.0,0.0,0.0,0.0,0.0,0.0,0.0,0.0,0.0,0.0,0.0,0.0,0.0,0.0,0.0,0.0,0.0,0.0,0.0,0.0,0.0,0.0,0.0,0.0,0.0,0.0,0.0,0.0,0.0,0.0,0.0,0.0,0.0,0.0,0.0,0.0,0.0,0.0,0.0,0.0,0.0,0.0,0.0,0.0,0.0,0.0,0.0,0.0,0.0,0.0,0.0,0.0,0.0,0.0,0.0,0.0,0.0,0.0,0.0,0.0,0.0,0.0,0.0,0.0,0.0,0.0,0.0,0.0,0.0,0.0,0.0,0.0,0.0,0.0,0.0,0.0,0.0,0.0,0.0,0.0,0.0,0.0,0.0,0.0,0.0,0.0,0.0,0.0,0.0,0.0,0.0,0.0,0.0,0.0,0.0,0.0,0.0,0.0,0.0,0.0,0.0,0.0,0.0,0.0,0.0,0.0,0.0,0.0,0.0,0.0,0.0,0.0,0.0,0.0,0.0,0.0,0.0,0.0,0.0,0.0,0.0,0.0,0.0,0.0,0.0,0.0,0.0,0.0,0.0,0.0,0.0,0.0,0.0,0.0,0.0,0.0,0.0,0.0,0.0,0.0,0.0,0.0,0.0,0.0,0.0,0.0,0.0,0.0,0.0,0.0,0.0,0.0,0.0,0.0,0.0,0.0,0.0,0.0,0.0,0.0,0.0,0.0,0.0,0.0,0.0,0.0,0.0,0.0,0.0,0.0,0.0,0.0,0.0,0.0,0.0,0.0,0.0,0.0,0.0,0.0,0.0,0.0,0.0,0.0,0.0,0.0,0.0,0.0,0.0,0.0,0.0,0.0,0.0,0.0,0.0,0.0,0.0,0.0,0.0,0.0,0.0,0.0,0.0,0.0,0.0,0.0,0.0,0.0,0.0,0.0,0.0,0.0,0.0,0.0,0.0,0.0,0.0,0.0,0.0,0.0,0.0,0.0,0.0,0.0,0.0,0.0,0.0,0.0,0.0,0.0,0.0,0.0,0.0,0.0,0.0,0.0,0.0,0.0,0.0,0.0,0.0,0.0,0.0,0.0,0.0,0.0,0.0,0.0,0.0,0.0,0.0,0.0,0.0,0.0,0.0,0.0,0.0,0.0,0.0,0.0,0.0,0.0,0.0,0.0,0.0,0.0,0.0,0.0,0.0,0.0,0.0,0.0,0.0,0.0,0.0,0.0,0.0,0.0,0.0,0.0,0.0,0.0,0.0,0.0,0.0,0.0,0.0,0.0,0.0,0.0,0.0,0.0,0.0,0.0,0.0,0.0,0.0,0.0,0.0,0.0,0.0,0.0,0.0,0.0,0.0,0.0,0.0,0.0,0.0,0.0,0.0,0.0,0.0,0.0,0.0,0.0,0.0,0.0,0.0,0.0,0.0,0.0,0.0,0.0,0.0,0.0,0.0,0.0,0.0,0.0,0.0,0.0,0.0,0.0,0.0,0.0,0.0,0.0,0.0,0.0,0.0,0.0,0.0,0.0,0.0,0.0,0.0,0.0,0.0,0.0,0.0,0.0,0.0,0.0,0.0,0.0,0.0,0.0,0.0,0.0,0.0,0.0,0.0,0.0,0.0,0.0,0.0,0.0,0.0,0.0,0.0,0.0,0.0,0.0,0.0,0.0,0.0,0.0,0.0,0.0,0.0,0.0,0.0,0.0,0.0,0.0,0.0,0.0,0.0,0.0,0.0,0.0,0.0,0.0,0.0,0.0,0.0,0.0,0.0,0.0,0.0,0.0,0.0,0.0,0.0,0.0,0.0,0.0,0.0,0.0,0.0,0.0,0.0,0.0,0.0,0.0,0.0,0.0,0.0,0.0,0.0,0.0,0.0,0.0,0.0,0.0,0.0,0.0,0.0,0.0,0.0,0.0,0.0,0.0,0.0,0.0,0.0,0.0,0.0,0.0,0.0,0.0,0.0,0.0,0.0,0.0,0.0,0.0,0.0,0.0,0.0,0.0,0.0,0.0,0.0,0.0,0.0,0.0,0.0,0.0,0.0,0.0,0.0,0.0,0.0,0.0,0.0,0.0,0.0,0.0,0.0,0.0,0.0,0.0,0.0,0.0,0.0,0.0,0.0,0.0,0.0,0.0,0.0,0.0,0.0,0.0,0.0,0.0,0.0,0.0,0.0,0.0,0.0,0.0,0.0,0.0,0.0,0.0,0.0,0.0,0.0,0.0,0.0,0.0,0.0,0.0,0.0,0.0,0.0,0.0,0.0,0.0,0.0,0.0,0.0,0.0,0.0,0.0,0.0,0.0,0.0,0.0,0.0,0.0,0.0,0.0,0.0,0.0,0.0,0.0,0.0,0.0,0.0,0.0,0.0,0.0,0.0,0.0,0.0,0.0,0.0,0.0,0.0,0.0,0.0,0.0,0.0,0.0,0.0,0.0,0.0,0.0,0.0,0.0,0.0,0.0,0.0,0.0,0.0,0.0,0.0,0.0,0.0,0.0,0.0,0.0,0.0,0.0,0.0,0.0,0.0,0.0,0.0,0.0,0.0,0.0,0.0,0.0,0.0,0.0,0.0,0.0,0.0,0.0,0.0,0.0,0.0,0.0,0.0,0.0,0.0,0.0,0.0,0.0,0.0,0.0,0.0,0.0,0.0,0.0,0.0,0.0,0.0,0.0,0.0,0.0,0.0,0.0,0.0,0.0,0.0,0.0,0.0,0.0,0.0,0.0,0.0,0.0,0.0,0.0,0.0,0.0,0.0,0.0,0.0,0.0,0.0,0.0,0.0,0.0,0.0,0.0,0.0,0.0,0.0,0.0,0.0,0.0,0.0,0.0,0.0,0.0,0.0,0.0,0.0,0.0,0.0,0.0,0.0,0.0,0.0,0.0,0.0,0.0,0.0,0.0,0.0,0.0,0.0,0.0,0.0,0.0,0.0,0.0,0.0,0.0,0.0,0.0,0.0,0.0,0.0,0.0,0.0,0.0,0.0,0.0,0.0,0.0,0.0,0.0,0.0,0.0,0.0,0.0,0.0,0.0,0.0,0.0,0.0,0.0,0.0,0.0,0.0,0.0,0.0,0.0,0.0,0.0,0.0,0.0,0.0,0.0,0.0,0.0,0.0,0.0,0.0,0.0,0.0,0.0,0.0,0.0,0.0,0.0,0.0,0.0,0.0,0.0,0.0,0.0,0.0,0.0,0.0,0.0,0.0,0.0,0.0,0.0,0.0,0.0,0.0,0.0,0.0,0.0,0.0,0.0,0.0,0.0,0.0,0.0,0.0,0.0,0.0,0.0,0.0,0.0,0.0,0.0,0.0,0.0,0.0,0.0,0.0,0.0,0.0,0.0,0.0,0.0,0.0,0.0,0.0,0.0,0.0,0.0,0.0,0.0,0.0,0.0,0.0,0.0,0.0,0.0,0.0,0.0,0.0,0.0,0.0,0.0,0.0,0.0,0.0,0.0,0.0,0.0,0.0,0.0,0.0,0.0,0.0,0.0,0.0,0.0,0.0,0.0,0.0,0.0,0.0,0.0,0.0,0.0,0.0,0.0,0.0,0.0,0.0,0.0,0.0,0.0,0.0,0.0,0.0,0.0,0.0,0.0,0.0,0.0,0.0,0.0,0.0,0.0,0.0,0.0,0.0,0.0,0.0,0.0,0.0,0.0,0.0,0.0,0.0,0.0,0.0,0.0,0.0,0.0,0.0,0.0,0.0,0.0,0.0,0.0,0.0,0.0,0.0,0.0,0.0,0.0,0.0,0.0,0.0,0.0,0.0,0.0,0.0,0.0,0.0,0.0,0.0,0.0,0.0,0.0,0.0,0.0,0.0,0.0,0.0,0.0,0.0,0.0,0.0,0.0,0.0,0.0,0.0,0.0,0.0,0.0,0.0,0.0,0.0,0.0,0.0,0.0,0.0,0.0,0.0,0.0,0.0,0.0,0.0,0.0,0.0,0.0,0.0,0.0,0.0,-0.403,0.0,0.0,0.0,0.0,0.0,0.0,0.0,0.0,0.0,0.0,0.0,0.0,0.0,0.0,0.0,0.0,0.0,0.0,0.0,0.0,0.0,0.0,0.0,0.0,0.0,0.0,0.0,0.0,0.0,0.0,0.0,0.0,0.0,0.0,0.0,0.0,0.0,0.0,0.0,0.0,0.0,0.0,0.0,0.0,0.0,0.0,0.0,0.0,0.0,0.0,0.0,0.0,0.0,0.0,0.0,0.0,0.0,0.0,0.0,0.0,0.0,0.0,0.0,0.0,0.0,0.0,0.0,0.0,0.0,0.0,0.0,0.0,0.0,0.0,0.0,0.0,0.0,0.0,0.0,0.0,0.0,0.0,0.0,0.0,0.0,0.0,0.0,0.0,0.0,0.0,0.0,0.0,0.0,0.0,0.0,0.0,0.0,0.0,0.0,0.0,0.0,0.0,0.0,0.0,0.0,0.0,0.0,0.0,0.0,0.0,-0.3443,-0.3619,-0.4041,-0.419,-0.4002,0.0,0.0,0.0,0.0,0.0,0.0,0.0,0.0,0.0,0.0,0.0,0.0,0.0,0.0,0.0,0.0,0.0,0.0,0.0,0.0,0.0,0.0,0.0,0.0,0.0,0.0,0.0,0.0,0.0,0.0,0.0,0.0,0.0,0.0,0.0,0.0,0.0,0.0,0.0,0.0,0.0,0.0,0.0,0.0,0.0,0.0,0.0,0.0,0.0,0.0,0.0,0.0,0.0,0.0,0.0,0.0,0.0,0.0,0.0,0.0,0.0,0.0,0.0,0.0,0.0,0.0,0.0,0.0,0.0,0.0,0.0,0.0,0.0,0.0,0.0,0.0,0.0,0.0,0.0,0.0,0.0,0.0,0.0,0.0,0.0,0.0,0.0,0.0,0.0,0.0,0.0,0.0,0.0,0.0,0.0,0.0,0.0,0.0,0.0,0.0,0.0,0.0,0.0,0.0,0.0,0.0,0.0,0.0,0.0,0.0,0.0,0.0,-0.4118,-0.4327,-0.4247,0.0,0.0,0.0,0.0,0.0,0.0,0.0,0.0,0.0,0.0,0.0,0.0,0.0,0.0,0.0,0.0,0.0,0.0,0.0,0.0,0.0,0.0,0.0,0.0,0.0,0.0,0.0,0.0,0.0,0.0,0.0,0.0,0.0,0.0,0.0,0.0,0.0,0.0,0.0,0.0,0.0,0.0,0.0,0.0,0.0,0.0,0.0,0.0,0.0,0.0,0.0,0.0,0.0,0.0,0.0,0.0,0.0,0.0,0.0,0.0,0.0,0.0,0.0,0.0,0.0,0.0,0.0,0.0,0.0,0.0,0.0,0.0,0.0,0.0,0.0,0.0,0.0,0.0,0.0,0.0,0.0,0.0,0.0,0.0,0.0,0.0,0.0,0.0,0.0,0.0,0.0,0.0,0.0,0.0,0.0,0.0,0.0,0.0,0.0,0.0,0.0,0.0,0.0,0.0,0.0,0.0,0.0,0.0,0.0,0.0,-0.3513,-0.377,-0.4454,0.0,-0.4963,0.0,0.0,0.0,0.0,0.0,0.0,0.0,0.0,0.0,0.0,0.0,0.0,0.0,0.0,0.0,0.0,0.0,0.0,0.0,0.0,0.0,0.0,0.0,0.0,0.0,0.0,0.0,0.0,0.0,0.0,0.0,0.0,0.0,0.0,0.0,0.0,0.0,0.0,0.0,0.0,0.0,0.0,0.0,0.0,0.0,0.0,0.0,0.0,0.0,0.0,0.0,0.0,0.0,0.0,0.0,0.0,0.0,0.0,0.0,0.0,0.0,0.0,0.0,0.0,0.0,0.0,0.0,0.0,0.0,0.0,0.0,0.0,0.0,0.0,0.0,0.0,0.0,0.0,0.0,0.0,0.0,0.0,0.0,0.0,0.0,0.0,0.0,0.0,0.0,0.0,0.0,0.0,0.0,0.0,0.0,0.0,0.0,0.0,0.0,0.0,0.0,0.0,0.0,0.0,0.0,0.0,0.0,0.0,0.0,0.0,-0.359,-0.3631,-0.4115,-0.449,0.0,0.0,0.0,0.0,0.0,0.0,0.0,0.0,0.0,0.0,0.0,0.0,0.0,0.0,0.0,0.0,0.0,0.0,0.0,0.0,0.0,0.0,0.0,0.0,0.0,0.0,0.0,0.0,0.0,0.0,0.0,0.0,0.0,0.0,0.0,0.0,0.0,0.0,0.0,0.0,0.0,0.0,0.0,0.0,0.0,0.0,0.0,0.0,0.0,0.0,0.0,0.0,0.0,0.0,0.0,0.0,0.0,0.0,0.0,0.0,0.0,0.0,0.0,0.0,0.0,0.0,0.0,0.0,0.0,0.0,0.0,0.0,0.0,0.0,0.0,0.0,0.0,0.0,0.0,0.0,0.0,0.0,0.0,0.0,0.0,0.0,0.0,0.0,0.0,0.0,0.0,0.0,0.0,0.0,0.0,0.0,0.0,0.0,0.0,0.0,0.0,0.0,0.0,0.0,0.0,0.0,0.0,0.0,0.0,0.0,-0.361,-0.4038,-0.4213,-0.4201,-0.434,-0.4727,0.0,0.0,0.0,0.0,0.0,0.0,0.0,0.0,0.0,0.0,0.0,0.0,0.0,0.0,0.0,0.0,0.0,0.0,0.0,0.0,0.0,0.0,0.0,0.0,0.0,0.0,0.0,0.0,0.0,0.0,0.0,0.0,0.0,0.0,0.0,0.0,0.0,0.0,0.0,0.0,0.0,0.0,0.0,0.0,0.0,0.0,0.0,0.0,0.0,0.0,0.0,0.0,0.0,0.0,0.0,0.0,0.0,0.0,0.0,0.0,0.0,0.0,0.0,0.0,0.0,0.0,0.0,0.0,0.0,0.0,0.0,0.0,0.0,0.0,0.0,0.0,0.0,0.0,0.0,0.0,0.0,0.0,0.0,0.0,0.0,0.0,0.0,0.0,0.0,0.0,0.0,0.0,0.0,0.0,0.0,0.0,0.0,0.0,0.0,0.0,0.0,0.0,0.0,0.0,0.0,0.0,0.0,0.0,-0.3132,-0.4041,-0.5038,-0.5994,-0.509,-0.4831,0.0,0.0,0.0,0.0,0.0,0.0,0.0,0.0,0.0,0.0,0.0,0.0,0.0,0.0,0.0,0.0,0.0,0.0,0.0,0.0,0.0,0.0,0.0,0.0,0.0,0.0,0.0,0.0,0.0,0.0,0.0,0.0,0.0,0.0,0.0,0.0,0.0,0.0,0.0,0.0,0.0,0.0,0.0,0.0,0.0,0.0,0.0,0.0,0.0,0.0,0.0,0.0,0.0,0.0,0.0,0.0,0.0,0.0,0.0,0.0,0.0,0.0,0.0,0.0,0.0,0.0,0.0,0.0,0.0,0.0,0.0,0.0,0.0,0.0,0.0,0.0,0.0,0.0,0.0,0.0,0.0,0.0,0.0,0.0,0.0,0.0,0.0,0.0,0.0,0.0,0.0,0.0,0.0,0.0,0.0,0.0,0.0,0.0,0.0,0.0,0.0,0.0,0.0,0.0,0.0,0.0,0.0,0.0,0.0,-0.3276,-0.4051,-0.4955,-0.5854,-0.5108,-0.4964,0.0,0.0,0.0,0.0,0.0,0.0,0.0,0.0,0.0,0.0,0.0,0.0,0.0,0.0,0.0,0.0,0.0,0.0,0.0,0.0,0.0,0.0,0.0,0.0,0.0,0.0,0.0,0.0,0.0,0.0,0.0,0.0,0.0,0.0,0.0,0.0,0.0,0.0,0.0,0.0,0.0,0.0,0.0,0.0,0.0,0.0,0.0,0.0,0.0,0.0,0.0,0.0,0.0,0.0,0.0,0.0,0.0,0.0,0.0,0.0,0.0,0.0,0.0,0.0,0.0,0.0,0.0,0.0,0.0,0.0,0.0,0.0,0.0,0.0,0.0,0.0,0.0,0.0,0.0,0.0,0.0,0.0,0.0,0.0,0.0,0.0,0.0,0.0,0.0,0.0,0.0,0.0,0.0,0.0,0.0,0.0,0.0,0.0,0.0,0.0,0.0,0.0,0.0,0.0,0.0,0.0,0.0,0.0,0.0,-0.4111,0.0,-0.5318,-0.6176,-0.5501,-0.5272,0.0,0.0,0.0,0.0,0.0,0.0,0.0,0.0,0.0,0.0,0.0,0.0,0.0,0.0,0.0,0.0,0.0,0.0,0.0,0.0,0.0,0.0,0.0,0.0,0.0,0.0,0.0,0.0,0.0,0.0,0.0,0.0,0.0,0.0,0.0,0.0,0.0,0.0,0.0,0.0,0.0,0.0,0.0,0.0,0.0,0.0,0.0,0.0,0.0,0.0,0.0,0.0,0.0,0.0,0.0,0.0,0.0,0.0,0.0,0.0,0.0,0.0,0.0,0.0,0.0,0.0,0.0,0.0,0.0,0.0,0.0,0.0,0.0,0.0,0.0,0.0,0.0,0.0,0.0,0.0,0.0,0.0,0.0,0.0,0.0,0.0,0.0,0.0,0.0,0.0,0.0,0.0,0.0,0.0,0.0,0.0,0.0,0.0,0.0,0.0,0.0,0.0,0.0,0.0,0.0,0.0,0.0,0.0,-0.4713,-0.5699,-0.5771,-0.6196,-0.7126,-0.6312,-0.5821,0.0,0.0,0.0,0.0,0.0,0.0,0.0,0.0,0.0,0.0,0.0,0.0,0.0,0.0,0.0,0.0,0.0,0.0,0.0,0.0,0.0,0.0,0.0,0.0,0.0,0.0,0.0,0.0,0.0,0.0,0.0,0.0,0.0,0.0,0.0,0.0,0.0,0.0,0.0,0.0,0.0,0.0,0.0,0.0,0.0,0.0,0.0,0.0,0.0,0.0,0.0,0.0,0.0,0.0,0.0,0.0,0.0,0.0,0.0,0.0,0.0,0.0,0.0,0.0,0.0,0.0,0.0,0.0,0.0,0.0,0.0,0.0,0.0,0.0,0.0,0.0,0.0,0.0,0.0,0.0,0.0,0.0,0.0,0.0,0.0,0.0,0.0,0.0,0.0,0.0,0.0,0.0,0.0,0.0,0.0,0.0,0.0,0.0,0.0,0.0,0.0,0.0,0.0,0.0,0.0,0.0,0.0,0.0,0.0,-0.541,-0.5925,-0.6593,-0.7333,-0.6419,-0.6103,0.0,0.0,0.0,0.0,0.0,0.0,0.0,0.0,0.0,0.0,0.0,0.0,0.0,0.0,0.0,0.0,0.0,0.0,0.0,0.0,0.0,0.0,0.0,0.0,0.0,0.0,0.0,0.0,0.0,0.0,0.0,0.0,0.0,0.0,0.0,0.0,0.0,0.0,0.0,0.0,0.0,0.0,0.0,0.0,0.0,0.0,0.0,0.0,0.0,0.0,0.0,0.0,0.0,0.0,0.0,0.0,0.0,0.0,0.0,0.0,0.0,0.0,0.0,0.0,0.0,0.0,0.0,0.0,0.0,0.0,0.0,0.0,0.0,0.0,0.0,0.0,0.0,0.0,0.0,0.0,0.0,0.0,0.0,0.0,0.0,0.0,0.0,0.0,0.0,0.0,0.0,0.0,0.0,0.0,0.0,0.0,0.0,0.0,0.0,0.0,0.0,0.0,0.0,0.0,0.0,0.0,0.0,0.0,0.0,-0.5917,-0.6495,-0.7009,-0.7442,-0.6557,-0.623,-0.6542,0.0,0.0,0.0,0.0,0.0,0.0,0.0,0.0,0.0,0.0,0.0,0.0,0.0,0.0,0.0,0.0,0.0,0.0,0.0,0.0,0.0,0.0,0.0,0.0,0.0,0.0,0.0,0.0,0.0,0.0,0.0,0.0,0.0,0.0,0.0,0.0,0.0,0.0,0.0,0.0,0.0,0.0,0.0,0.0,0.0,0.0,0.0,0.0,0.0,0.0,0.0,0.0,0.0,0.0,0.0,0.0,0.0,0.0,0.0,0.0,0.0,0.0,0.0,0.0,0.0,0.0,0.0,0.0,0.0,0.0,0.0,0.0,0.0,0.0,0.0,0.0,0.0,0.0,0.0,0.0,0.0,0.0,0.0,0.0,0.0,0.0,0.0,0.0,0.0,0.0,0.0,0.0,0.0,0.0,0.0,0.0,0.0,0.0,0.0,0.0,0.0,0.0,0.0,0.0,0.0,0.0,0.0,0.0,-0.7012,-0.7367,-0.7482,-0.7455,-0.6773,-0.6269,0.0,0.0,0.0,0.0,0.0,0.0,0.0,0.0,0.0,0.0,0.0,0.0,0.0,0.0,0.0,0.0,0.0,0.0,0.0,0.0,0.0,0.0,0.0,0.0,0.0,0.0,0.0,0.0,0.0,0.0,0.0,0.0,0.0,0.0,0.0,0.0,0.0,0.0,0.0,0.0,0.0,0.0,0.0,0.0,0.0,0.0,0.0,0.0,0.0,0.0,0.0,0.0,0.0,0.0,0.0,0.0,0.0,0.0,0.0,0.0,0.0,0.0,0.0,0.0,0.0,0.0,0.0,0.0,0.0,0.0,0.0,0.0,0.0,0.0,0.0,0.0,0.0,0.0,0.0,0.0,0.0,0.0,0.0,0.0,0.0,0.0,0.0,0.0,0.0,0.0,0.0,0.0,0.0,0.0,0.0,0.0,0.0,0.0,0.0,0.0,0.0,0.0,0.0,0.0,0.0,0.0,0.0,0.0,0.0,-0.7371,-0.7691,-0.7857,-0.7808,-0.7047,-0.6526,0.0,0.0,0.0,0.0,0.0,0.0,0.0,0.0,0.0,0.0,0.0,0.0,0.0,0.0,0.0,0.0,0.0,0.0,0.0,0.0,0.0,0.0,0.0,0.0,0.0,0.0,0.0,0.0,0.0,0.0,0.0,0.0,0.0,0.0,0.0,0.0,0.0,0.0,0.0,0.0,0.0,0.0,0.0,0.0,0.0,0.0,0.0,0.0,0.0,0.0,0.0,0.0,0.0,0.0,0.0,0.0,0.0,0.0,0.0,0.0,0.0,0.0,0.0,0.0,0.0,0.0,0.0,0.0,0.0,0.0,0.0,0.0,0.0,0.0,0.0,0.0,0.0,0.0,0.0,0.0,0.0,0.0,0.0,0.0,0.0,0.0,0.0,0.0,0.0,0.0,0.0,0.0,0.0,0.0,0.0,0.0,0.0,0.0,0.0,0.0,0.0,0.0,0.0,0.0,0.0,0.0,0.0,0.0,-0.7012,-0.7629,-0.7865,-0.7899,-0.7762,-0.7176,-0.6599,0.0,0.0,0.0,0.0,0.0,0.0,0.0,0.0,0.0,0.0,0.0,0.0,0.0,0.0,0.0,0.0,0.0,0.0,0.0,0.0,0.0,0.0,0.0,0.0,0.0,0.0,0.0,0.0,0.0,0.0,0.0,0.0,0.0,0.0,0.0,0.0,0.0,0.0,0.0,0.0,0.0,0.0,0.0,0.0,0.0,0.0,0.0,0.0,0.0,0.0,0.0,0.0,0.0,0.0,0.0,0.0,0.0,0.0,0.0,0.0,0.0,0.0,0.0,0.0,0.0,0.0,0.0,0.0,0.0,0.0,0.0,0.0,0.0,0.0,0.0,0.0,0.0,0.0,0.0,0.0,0.0,0.0,0.0,0.0,0.0,0.0,0.0,0.0,0.0,0.0,0.0,0.0,0.0,0.0,0.0,0.0,0.0,0.0,0.0,0.0,0.0,0.0,0.0,0.0,0.0,0.0,0.0,0.0,-0.7045,-0.774,-0.7859,-0.7747,-0.7371,-0.7145,-0.6523,0.0,0.0,0.0,0.0,0.0,0.0,0.0,0.0,0.0,0.0,0.0,0.0,0.0,0.0,0.0,0.0,0.0,0.0,0.0,0.0,0.0,0.0,0.0,0.0,0.0,0.0,0.0,0.0,0.0,0.0,0.0,0.0,0.0,0.0,0.0,0.0,0.0,0.0,0.0,0.0,0.0,0.0,0.0,0.0,0.0,0.0,0.0,0.0,0.0,0.0,0.0,0.0,0.0,0.0,0.0,0.0,0.0,0.0,0.0,0.0,0.0,0.0,0.0,0.0,0.0,0.0,0.0,0.0,0.0,0.0,0.0,0.0,0.0,0.0,0.0,0.0,0.0,0.0,0.0,0.0,0.0,0.0,0.0,0.0,0.0,0.0,0.0,0.0,0.0,0.0,0.0,0.0,0.0,0.0,0.0,0.0,0.0,0.0,0.0,0.0,0.0,0.0,0.0,0.0,0.0,0.0,0.0,0.0,-0.6954,-0.7454,-0.7768,-0.7658,-0.7157,-0.6712,-0.607,0.0,0.0,0.0,0.0,0.0,0.0,0.0,0.0,0.0,0.0,0.0,0.0,0.0,0.0,0.0,0.0,0.0,0.0,0.0,0.0,0.0,0.0,0.0,0.0,0.0,0.0,0.0,0.0,0.0,0.0,0.0,0.0,0.0,0.0,0.0,0.0,0.0,0.0,0.0,0.0,0.0,0.0,0.0,0.0,0.0,0.0,0.0,0.0,-0.5307,0.0,0.0,0.0,0.0,0.0,0.0,0.0,0.0,0.0,0.0,0.0,0.0,0.0,0.0,0.0,0.0,0.0,0.0,0.0,0.0,0.0,0.0,0.0,0.0,0.0,0.0,0.0,0.0,0.0,0.0,0.0,0.0,0.0,0.0,0.0,0.0,0.0,0.0,0.0,0.0,0.0,0.0,0.0,0.0,0.0,0.0,0.0,0.0,0.0,0.0,0.0,0.0,0.0,0.0,0.0,0.0,0.0,0.0,0.0,-0.6843,-0.7531,-0.7484,-0.7362,-0.7102,-0.6403,-0.5741,0.0,0.0,0.0,0.0,0.0,0.0,0.0,0.0,0.0,0.0,0.0,0.0,0.0,0.0,0.0,0.0,0.0,0.0,0.0,0.0,0.0,0.0,0.0,0.0,0.0,0.0,0.0,0.0,0.0,0.0,0.0,0.0,0.0,0.0,0.0,0.0,0.0,0.0,0.0,0.0,0.0,0.0,0.0,0.0,0.0,0.0,0.0,0.0,0.0,0.0,0.0,0.0,0.0,0.0,0.0,0.0,0.0,0.0,0.0,0.0,0.0,0.0,0.0,0.0,0.0,0.0,0.0,0.0,0.0,0.0,0.0,0.0,0.0,0.0,0.0,0.0,0.0,0.0,0.0,0.0,0.0,0.0,0.0,0.0,0.0,0.0,0.0,0.0,0.0,0.0,0.0,0.0,0.0,0.0,0.0,0.0,0.0,0.0,0.0,0.0,0.0,0.0,0.0,0.0,0.0,0.0,0.0,-0.6328,-0.6682,-0.7494,-0.7196,-0.699,-0.6983,-0.6133,-0.546,-0.5082,0.0,0.0,0.0,0.0,0.0,0.0,0.0,0.0,0.0,0.0,0.0,0.0,0.0,0.0,0.0,0.0,0.0,0.0,0.0,0.0,0.0,0.0,0.0,0.0,0.0,0.0,0.0,0.0,0.0,0.0,0.0,0.0,0.0,0.0,0.0,0.0,0.0,0.0,-0.4775,-0.5109,0.0,0.0,0.0,0.0,0.0,0.0,0.0,0.0,-0.608,0.0,0.0,0.0,0.0,0.0,0.0,0.0,0.0,0.0,0.0,0.0,0.0,0.0,0.0,0.0,0.0,0.0,0.0,0.0,0.0,0.0,0.0,0.0,0.0,0.0,0.0,0.0,0.0,0.0,0.0,0.0,0.0,0.0,0.0,0.0,0.0,0.0,0.0,0.0,0.0,0.0,0.0,0.0,0.0,0.0,0.0,0.0,0.0,0.0,0.0,0.0,0.0,0.0,0.0,0.0,0.0,-0.6397,-0.6213,-0.6373,-0.6944,-0.6881,-0.6753,-0.6582,-0.5912,-0.5337,-0.4919,0.0,0.0,0.0,0.0,0.0,0.0,0.0,0.0,0.0,0.0,0.0,0.0,0.0,0.0,0.0,0.0,0.0,0.0,0.0,0.0,0.0,0.0,0.0,0.0,0.0,0.0,0.0,0.0,0.0,0.0,0.0,0.0,0.0,0.0,0.0,0.0,0.0,0.0,0.0,-0.5619,-0.586,0.0,0.0,0.0,0.0,0.0,0.0,0.0,0.0,-0.6455,0.0,0.0,0.0,0.0,0.0,0.0,0.0,0.0,0.0,0.0,0.0,0.0,0.0,0.0,0.0,0.0,0.0,0.0,0.0,0.0,0.0,0.0,0.0,0.0,0.0,0.0,0.0,0.0,0.0,0.0,0.0,0.0,0.0,0.0,0.0,0.0,0.0,0.0,0.0,0.0,0.0,0.0,0.0,0.0,0.0,0.0,0.0,0.0,0.0,0.0,0.0,0.0,0.0,0.0,0.0,-0.6109,-0.609,-0.6297,-0.6788,-0.6682,-0.6555,-0.6348,-0.5733,-0.517,0.0,0.0,0.0,0.0,0.0,0.0,0.0,0.0,0.0,0.0,0.0,0.0,0.0,0.0,0.0,0.0,0.0,0.0,0.0,0.0,0.0,0.0,0.0,0.0,0.0,0.0,0.0,0.0,0.0,0.0,0.0,0.0,0.0,0.0,0.0,0.0,0.0,0.0,0.0,0.0,-0.6016,-0.6186,-0.6162,0.0,0.0,0.0,0.0,0.0,0.0,-0.6808,-0.6836,0.0,0.0,0.0,0.0,0.0,0.0,0.0,0.0,0.0,0.0,0.0,0.0,0.0,0.0,0.0,0.0,0.0,0.0,0.0,0.0,0.0,0.0,0.0,0.0,0.0,0.0,0.0,0.0,0.0,0.0,0.0,0.0,0.0,0.0,0.0,0.0,0.0,0.0,0.0,0.0,0.0,0.0,0.0,0.0,0.0,0.0,0.0,0.0,0.0,0.0,0.0,0.0,0.0,0.0,0.0,-0.583,-0.5883,-0.617,-0.6658,-0.651,-0.6298,-0.6103,-0.5498,-0.4958,0.0,0.0,0.0,0.0,0.0,0.0,0.0,0.0,0.0,0.0,0.0,0.0,0.0,0.0,0.0,0.0,0.0,0.0,0.0,0.0,0.0,0.0,0.0,0.0,0.0,0.0,0.0,0.0,0.0,0.0,0.0,0.0,0.0,0.0,0.0,0.0,0.0,0.0,0.0,0.0,0.0,-0.6625,-0.6651,-0.6967,0.0,0.0,0.0,0.0,-0.715,-0.7325,0.0,0.0,0.0,0.0,0.0,0.0,0.0,0.0,0.0,0.0,0.0,0.0,0.0,0.0,0.0,0.0,0.0,0.0,0.0,0.0,0.0,0.0,0.0,0.0,0.0,0.0,0.0,0.0,0.0,0.0,0.0,0.0,0.0,0.0,0.0,0.0,0.0,0.0,0.0,0.0,0.0,0.0,0.0,0.0,0.0,0.0,0.0,0.0,0.0,0.0,0.0,0.0,0.0,0.0,0.0,0.0,-0.5598,-0.5604,-0.5835,-0.6306,-0.6087,-0.5944,-0.5814,-0.509,-0.4552,0.0,0.0,0.0,0.0,0.0,0.0,0.0,0.0,0.0,0.0,0.0,0.0,0.0,0.0,0.0,0.0,0.0,0.0,0.0,0.0,0.0,0.0,0.0,0.0,0.0,0.0,0.0,0.0,0.0,0.0,0.0,0.0,0.0,0.0,0.0,0.0,0.0,0.0,0.0,0.0,0.0,-0.7394,-0.7455,-0.7416,-0.7492,0.0,0.0,-0.8169,-0.8256,-0.8318,0.0,0.0,0.0,0.0,0.0,0.0,0.0,0.0,0.0,0.0,0.0,0.0,0.0,0.0,0.0,0.0,0.0,0.0,0.0,0.0,0.0,0.0,0.0,0.0,0.0,0.0,0.0,0.0,0.0,0.0,0.0,0.0,0.0,0.0,0.0,0.0,0.0,0.0,0.0,0.0,0.0,0.0,0.0,0.0,0.0,0.0,0.0,0.0,0.0,0.0,0.0,0.0,0.0,0.0,0.0,-0.4904,-0.5462,-0.5482,-0.5734,-0.6286,-0.6018,-0.5794,-0.5619,-0.488,-0.4423,0.0,0.0,0.0,0.0,0.0,0.0,0.0,0.0,0.0,0.0,0.0,0.0,0.0,0.0,0.0,0.0,0.0,0.0,0.0,0.0,0.0,0.0,0.0,0.0,0.0,0.0,0.0,0.0,0.0,0.0,0.0,0.0,0.0,0.0,0.0,0.0,0.0,0.0,0.0,0.0,0.0,0.0,-0.7517,-0.7762,0.0,0.0,0.0,-0.8918,-0.8964,0.0,0.0,0.0,0.0,0.0,0.0,0.0,0.0,0.0,0.0,0.0,0.0,0.0,0.0,0.0,0.0,0.0,0.0,0.0,0.0,0.0,0.0,0.0,0.0,0.0,0.0,0.0,0.0,0.0,0.0,0.0,0.0,0.0,0.0,0.0,0.0,0.0,0.0,0.0,0.0,0.0,0.0,0.0,0.0,0.0,0.0,0.0,0.0,0.0,0.0,0.0,0.0,0.0,0.0,0.0,0.0,0.0,-0.5334,-0.5427,-0.5678,-0.6193,-0.5928,-0.5667,-0.5377,-0.4643,0.0,0.0,0.0,0.0,0.0,0.0,0.0,0.0,0.0,0.0,0.0,0.0,0.0,0.0,0.0,0.0,0.0,0.0,0.0,0.0,0.0,0.0,0.0,0.0,0.0,0.0,0.0,-0.3737,0.0,0.0,0.0,0.0,0.0,0.0,0.0,0.0,0.0,0.0,0.0,0.0,0.0,0.0,-0.7655,-0.7903,-0.8344,-0.871,0.0,0.0,-0.9429,-0.9277,-0.8728,-0.8278,0.0,0.0,0.0,0.0,0.0,0.0,0.0,0.0,0.0,0.0,0.0,0.0,0.0,0.0,0.0,0.0,0.0,0.0,0.0,0.0,0.0,0.0,0.0,0.0,0.0,0.0,0.0,0.0,0.0,0.0,0.0,0.0,0.0,0.0,0.0,0.0,0.0,0.0,0.0,0.0,0.0,0.0,0.0,0.0,0.0,0.0,0.0,0.0,0.0,0.0,0.0,0.0,0.0,0.0,0.0,-0.5088,-0.5271,-0.5553,-0.6,-0.571,-0.538,-0.502,-0.4208,-0.3677,0.0,0.0,0.0,0.0,0.0,0.0,0.0,0.0,0.0,0.0,0.0,0.0,0.0,0.0,0.0,0.0,0.0,0.0,0.0,0.0,0.0,0.0,0.0,0.0,0.0,0.0,0.0,0.0,0.0,0.0,0.0,0.0,0.0,0.0,0.0,0.0,0.0,0.0,0.0,0.0,0.0,-0.8659,-0.9128,-0.9373,-0.9632,0.0,0.0,-0.961,-0.9186,-0.8991,-0.8698,-0.8261,0.0,0.0,0.0,0.0,0.0,0.0,0.0,0.0,0.0,0.0,0.0,0.0,0.0,0.0,0.0,0.0,0.0,0.0,0.0,0.0,0.0,0.0,0.0,0.0,0.0,0.0,0.0,0.0,0.0,0.0,0.0,0.0,0.0,0.0,0.0,0.0,0.0,0.0,0.0,0.0,0.0,0.0,0.0,0.0,0.0,0.0,0.0,0.0,0.0,0.0,0.0,0.0,0.0,-0.4684,-0.527,-0.5086,-0.5208,-0.5669,-0.5347,-0.5029,-0.4716,-0.4095,-0.3668,0.0,0.0,0.0,0.0,0.0,0.0,0.0,0.0,0.0,0.0,0.0,0.0,0.0,0.0,0.0,0.0,0.0,0.0,0.0,0.0,0.0,0.0,0.0,0.0,0.0,0.0,0.0,0.0,-0.4313,-0.441,-0.467,0.0,0.0,0.0,0.0,0.0,0.0,0.0,0.0,0.0,0.0,-0.8318,-0.8983,-0.919,0.0,0.0,-0.9881,-0.9803,-0.9685,-0.9203,-0.8728,-0.8478,-0.7811,0.0,0.0,0.0,0.0,0.0,0.0,0.0,0.0,0.0,0.0,0.0,0.0,0.0,0.0,0.0,0.0,0.0,0.0,0.0,0.0,0.0,0.0,0.0,0.0,0.0,0.0,0.0,0.0,0.0,0.0,0.0,0.0,0.0,0.0,0.0,0.0,0.0,0.0,0.0,0.0,0.0,0.0,0.0,0.0,0.0,0.0,0.0,0.0,0.0,0.0,0.0,0.0,-0.4731,-0.5229,-0.4941,-0.5008,-0.5383,-0.5027,-0.4738,-0.4437,-0.3953,-0.3593,0.0,0.0,0.0,0.0,0.0,0.0,0.0,0.0,0.0,0.0,0.0,0.0,0.0,0.0,0.0,0.0,0.0,0.0,0.0,0.0,0.0,0.0,0.0,0.0,0.0,0.0,0.0,0.0,-0.436,-0.4378,-0.4618,0.0,0.0,0.0,0.0,0.0,0.0,0.0,0.0,0.0,0.0,-0.8389,-0.8917,-0.9288,-0.9591,-0.982,-0.9887,-0.9898,-0.9791,-0.9197,-0.8706,-0.8609,0.0,0.0,0.0,0.0,0.0,0.0,0.0,0.0,0.0,0.0,0.0,0.0,0.0,0.0,0.0,0.0,0.0,0.0,0.0,0.0,0.0,0.0,0.0,0.0,0.0,0.0,0.0,0.0,0.0,0.0,0.0,0.0,0.0,0.0,0.0,0.0,0.0,0.0,0.0,0.0,0.0,0.0,0.0,0.0,0.0,0.0,0.0,0.0,0.0,0.0,0.0,0.0,0.0,-0.4686,-0.49,-0.483,-0.4891,-0.5095,-0.4714,-0.4439,-0.4263,-0.372,-0.3366,-0.3218,0.0,0.0,0.0,0.0,0.0,0.0,0.0,0.0,0.0,0.0,0.0,0.0,0.0,0.0,0.0,0.0,0.0,0.0,0.0,0.0,0.0,0.0,0.0,0.0,0.0,0.0,-0.4486,-0.448,-0.4487,0.0,0.0,0.0,0.0,0.0,0.0,0.0,0.0,0.0,0.0,-0.8683,-0.917,-0.917,-0.9892,-1.0252,-0.9944,-0.9866,-0.9763,-0.9358,-0.8919,-0.8596,0.0,0.0,0.0,0.0,0.0,0.0,0.0,0.0,0.0,0.0,0.0,0.0,0.0,0.0,0.0,0.0,0.0,0.0,0.0,0.0,0.0,0.0,0.0,0.0,0.0,0.0,0.0,-0.5391,-0.5348,0.0,0.0,0.0,0.0,0.0,0.0,0.0,0.0,0.0,0.0,0.0,-0.4475,-0.4508,0.0,0.0,0.0,0.0,0.0,0.0,0.0,0.0,0.0,0.0,0.0,0.0,-0.4601,-0.4986,-0.4512,-0.4357,-0.4557,-0.4321,-0.405,-0.3782,-0.3582,-0.3396,-0.3224,0.0,0.0,0.0,0.0,0.0,0.0,0.0,0.0,0.0,0.0,0.0,0.0,0.0,0.0,0.0,0.0,0.0,0.0,0.0,0.0,0.0,0.0,0.0,0.0,0.0,-0.471,0.0,0.0,0.0,0.0,0.0,0.0,0.0,0.0,0.0,0.0,0.0,-0.786,-0.7989,-0.8279,-0.8552,-0.8765,-0.903,-0.9237,0.0,0.0,0.0,0.0,0.0,0.0,0.0,0.0,0.0,0.0,0.0,0.0,0.0,0.0,-0.8125,-0.8198,-0.8075,-0.8087,-0.8694,0.0,0.0,0.0,0.0,0.0,0.0,0.0,0.0,0.0,0.0,0.0,0.0,0.0,0.0,0.0,0.0,-0.4747,0.0,0.0,0.0,0.0,0.0,0.0,0.0,0.0,-0.4299,-0.4439,-0.4626,-0.4601,-0.4423,0.0,-0.432,-0.4394,0.0,0.0,0.0,0.0,0.0,0.0,0.0,0.0,-0.454,-0.4788,-0.4228,-0.3997,-0.4097,-0.3928,-0.373,-0.3498,-0.3431,-0.3313,-0.3179,-0.3132,-0.3111,0.0,0.0,0.0,0.0,0.0,0.0,0.0,0.0,0.0,0.0,0.0,0.0,0.0,0.0,0.0,0.0,0.0,0.0,0.0,0.0,0.0,0.0,0.0,-0.4814,0.0,0.0,0.0,0.0,0.0,0.0,0.0,0.0,0.0,-0.6643,-0.7251,-0.773,-0.7967,-0.8075,-0.8199,-0.8438,0.0,0.0,0.0,0.0,0.0,0.0,0.0,-0.814,-0.7588,-0.775,-0.7916,-0.7615,-0.7797,-0.8006,-0.8164,0.0,0.0,-0.8441,-0.83,-0.8382,-0.9018,-0.8853,-0.8757,-0.9235,-0.9511,-0.9787,0.0,0.0,0.0,0.0,0.0,0.0,0.0,0.0,-0.4806,-0.4856,0.0,-0.4529,0.0,0.0,0.0,0.0,0.0,0.0,0.0,0.0,-0.461,-0.4716,-0.4681,-0.4698,-0.4695,-0.469,-0.4684,-0.452,-0.4228,-0.4334,0.0,0.0,0.0,0.0,0.0,0.0,-0.4461,-0.4298,-0.3961,-0.3792,-0.3792,-0.3596,-0.3498,-0.3498,-0.3295,-0.3187,-0.3105,-0.3169,-0.3136,-0.3034,-0.3077,0.0,0.0,0.0,0.0,0.0,0.0,0.0,0.0,0.0,0.0,0.0,0.0,0.0,0.0,0.0,0.0,0.0,0.0,0.0,0.0,-0.4727,0.0,0.0,0.0,0.0,0.0,0.0,0.0,0.0,0.0,0.0,-0.6849,-0.7333,-0.7731,-0.797,0.0,0.0,0.0,0.0,-0.8267,-0.8102,-0.8107,-0.8091,-0.7915,-0.7797,-0.7705,-0.7478,0.0,0.0,-0.7731,-0.7699,-0.769,-0.7651,-0.7809,-0.8137,-0.8843,-0.8661,-0.8533,-0.8699,-0.8773,-0.8839,-0.8994,-0.9382,-0.9806,-0.347,0.0,0.0,0.0,0.0,-0.4911,-0.4948,-0.5068,-0.4588,-0.4506,-0.4682,-0.417,0.0,0.0,0.0,0.0,0.0,0.0,-0.4444,-0.4474,-0.4458,-0.4408,-0.4411,-0.4605,-0.456,-0.4258,-0.4434,-0.4452,-0.4339,-0.4087,-0.4058,-0.4228,0.0,0.0,0.0,0.0,-0.4059,-0.4064,-0.3763,-0.3596,-0.3563,-0.3531,-0.3431,-0.3295,-0.3228,-0.3182,-0.3187,-0.3087,-0.3068,-0.3142,-0.2966,0.0,0.0,0.0,0.0,0.0,0.0,0.0,0.0,0.0,0.0,0.0,0.0,0.0,0.0,0.0,0.0,0.0,0.0,0.0,-0.5088,-0.4716,-0.4459,0.0,0.0,0.0,0.0,0.0,0.0,0.0,0.0,0.0,-0.6692,-0.6991,-0.7278,0.0,0.0,-0.7377,-0.8032,-0.7607,-0.7248,-0.7418,0.0,0.0,0.0,-0.7315,-0.7285,-0.6776,-0.7109,-0.7466,-0.7666,-0.7824,-0.7902,-0.7864,-0.8014,-0.8227,-0.8544,-0.843,-0.8236,-0.8151,-0.8382,-0.8629,-0.8537,-0.8884,-0.9252,-0.2944,-0.3627,-0.4203,-0.4584,-0.4766,-0.4776,-0.4818,-0.4757,-0.4443,-0.4286,-0.4225,-0.3978,-0.3877,-0.3949,-0.3915,0.0,0.0,0.0,-0.4285,-0.4367,-0.4293,-0.4272,-0.4358,-0.4481,-0.4416,-0.4181,-0.4321,-0.4296,-0.4174,-0.3901,-0.3755,-0.3755,0.0,0.0,-0.4192,-0.3925,-0.3792,-0.3797,-0.3529,-0.3362,-0.3397,-0.3395,-0.3328,-0.3192,-0.3192,-0.3192,-0.3192,-0.3122,-0.3079,-0.3115,-0.3004,-0.296,0.0,0.0,0.0,0.0,0.0,0.0,0.0,0.0,0.0,0.0,0.0,-0.3403,0.0,0.0,0.0,0.0,-0.4279,-0.4551,-0.4912,-0.4584,0.0,0.0,0.0,0.0,0.0,0.0,0.0,-0.5571,-0.5599,-0.5723,-0.6152,-0.6247,-0.6544,-0.7221,-0.6975,-0.6915,-0.7464,0.0,-0.6642,-0.6839,-0.6778,-0.6716,-0.6716,-0.6843,-0.6877,-0.6667,-0.6909,-0.7302,-0.7563,-0.7727,-0.776,-0.7675,-0.775,-0.785,-0.7862,-0.7868,-0.7938,-0.8026,-0.8221,-0.835,-0.8297,-0.8534,-0.8787,-0.2221,-0.2338,-0.3444,-0.3974,-0.4168,-0.4678,-0.4678,-0.4347,-0.4288,-0.4171,-0.3902,-0.3904,-0.39,-0.3887,-0.4135,0.0,-0.4014,-0.4201,-0.4259,-0.4209,-0.4211,-0.4256,-0.4382,-0.4384,-0.4337,-0.4286,-0.4286,-0.4159,-0.3878,-0.3737,-0.362,-0.3453,-0.3796,-0.3938,-0.3928,-0.3825,-0.3661,-0.3498,-0.3295,-0.3192,-0.3192,-0.3192,-0.3192,-0.3192,-0.3192,-0.3192,-0.3192,-0.3192,-0.3146,-0.3012,-0.3117,-0.3059,-0.2816,0.0,0.0,0.0,0.0,0.0,0.0,0.0,0.0,0.0,0.0,0.0,0.0,0.0,0.0,0.0,-0.4176,0.0,-0.4235,-0.4403,0.0,0.0,0.0,-0.4945,-0.5058,-0.5438,-0.5614,-0.5397,0.0,0.0,-0.5394,0.0,-0.5716,-0.6624,-0.6654,-0.6609,-0.6671,-0.647,-0.6297,-0.6327,-0.6302,-0.6339,-0.6339,-0.6388,-0.6518,-0.6765,-0.7028,-0.7196,-0.7385,-0.7422,-0.7338,-0.7184,-0.7215,-0.7268,-0.6993,-0.7261,-0.7612,-0.8196,-0.8171,-0.8087,-0.8188,-0.8241,-0.8398,-0.141,-0.1867,-0.2319,-0.3196,-0.4215,-0.4127,-0.4323,-0.4708,-0.4338,-0.4121,-0.4044,-0.3887,-0.377,-0.3668,-0.3829,-0.3926,-0.3938,-0.4087,-0.4212,-0.4349,-0.4199,-0.4135,-0.4155,-0.4155,-0.4183,-0.4162,-0.431,-0.4337,-0.4225,-0.3905,-0.3785,-0.3776,-0.3619,-0.35,-0.3395,-0.336,-0.3326,-0.3295,-0.3228,-0.3192,-0.3192,-0.3192,-0.3192,-0.3192,-0.3192,-0.3192,-0.3192,-0.3192,-0.3175,-0.3096,-0.3065,-0.296,-0.2806,-0.2857,0.0,0.0,0.0,0.0,0.0,0.0,0.0,0.0,0.0,-0.3429,-0.3659,0.0,-0.3679,0.0,-0.3929,-0.4039,-0.4409,-0.4147,0.0,0.0,-0.4724,-0.4852,-0.4745,-0.5356,-0.5597,-0.5065,-0.5327,-0.5404,-0.505,-0.5023,-0.5085,-0.5364,-0.5571,-0.5918,-0.6437,-0.6003,-0.5625,-0.5646,-0.5658,-0.5705,-0.5837,-0.6037,-0.6261,-0.6621,-0.6722,-0.6779,-0.6941,-0.6967,-0.699,-0.709,-0.7248,-0.732,-0.7257,-0.739,-0.7535,-0.7735,-0.7786,-0.7789,-0.7841,-0.7852,-0.7948,-0.0757,-0.1101,-0.1233,-0.2011,-0.3231,-0.376,-0.4301,-0.4743,-0.4442,-0.4196,-0.396,-0.3841,-0.3734,-0.3693,-0.374,-0.3814,-0.3849,-0.3936,-0.4038,-0.4112,-0.3999,-0.396,-0.396,-0.396,-0.3975,-0.4013,-0.4047,-0.4085,-0.4153,-0.3821,-0.3687,-0.3774,-0.3527,-0.3399,-0.335,-0.3313,-0.3362,-0.3421,-0.328,-0.3192,-0.3192,-0.3192,-0.3192,-0.3192,-0.3192,-0.3192,-0.3192,-0.3187,-0.3142,-0.3093,-0.3074,-0.3005,-0.2891,-0.2833,-0.2801,0.0,0.0,0.0,0.0,0.0,0.0,0.0,0.0,0.0,0.0,0.0,-0.3688,0.0,-0.3887,-0.395,-0.4321,-0.4105,-0.4036,-0.4289,-0.4522,-0.4635,-0.462,-0.4935,-0.5104,-0.4942,-0.5024,-0.5065,-0.4995,-0.4951,-0.4923,-0.4895,-0.4999,-0.5233,-0.5644,-0.5492,-0.5315,-0.5297,-0.5373,-0.5434,-0.5548,-0.5759,-0.597,-0.6156,-0.6315,-0.6459,-0.6529,-0.6661,-0.6782,-0.6858,-0.7073,-0.7269,-0.728,-0.735,-0.7414,-0.7458,-0.7493,-0.7583,-0.7717,-0.7752,-0.7817,-0.0358,-0.0447,-0.0403,-0.0939,-0.1956,-0.3391,-0.4089,-0.4317,-0.4306,-0.4132,-0.3781,-0.382,-0.382,-0.3818,-0.3822,-0.3814,-0.3802,-0.3802,-0.3802,-0.3802,-0.3802,-0.3802,-0.3802,-0.3802,-0.3838,-0.3875,-0.372,-0.372,-0.3869,-0.3632,-0.3524,-0.3561,-0.3519,-0.3485,-0.3424,-0.3424,-0.3513,-0.3637,-0.3385,-0.3244,-0.321,-0.3244,-0.321,-0.3177,-0.3198,-0.3159,-0.3056,-0.305,-0.2972,-0.2896,-0.293,-0.289,-0.2899,-0.2713,-0.2745,0.0,-0.2831,0.0,0.0,0.0,0.0,0.0,0.0,0.0,0.0,-0.3673,-0.3806,-0.4079,-0.3926,-0.388,-0.4101,-0.4094,-0.4077,-0.4123,-0.4254,-0.4411,-0.4568,-0.4548,-0.4609,-0.4814,-0.4759,-0.4796,-0.4955,-0.4905,-0.4797,-0.4801,-0.4659,-0.4662,-0.4822,-0.4995,-0.5051,-0.51,-0.5239,-0.5303,-0.5423,-0.5582,-0.5729,-0.5745,-0.5959,-0.6143,-0.6154,-0.6372,-0.6535,-0.6549,-0.6777,-0.7021,-0.7005,-0.7165,-0.7305,-0.734,-0.737,-0.745,-0.7694,-0.7784,-0.7925,-0.0267,-0.0525,-0.0445,-0.1021,-0.2051,-0.2202,-0.2465,-0.283,-0.2864,-0.316,-0.363,-0.3792,-0.3873,-0.3873,-0.3873,-0.3834,-0.3804,-0.3802,-0.3802,-0.3802,-0.3802,-0.3802,-0.3802,-0.3802,-0.3832,-0.3816,-0.3775,-0.3777,-0.3814,-0.3684,-0.3421,-0.3232,-0.3459,-0.3376,-0.2977,0.0,0.0,0.0,-0.3381,-0.3371,-0.3373,-0.3373,-0.3269,-0.3126,-0.3163,0.0,-0.2421,-0.2473,-0.2306,-0.1837,-0.1901,0.0,0.0,0.0,0.0,0.0,0.0,0.0,0.0,0.0,0.0,0.0,-0.3144,-0.3206,-0.3443,-0.3621,-0.3705,-0.3704,-0.3771,-0.3782,-0.3718,-0.3783,-0.3953,-0.4153,-0.44,-0.4568,-0.4595,-0.4894,-0.4937,-0.4473,-0.4602,-0.4704,-0.4584,-0.4429,-0.4384,-0.4485,-0.4369,-0.4342,-0.4476,-0.4574,-0.4578,-0.4447,-0.4716,-0.5085,-0.5355,-0.5487,-0.5578,-0.5771,-0.5813,-0.5849,-0.5865,-0.5912,-0.5967,-0.5988,-0.6361,-0.6626,-0.6505,-0.6944,-0.7335,-0.7361,-0.7464,-0.7567,-0.7629,-0.7778,-0.7933,-0.0136,0.0,-0.0229,-0.0551,0.0,-0.0965,-0.0998,-0.1274,-0.2103,-0.2651,-0.3076,-0.3557,-0.3712,-0.3715,-0.3839,-0.3848,-0.3802,-0.3802,-0.3802,-0.3802,-0.3802,-0.3802,-0.3802,-0.3802,-0.3841,-0.396,-0.3841,-0.3841,-0.3919,-0.3563,-0.3256,-0.31,-0.3059,-0.2944,-0.2666,-0.2713,-0.2895,-0.3145,-0.3095,-0.3122,-0.3297,-0.3227,-0.3156,-0.3052,0.0,0.0,0.0,0.0,0.0,0.0,0.0,0.0,0.0,0.0,0.0,-0.3121,-0.3158,-0.3181,-0.3188,-0.3192,-0.3192,-0.3192,-0.3144,-0.3168,-0.3281,-0.343,-0.3495,-0.3504,-0.3526,-0.3523,-0.3499,-0.3625,-0.3745,-0.3906,-0.4089,-0.4225,-0.4231,-0.4411,-0.4484,-0.4291,-0.4377,-0.4497,-0.45,-0.435,-0.4301,-0.4354,-0.4162,-0.4022,-0.4053,-0.4189,-0.4234,-0.4057,-0.4356,-0.4674,-0.4743,-0.4911,-0.5029,-0.5093,-0.5156,-0.5202,-0.5206,-0.5332,-0.548,-0.5583,-0.5965,-0.6241,-0.6271,-0.6599,-0.6921,-0.6921,-0.7086,-0.7246,-0.7282,-0.7629,-0.8,0.0,0.0,0.0,0.0,0.0,0.0,0.0,-0.0092,0.0,0.0,0.0,-0.3065,-0.3292,-0.3238,-0.3462,-0.3571,-0.361,-0.3606,-0.3686,-0.3802,-0.3802,-0.3802,-0.3802,-0.3802,-0.3841,-0.3923,-0.3726,-0.3647,-0.3726,-0.3139,-0.2865,-0.2749,-0.2511,-0.2393,-0.235,-0.222,-0.232,-0.2675,-0.2727,-0.2897,-0.3139,-0.3089,-0.3046,-0.3012,-0.2495,-0.2188,-0.2052,-0.1611,-0.1346,-0.1343,-0.1316,-0.1574,-0.2142,-0.2203,-0.2494,-0.3115,-0.3156,-0.3148,-0.3188,-0.3192,-0.322,-0.317,-0.315,-0.314,-0.3204,-0.326,-0.3324,-0.3381,-0.334,-0.3356,-0.3381,-0.3515,-0.3608,-0.3611,-0.3697,-0.3825,-0.382,-0.3816,-0.3903,-0.4009,-0.4109,-0.4196,-0.4388,-0.4252,-0.4196,-0.4239,-0.3988,-0.3746,-0.3708,-0.3876,-0.3964,-0.3919,-0.4206,-0.4341,-0.4278,-0.4354,-0.4429,-0.4516,-0.4595,-0.4592,-0.4642,-0.4849,-0.508,-0.52,-0.5557,-0.5811,-0.5943,-0.6133,-0.6288,-0.6354,-0.6581,-0.6782,-0.6909,-0.733,-0.7762,0.0,0.0,0.0,0.0,0.0,0.0,0.0,0.0,-0.0772,-0.1507,-0.2164,-0.2209,-0.223,-0.2223,-0.2231,-0.2487,-0.2945,-0.2943,-0.3255,0.0,-0.3802,-0.3802,-0.3802,-0.3802,-0.3608,-0.3258,-0.3022,-0.2785,-0.247,-0.2195,-0.1883,-0.1649,-0.1844,-0.1883,-0.1686,-0.1303,-0.1361,-0.1882,-0.2523,-0.2882,-0.2952,-0.3207,-0.3273,-0.3061,-0.2618,-0.2049,-0.1445,-0.1071,-0.067,-0.0269,-0.0369,-0.0771,-0.1411,-0.1774,-0.2277,-0.2956,-0.3113,-0.3211,-0.3192,-0.3192,-0.316,-0.3122,-0.3136,-0.3201,-0.327,-0.3237,-0.3249,-0.3357,-0.3378,-0.3371,-0.3392,-0.352,-0.3583,-0.3586,-0.3699,-0.3792,-0.3792,-0.3811,-0.3796,-0.3827,-0.386,-0.3873,-0.3947,-0.3826,-0.3811,-0.3833,-0.3763,-0.36,-0.3566,-0.3597,-0.3781,-0.4001,-0.4183,-0.4353,-0.4384,-0.4534,-0.4516,-0.4572,-0.4539,-0.4551,-0.4548,-0.4671,-0.4758,-0.4728,-0.5093,-0.5326,-0.5286,-0.5653,-0.5921,-0.6017,-0.6181,-0.6346,-0.6609,-0.6835,-0.7071,0.0,0.0,0.0,0.0,0.0,0.0,-0.0096,-0.0232,-0.0359,-0.0733,-0.1283,-0.1654,-0.1836,-0.1797,-0.1938,-0.2125,-0.2313,-0.2313,-0.247,-0.2743,-0.2743,-0.2743,-0.2782,-0.2744,-0.2665,-0.2431,-0.2353,-0.2234,-0.2038,-0.1727,-0.1492,-0.1297,-0.1216,-0.1139,-0.106,-0.0855,-0.085,-0.1119,-0.1859,-0.244,-0.2875,-0.291,-0.2872,-0.2833,-0.2181,-0.1545,-0.1042,-0.0605,-0.0236,0.0,-0.0101,-0.0404,-0.0975,-0.121,-0.158,-0.2185,-0.2522,-0.2656,-0.2656,-0.2924,-0.3107,-0.3136,-0.317,-0.3209,-0.3234,-0.3179,-0.3177,-0.3288,-0.3251,-0.3272,-0.329,-0.3338,-0.3396,-0.3399,-0.3436,-0.3491,-0.3491,-0.356,-0.3629,-0.3663,-0.3727,-0.3792,-0.3825,-0.3749,-0.3734,-0.3782,-0.3647,-0.3517,-0.3355,-0.3359,-0.3439,-0.3582,-0.3853,-0.4002,-0.4018,-0.4092,-0.4156,-0.4159,-0.4159,-0.4159,-0.4159,-0.4225,-0.4225,-0.4192,-0.4461,-0.4628,-0.4661,-0.4927,-0.5223,-0.5388,-0.5752,-0.6017,-0.6247,-0.6441,-0.6848,0.0,0.0,0.0,0.0,0.0,0.0,-0.0098,-0.0284,-0.0093,-0.0177,-0.0499,-0.1082,-0.1309,-0.1269,-0.1483,-0.1597,-0.1649,-0.1687,-0.1764,-0.1881,-0.1881,-0.1881,-0.1881,-0.1881,-0.1843,-0.1764,-0.1686,-0.1647,-0.149,-0.1177,-0.1022,-0.0982,-0.0629,-0.0511,-0.0511,-0.055,-0.0589,-0.0706,-0.1173,-0.1812,-0.2533,-0.2469,-0.2429,-0.2412,-0.1681,-0.1119,-0.078,-0.0304,0.0,0.0,0.0,-0.0236,-0.0672,-0.0773,-0.1008,-0.1512,-0.1884,-0.2119,-0.2221,-0.2654,-0.2989,-0.3092,-0.3092,-0.3092,-0.3153,-0.3062,-0.3083,-0.3172,-0.3158,-0.315,-0.3203,-0.3188,-0.3192,-0.3192,-0.3192,-0.3226,-0.3228,-0.3328,-0.3431,-0.3431,-0.3594,-0.3658,-0.3658,-0.3658,-0.3656,-0.3623,-0.3529,-0.3362,-0.3228,-0.3192,-0.3192,-0.3259,-0.3525,-0.3689,-0.3531,-0.3627,-0.3761,-0.3725,-0.3727,-0.3761,-0.3758,-0.3758,-0.3761,-0.3792,-0.3894,-0.4028,-0.4133,-0.4295,-0.4495,-0.4728,-0.5126,-0.5528,-0.5686,-0.6095,-0.6638,0.0,0.0,0.0,0.0,0.0,0.0,0.0,0.0,0.0,0.0,0.0,-0.0125,-0.0163,-0.0162,-0.0199,-0.0512,-0.0982,-0.0982,-0.1295,-0.1803,-0.1881,-0.1881,-0.1842,-0.1842,-0.1687,-0.1374,-0.11,-0.0825,-0.051,-0.0275,0.0,-0.0118,-0.0079,-0.0157,-0.0314,-0.0314,-0.0511,-0.0864,-0.0743,-0.0965,-0.1547,-0.1985,-0.2152,-0.1964,-0.1399,-0.1012,-0.0802,-0.0273,0.0,0.0,0.0,-0.0168,-0.0471,-0.0706,-0.0941,-0.1311,-0.1513,-0.1816,-0.2154,-0.252,-0.272,-0.2753,-0.2753,-0.2822,-0.2989,-0.2846,-0.2878,-0.3088,-0.3184,-0.318,-0.319,-0.3192,-0.3192,-0.3192,-0.3192,-0.3192,-0.3194,-0.3228,-0.3228,-0.3228,-0.3293,-0.3259,-0.3293,-0.3293,-0.3293,-0.3326,-0.3293,-0.3228,-0.3159,-0.3192,-0.3192,-0.3228,-0.3395,-0.3496,-0.3498,-0.3498,-0.3531,-0.3529,-0.3529,-0.3529,-0.3529,-0.3661,-0.3758,-0.3563,-0.3658,-0.3727,-0.3696,-0.3763,-0.3995,-0.4298,-0.4498,-0.4664,-0.509,-0.5628,-0.6256,0.0397,0.0,0.0,0.0,0.0,0.0,0.0,0.0,0.0,0.0,0.0,0.0127,0.0165,0.0163,0.004,-0.008,-0.0196,-0.0314,-0.051,-0.0785,-0.0785,-0.0784,-0.0785,-0.0746,-0.0667,-0.055,-0.0432,0.0,-0.0118,0.0,0.0,0.0,0.0,0.0,-0.0118,-0.0118,-0.0196,-0.0354,-0.0393,-0.0508,-0.0773,-0.1284,-0.152,-0.1469,-0.1121,-0.0789,-0.0502,-0.0177,0.0,0.0,0.0,-0.0069,-0.0202,-0.0303,-0.037,-0.0539,-0.0807,-0.1277,-0.1951,-0.2151,-0.2351,-0.2653,-0.2686,-0.2753,-0.2787,-0.2753,-0.2753,-0.2889,-0.3023,-0.3125,-0.3192,-0.3192,-0.3192,-0.3192,-0.3192,-0.3192,-0.3192,-0.3192,-0.3192,-0.3192,-0.3192,-0.3192,-0.3192,-0.3192,-0.3159,-0.3125,-0.3125,-0.3092,-0.2956,-0.3058,-0.3159,-0.3125,-0.3228,-0.3328,-0.3328,-0.3328,-0.3328,-0.3328,-0.3328,-0.3328,-0.3328,-0.336,-0.3426,-0.3362,-0.3426,-0.3493,-0.3531,-0.3565,-0.3696,-0.3961,-0.4361,-0.4628,-0.5193,-0.5624,-0.6053,0.0958,0.0454,0.0202,0.005,0.0,0.0,0.0,0.0,0.0,0.0,0.0,0.013,0.0253,0.0288,0.0122,0.0121,0.0199,0.004,0.0,0.0,0.0,0.0,0.0,0.0,0.0,0.0,0.0,0.0,0.0,0.0,0.0,0.0,0.0,0.0,0.0,0.0,-0.0039,-0.0079,-0.0196,-0.0236,-0.0353,-0.0618,-0.0839,-0.0908,-0.0781,-0.0515,-0.0221,-0.0073,0.0,0.0,0.0,0.0,0.0,0.0,0.0,0.0,-0.0303,-0.0806,-0.1479,-0.1614,-0.1848,-0.2217,-0.2249,-0.2284,-0.2385,-0.2418,-0.2487,-0.2621,-0.2723,-0.2855,-0.3025,-0.3058,-0.3025,-0.2991,-0.3025,-0.3058,-0.296,-0.3025,-0.3058,-0.3058,-0.2924,-0.2891,-0.2857,-0.2824,-0.279,-0.2824,-0.2859,-0.2922,-0.2755,-0.2857,-0.2924,-0.2922,-0.2989,-0.3092,-0.3159,-0.3159,-0.3159,-0.3159,-0.3159,-0.3159,-0.3159,-0.3159,-0.3192,-0.3261,-0.3228,-0.3224,-0.332,-0.3422,-0.3462,-0.372,-0.4048,-0.4461,-0.4755,-0.5256,-0.5467,0.1563,0.1412,0.0707,0.0247,0.0,0.0,0.0,0.0,0.0,0.0,0.0,0.0044,0.0131,0.0294,0.0246,0.0163,0.0041,0.0,0.0,0.0,0.0,0.0,0.0,0.0,0.0,0.0,0.0,0.0,0.0,0.0,0.0,0.0,0.0,0.0,0.0,0.0,0.0,-0.0196,-0.0118,-0.0118,-0.0275,-0.0157,-0.0194,-0.0342,-0.034,-0.0227,0.0,0.0,0.0,0.0,0.0,0.0,0.0,0.0,0.0,0.0,-0.0303,-0.0504,-0.0638,-0.0941,-0.1176,-0.121,-0.1311,-0.1344,-0.168,-0.1714,-0.1883,-0.2356,-0.2255,-0.2353,-0.2619,-0.2688,-0.2654,-0.2523,-0.2621,-0.2621,-0.2456,-0.2621,-0.2686,-0.2688,-0.2488,-0.2321,-0.2052,-0.1951,-0.2186,-0.2354,-0.2356,-0.2354,-0.252,-0.2522,-0.2522,-0.2621,-0.272,-0.2822,-0.3092,-0.3058,-0.3023,-0.2989,-0.2989,-0.2989,-0.3058,-0.3092,-0.3159,-0.3192,-0.3159,-0.3188,-0.3209,-0.3247,-0.3301,-0.3448,-0.3579,-0.3923,-0.4309,-0.4489,-0.474,0.2369,0.1613,0.1312,0.084,0.0286,0.0238,0.0185,0.0,0.0,0.0,0.0,0.0127,0.0169,0.0126,0.0247,0.0244,0.0203,0.008,0.0,0.0,0.0,0.0,0.0,0.0,0.0,0.0,0.0,0.0,0.0,0.0,0.0079,0.0157,0.0079,0.0079,0.0157,0.0039,-0.0039,-0.0079,-0.0039,-0.0039,-0.0079,-0.0039,0.0039,0.0078,-0.0039,-0.0078,0.0,0.0,0.0,0.0,0.0,0.0,0.0,0.0,0.0,0.0,-0.0101,-0.0269,-0.0471,-0.0638,-0.084,-0.1076,-0.1109,-0.1109,-0.1244,-0.1277,-0.1378,-0.1513,-0.1614,-0.168,-0.1848,-0.2151,-0.2354,-0.2322,-0.2322,-0.2321,-0.2255,-0.222,-0.2185,-0.2185,-0.2153,-0.2119,-0.1918,-0.2085,-0.2188,-0.2085,-0.2153,-0.2119,-0.2051,-0.2119,-0.222,-0.2253,-0.2354,-0.2455,-0.2353,-0.2654,-0.2822,-0.2822,-0.2822,-0.2787,-0.2822,-0.2855,-0.2889,-0.2956,-0.2989,-0.3041,-0.3057,-0.3099,-0.3157,-0.3355,-0.348,-0.3512,-0.3806,-0.4097,-0.4353,0.2997,0.1999,0.1799,0.1379,0.077,0.0573,0.0418,0.0267,0.0175,0.0129,0.0,0.0207,0.0124,0.0042,0.0123,0.0244,0.0284,0.008,0.0,0.0079,0.0039,0.0079,0.0157,0.0118,0.0118,0.0,0.0,0.0,0.0,0.0,0.0,0.0275,0.0157,0.0196,0.0354,0.0275,0.0196,0.0196,0.0157,0.0118,0.0157,0.0118,0.0196,0.0354,0.0275,0.0196,0.0196,0.0196,0.0194,0.0189,0.0185,0.0179,0.0,0.0136,0.0135,0.0101,0.0101,-0.0034,-0.0303,-0.0336,-0.0437,-0.0706,-0.0673,-0.0673,-0.0807,-0.084,-0.0873,-0.1008,-0.1076,-0.1143,-0.1244,-0.1481,-0.1716,-0.185,-0.1918,-0.1884,-0.1849,-0.1748,-0.158,-0.1479,-0.158,-0.1614,-0.1548,-0.1683,-0.1749,-0.1648,-0.1717,-0.1616,-0.1547,-0.158,-0.1748,-0.1681,-0.1816,-0.1816,-0.1748,-0.1915,-0.215,-0.2183,-0.2453,-0.2485,-0.2519,-0.2552,-0.2619,-0.2686,-0.2778,-0.2858,-0.2919,-0.2995,-0.3129,-0.3299,-0.3253,-0.3212,-0.3505,-0.3828,-0.3982,0.3436,0.2702,0.2158,0.1862,0.1457,0.1055,0.0848,0.0685,0.0486,0.0387,0.0379,0.0168,0.0124,0.0041,0.0122,0.0162,0.0284,0.0121,0.016,0.0275,0.0118,0.0236,0.0511,0.0393,0.0314,0.0275,0.0118,0.0,0.0,0.0,0.0158,0.0314,0.0314,0.0393,0.0589,0.0589,0.0589,0.0511,0.0393,0.0393,0.055,0.0393,0.0393,0.0589,0.0589,0.0589,0.0589,0.0589,0.0544,0.057,0.0556,0.0535,0.0479,0.0473,0.0438,0.0304,0.0304,0.0202,0.0034,0.0,0.0,-0.0034,0.0135,0.0034,-0.0236,-0.0303,-0.0403,-0.0605,-0.0706,-0.0806,-0.0908,-0.0774,-0.0808,-0.1211,-0.1312,-0.1244,-0.1143,-0.1109,-0.0974,-0.0706,-0.0806,-0.074,-0.064,-0.0876,-0.1078,-0.1077,-0.101,-0.0943,-0.0975,-0.0941,-0.0907,-0.1008,-0.1143,-0.1143,-0.1109,-0.1109,-0.1277,-0.1479,-0.1849,-0.2084,-0.2118,-0.2151,-0.2251,-0.2351,-0.252,-0.2636,-0.2872,-0.2947,-0.2961,-0.3059,-0.2977,-0.2936,-0.3166,-0.3387,-0.3482,0.4115,0.3537,0.338,0.2685,0.1798,0.1663,0.1301,0.0755,0.0612,0.0602,0.059,0.0538,0.0492,0.0487,0.044,0.0477,0.0516,0.0437,0.0435,0.0511,0.0432,0.0472,0.0589,0.055,0.0511,0.0512,0.052,0.0439,0.0395,0.0439,0.056,0.067,0.055,0.0629,0.0787,0.0668,0.0629,0.0589,0.055,0.055,0.0589,0.055,0.0589,0.0786,0.0786,0.0943,0.1258,0.0864,0.0626,0.0621,0.0607,0.0585,0.0559,0.051,0.0506,0.0472,0.0438,0.0438,0.0371,0.0337,0.0337,0.0371,0.0405,0.0371,0.027,0.0236,0.0168,0.0067,0.0,-0.0101,-0.0101,-0.0168,-0.037,-0.0909,-0.0842,-0.0741,-0.0674,-0.0606,-0.0505,-0.0438,-0.0639,-0.0672,-0.0606,-0.0741,-0.0808,-0.0573,-0.0506,-0.0438,-0.037,-0.0336,-0.0269,-0.0336,-0.0403,-0.047,-0.037,-0.037,-0.0538,-0.0773,-0.1144,-0.1513,-0.1614,-0.1715,-0.1848,-0.2017,-0.2185,-0.2428,-0.27,-0.2844,-0.2863,-0.2851,-0.2789,-0.2797,-0.2838,-0.2911,-0.3048,0.4654,0.4219,0.399,0.3451,0.2551,0.2411,0.194,0.1336,0.1444,0.1423,0.1275,0.1455,0.1523,0.1475,0.1366,0.1312,0.1349,0.1341,0.1295,0.118,0.0754,0.0713,0.0789,0.0754,0.0756,0.072,0.0734,0.0692,0.0638,0.0692,0.0774,0.0879,0.0796,0.0837,0.1034,0.0947,0.0864,0.0864,0.0786,0.0746,0.0825,0.0746,0.0825,0.1022,0.1061,0.1218,0.1533,0.1179,0.0983,0.1054,0.1028,0.1025,0.1019,0.0957,0.0876,0.0808,0.0774,0.0741,0.064,0.0606,0.0573,0.0539,0.0573,0.0573,0.054,0.054,0.0573,0.0506,0.0405,0.0337,0.0303,0.0236,0.0,-0.0337,-0.027,-0.0202,-0.0135,-0.0067,0.0,-0.0034,-0.0202,-0.0303,-0.0337,-0.0437,-0.0538,-0.0168,-0.0067,0.0,0.0135,0.0168,0.0202,0.0269,0.0235,0.0269,0.0404,0.0336,0.0202,-0.0067,-0.0404,-0.074,-0.0974,-0.1176,-0.1344,-0.1579,-0.1782,-0.2026,-0.2278,-0.2599,-0.2687,-0.2649,-0.2618,-0.2615,-0.2607,-0.2581,-0.2658,0.4937,0.4681,0.4126,0.3934,0.3758,0.3235,0.2722,0.238,0.2703,0.2569,0.2339,0.2592,0.2818,0.2804,0.2505,0.2479,0.2671,0.2505,0.2367,0.21,0.1524,0.1167,0.1197,0.1084,0.101,0.0982,0.0833,0.0788,0.0813,0.0788,0.0832,0.1012,0.1048,0.1095,0.1207,0.127,0.1258,0.1218,0.1022,0.1061,0.1218,0.1061,0.1022,0.1258,0.1258,0.1375,0.1612,0.165,0.169,0.1837,0.1691,0.1592,0.1653,0.1642,0.1447,0.1278,0.1311,0.1143,0.0941,0.0908,0.0841,0.0708,0.0809,0.0775,0.0708,0.0809,0.0843,0.0708,0.064,0.0573,0.0505,0.0539,0.0505,0.0404,0.0303,0.0304,0.0438,0.0438,0.0405,0.0405,0.0371,0.0303,0.0236,0.0067,0.0135,0.0303,0.0404,0.0472,0.0606,0.0673,0.0673,0.0706,0.0806,0.084,0.0942,0.0908,0.0807,0.0672,0.037,0.0067,-0.0336,-0.0605,-0.0908,-0.1143,-0.1342,-0.1589,-0.1867,-0.2166,-0.2373,-0.2388,-0.2376,-0.2377,-0.2328,-0.2308,-0.237,0.4991,0.498,0.4928,0.4646,0.4191,0.4049,0.3707,0.3295,0.3347,0.3367,0.3269,0.3301,0.3399,0.3307,0.328,0.3245,0.3268,0.3169,0.2816,0.2497,0.2589,0.2008,0.1433,0.1245,0.1213,0.1205,0.1131,0.1124,0.1143,0.1125,0.1156,0.1191,0.1234,0.1232,0.1306,0.1302,0.1298,0.1297,0.1258,0.1218,0.1258,0.1258,0.1218,0.1297,0.1335,0.1492,0.1807,0.212,0.212,0.1919,0.1762,0.1711,0.1725,0.1658,0.1614,0.1547,0.1513,0.1479,0.1412,0.1378,0.1345,0.1312,0.1279,0.138,0.1345,0.1345,0.1345,0.1312,0.1312,0.1278,0.1244,0.1244,0.1245,0.1212,0.0808,0.0506,0.054,0.0472,0.0472,0.0371,0.0371,0.0404,0.0471,0.0471,0.0572,0.0908,0.1009,0.1043,0.1111,0.1178,0.1177,0.1312,0.1378,0.1378,0.1412,0.1412,0.1378,0.1378,0.1144,0.0875,0.0437,0.0,-0.0404,-0.0807,-0.0908,-0.1132,-0.1454,-0.1736,-0.1891,-0.2078,-0.2055,-0.2036,-0.2023,-0.2003,-0.2119,0.5197,0.519,0.5207,0.5007,0.4632,0.4643,0.4344,0.4034,0.4204,0.4249,0.4148,0.4335,0.4399,0.4432,0.4257,0.4212,0.4196,0.4037,0.3734,0.341,0.3206,0.2617,0.1848,0.1489,0.1295,0.1326,0.1301,0.1288,0.1312,0.1333,0.1319,0.1288,0.1317,0.1316,0.1318,0.1302,0.1297,0.1336,0.1375,0.1415,0.1415,0.1533,0.1533,0.1572,0.1609,0.184,0.213,0.2373,0.2417,0.2203,0.2028,0.1932,0.196,0.1908,0.1851,0.1849,0.1849,0.1816,0.1748,0.1715,0.1681,0.1614,0.158,0.158,0.158,0.158,0.158,0.1547,0.158,0.158,0.158,0.158,0.158,0.1513,0.1212,0.0943,0.0942,0.0977,0.0943,0.0875,0.0841,0.0875,0.0941,0.0941,0.1109,0.1311,0.1378,0.1446,0.1547,0.1614,0.1648,0.1715,0.1748,0.1715,0.1681,0.1681,0.1648,0.1648,0.1614,0.1412,0.1077,0.0572,0.0235,-0.0134,-0.0403,-0.0671,-0.0933,-0.126,-0.1591,-0.1703,-0.1721,-0.1737,-0.1719,-0.1786,-0.1908,0.5581,0.5383,0.5237,0.5153,0.5129,0.5098,0.4884,0.4612,0.5057,0.5146,0.4961,0.5416,0.5447,0.568,0.5218,0.5211,0.5185,0.4934,0.4805,0.4335,0.3755,0.2944,0.2566,0.1799,0.1523,0.15,0.143,0.1418,0.1449,0.1421,0.1368,0.1378,0.1372,0.1336,0.1324,0.1307,0.1298,0.1375,0.1493,0.1573,0.165,0.1807,0.1885,0.1924,0.212,0.2287,0.2431,0.2575,0.2618,0.2564,0.2386,0.2253,0.2235,0.2211,0.2195,0.2153,0.2119,0.2085,0.1951,0.1918,0.1849,0.1748,0.1715,0.1681,0.1715,0.1715,0.1715,0.1748,0.1648,0.1715,0.1715,0.1681,0.1715,0.1715,0.1648,0.1648,0.1648,0.1614,0.158,0.158,0.1547,0.158,0.1614,0.1614,0.1648,0.1681,0.1715,0.1748,0.1816,0.1816,0.1849,0.1918,0.1951,0.1951,0.1951,0.1951,0.1849,0.1816,0.1816,0.1681,0.1513,0.1144,0.0941,0.0638,0.0269,-0.0067,-0.0335,-0.0703,-0.1105,-0.1366,-0.1371,-0.1428,-0.149,-0.1582,-0.1705,0.5623,0.5891,0.5689,0.5592,0.5586,0.5521,0.5463,0.5377,0.5555,0.5552,0.5508,0.5644,0.5688,0.573,0.5606,0.5555,0.5427,0.5342,0.5305,0.5085,0.396,0.371,0.344,0.2603,0.1997,0.1941,0.1945,0.1917,0.1846,0.1785,0.173,0.1553,0.155,0.1466,0.1346,0.1382,0.1375,0.1533,0.1611,0.1729,0.1886,0.2081,0.2195,0.2232,0.2503,0.263,0.2699,0.2822,0.2879,0.2728,0.2452,0.2264,0.2253,0.223,0.2224,0.2221,0.2221,0.2188,0.2153,0.2153,0.2119,0.2085,0.2052,0.2085,0.2085,0.2085,0.2085,0.2085,0.2085,0.2052,0.2052,0.2085,0.2052,0.2052,0.2085,0.2052,0.2018,0.1816,0.1648,0.1614,0.1648,0.1681,0.1816,0.1849,0.1918,0.2018,0.2085,0.2085,0.2085,0.2052,0.2119,0.2186,0.222,0.2218,0.2185,0.2218,0.2185,0.2084,0.2084,0.2018,0.1816,0.1648,0.1378,0.1143,0.084,0.0538,0.0235,-0.0101,-0.0504,-0.077,-0.1036,-0.1096,-0.1187,-0.1344,-0.1426,0.5908,0.6086,0.5952,0.5822,0.5688,0.5688,0.5688,0.5688,0.5688,0.5777,0.5819,0.5777,0.5777,0.5863,0.5772,0.5623,0.5516,0.5443,0.5431,0.5204,0.4488,0.4255,0.424,0.3522,0.2867,0.2461,0.2292,0.2263,0.2205,0.2079,0.197,0.2008,0.1846,0.1733,0.1611,0.1649,0.1766,0.1923,0.2081,0.2238,0.2318,0.2511,0.2685,0.2695,0.29,0.2962,0.2924,0.295,0.2917,0.2774,0.2565,0.2457,0.2403,0.2323,0.2258,0.2388,0.2322,0.2356,0.2388,0.2421,0.2453,0.2421,0.242,0.242,0.242,0.2453,0.2455,0.242,0.242,0.2453,0.2421,0.2421,0.242,0.2453,0.2453,0.2455,0.2386,0.2153,0.1951,0.1918,0.1951,0.2052,0.2119,0.2119,0.2253,0.2388,0.242,0.242,0.2453,0.242,0.242,0.2487,0.2487,0.2487,0.2453,0.2453,0.2487,0.2453,0.2418,0.2321,0.2188,0.2018,0.1816,0.1547,0.1277,0.1008,0.0706,0.037,0.0101,-0.0134,-0.0369,-0.0638,-0.0801,-0.0822,-0.0943,0.6124,0.6216,0.6171,0.5997,0.5822,0.5822,0.5836,0.5897,0.5849,0.6022,0.6083,0.5908,0.5924,0.5978,0.5791,0.5621,0.5529,0.5477,0.5434,0.5422,0.5125,0.4869,0.477,0.4415,0.3848,0.2899,0.2864,0.2817,0.255,0.2289,0.2304,0.2358,0.212,0.1925,0.1925,0.208,0.2157,0.2235,0.2511,0.2747,0.2826,0.302,0.3182,0.3343,0.3407,0.3368,0.3327,0.3256,0.315,0.2905,0.2827,0.2893,0.285,0.2562,0.2421,0.272,0.2624,0.2622,0.2721,0.2755,0.2755,0.2787,0.272,0.272,0.272,0.2686,0.2653,0.2653,0.2653,0.2653,0.2686,0.2653,0.2653,0.2686,0.2686,0.2686,0.2653,0.2555,0.2455,0.2321,0.2321,0.2388,0.2455,0.2523,0.2622,0.2721,0.2755,0.2753,0.2787,0.2787,0.2755,0.2824,0.2857,0.2857,0.2788,0.2621,0.2654,0.2688,0.2686,0.2587,0.249,0.2354,0.2151,0.1916,0.1648,0.1412,0.1176,0.0874,0.0639,0.047,0.0235,-0.0067,-0.0199,-0.0263,-0.0424,0.6349,0.6659,0.6435,0.6299,0.6299,0.6299,0.6358,0.6503,0.6448,0.6445,0.6343,0.6293,0.6129,0.6002,0.5813,0.5695,0.5654,0.5575,0.5616,0.5758,0.5644,0.5535,0.537,0.5344,0.4931,0.4396,0.3977,0.3609,0.3194,0.3025,0.2776,0.2396,0.2265,0.2148,0.2113,0.2118,0.2453,0.2643,0.2846,0.3008,0.3166,0.3327,0.3565,0.3753,0.3865,0.3912,0.3916,0.388,0.3841,0.3721,0.347,0.348,0.3417,0.2965,0.2822,0.2922,0.2958,0.2958,0.309,0.3125,0.3125,0.3092,0.3056,0.2989,0.2956,0.2822,0.2787,0.2753,0.2753,0.272,0.2686,0.282,0.2753,0.272,0.282,0.282,0.282,0.2887,0.2922,0.2822,0.2788,0.2755,0.2857,0.2958,0.3025,0.309,0.309,0.3123,0.3123,0.309,0.3056,0.3159,0.3261,0.3228,0.3159,0.2889,0.2755,0.2822,0.2822,0.2787,0.2688,0.2654,0.2485,0.2252,0.2018,0.1816,0.158,0.1344,0.1176,0.1008,0.0737,0.0467,0.0331,0.023,0.0164,0.6639,0.6795,0.6656,0.652,0.6428,0.6428,0.6465,0.6526,0.6529,0.6542,0.6446,0.6368,0.631,0.6229,0.5972,0.5902,0.5904,0.5737,0.5809,0.6028,0.6065,0.6075,0.5918,0.6025,0.5795,0.5379,0.5053,0.4502,0.3832,0.3493,0.3376,0.3354,0.3026,0.2808,0.2867,0.3071,0.3145,0.3298,0.3446,0.3586,0.3631,0.3812,0.3904,0.4071,0.4218,0.4262,0.4283,0.4133,0.4131,0.404,0.3873,0.3777,0.3674,0.3556,0.3322,0.3391,0.3326,0.3326,0.3458,0.3527,0.3525,0.3525,0.346,0.3424,0.336,0.3259,0.3092,0.3023,0.3092,0.3159,0.3288,0.3324,0.3424,0.352,0.352,0.3487,0.352,0.3589,0.3556,0.3453,0.3353,0.3355,0.3389,0.3458,0.3458,0.3458,0.3458,0.3491,0.3527,0.3491,0.3458,0.3525,0.3661,0.3627,0.356,0.3357,0.3123,0.309,0.3056,0.3023,0.2956,0.2921,0.2755,0.252,0.2353,0.222,0.2085,0.1884,0.1715,0.1546,0.1375,0.1203,0.0928,0.0757,0.072,0.7102,0.7015,0.7015,0.6799,0.6533,0.6555,0.6549,0.6492,0.6596,0.6637,0.6593,0.6435,0.6449,0.6408,0.6248,0.6111,0.6172,0.599,0.6114,0.6237,0.633,0.6374,0.6362,0.6377,0.6285,0.6005,0.5773,0.5303,0.4459,0.3988,0.402,0.3947,0.3716,0.3684,0.3789,0.4044,0.4215,0.4309,0.4398,0.4488,0.4477,0.4471,0.4459,0.455,0.4574,0.4692,0.4734,0.4594,0.4555,0.452,0.4382,0.4214,0.4141,0.4123,0.4123,0.4059,0.3828,0.3761,0.3828,0.3894,0.3894,0.3894,0.3861,0.3859,0.3925,0.3828,0.3696,0.3558,0.3627,0.3794,0.3925,0.4028,0.4159,0.4256,0.4287,0.4353,0.4317,0.432,0.4353,0.422,0.402,0.3954,0.4023,0.3959,0.3992,0.4025,0.4025,0.4025,0.4059,0.3992,0.3992,0.3992,0.4059,0.4025,0.3992,0.3923,0.3692,0.3527,0.3493,0.346,0.3326,0.3224,0.3056,0.2922,0.2757,0.2622,0.2523,0.2389,0.2218,0.2083,0.2084,0.1903,0.1578,0.1412,0.1347,0.7802,0.7657,0.7702,0.7368,0.6914,0.6953,0.6933,0.687,0.7073,0.7058,0.6669,0.6707,0.6574,0.6381,0.6299,0.6228,0.6254,0.631,0.6371,0.651,0.6556,0.6557,0.646,0.6416,0.6471,0.6373,0.6144,0.5505,0.4945,0.4549,0.4281,0.4278,0.4445,0.438,0.4612,0.4909,0.515,0.5177,0.5304,0.5396,0.5387,0.5442,0.5408,0.5393,0.5458,0.5473,0.537,0.5281,0.5265,0.5271,0.5235,0.5189,0.5193,0.5226,0.5226,0.496,0.4528,0.403,0.4231,0.4267,0.4298,0.4264,0.4197,0.4225,0.4392,0.4492,0.4492,0.4619,0.4522,0.4525,0.4556,0.4558,0.4561,0.4658,0.4788,0.4785,0.4818,0.505,0.5087,0.5156,0.4987,0.4788,0.4688,0.4625,0.4561,0.4595,0.4628,0.4628,0.4558,0.4492,0.4392,0.4392,0.4392,0.4359,0.4325,0.4292,0.4192,0.3997,0.3964,0.3894,0.3758,0.3625,0.3594,0.3426,0.3226,0.3025,0.2891,0.2788,0.2653,0.2519,0.2386,0.2317,0.224,0.2087,0.1913,0.8987,0.7958,0.7908,0.7616,0.7232,0.7208,0.7121,0.7037,0.6997,0.6888,0.6715,0.6664,0.6552,0.6434,0.6414,0.6498,0.6537,0.6576,0.6674,0.6782,0.6796,0.6847,0.6866,0.6895,0.6936,0.6746,0.6534,0.6321,0.5767,0.5525,0.531,0.5247,0.5261,0.5349,0.5442,0.5704,0.5774,0.5817,0.5805,0.5781,0.5784,0.5838,0.5888,0.5891,0.5996,0.5981,0.5947,0.5839,0.5783,0.5696,0.5578,0.5447,0.5419,0.5395,0.5395,0.5359,0.506,0.4861,0.4897,0.4734,0.4734,0.4864,0.4831,0.4927,0.5024,0.512,0.5117,0.5044,0.5117,0.5183,0.5315,0.5415,0.5517,0.5554,0.5455,0.5554,0.5617,0.5683,0.5851,0.5921,0.5925,0.5686,0.5484,0.5422,0.5322,0.519,0.5226,0.5259,0.5123,0.4957,0.4824,0.4694,0.4694,0.4661,0.4661,0.4592,0.4558,0.4428,0.4361,0.4292,0.4156,0.4056,0.4025,0.3894,0.3692,0.3491,0.3291,0.2987,0.2753,0.2686,0.2686,0.2579,0.251,0.2468,0.2324,0.9756,0.8463,0.8284,0.7943,0.7512,0.7385,0.7215,0.696,0.686,0.6706,0.6573,0.6478,0.648,0.6511,0.6495,0.6586,0.6809,0.6787,0.6831,0.6903,0.7014,0.7092,0.7041,0.7187,0.7185,0.7243,0.6848,0.6719,0.6715,0.6558,0.6398,0.6307,0.6054,0.6176,0.6339,0.6481,0.6556,0.6563,0.6487,0.6404,0.6294,0.6342,0.637,0.6419,0.6435,0.6442,0.6447,0.6353,0.6239,0.6097,0.5999,0.5913,0.5822,0.5855,0.5888,0.5855,0.5723,0.569,0.5591,0.5425,0.5296,0.5428,0.5627,0.5624,0.5657,0.5752,0.5881,0.5774,0.5807,0.5939,0.6071,0.6174,0.6178,0.6247,0.6346,0.6449,0.6519,0.6445,0.6379,0.6383,0.6449,0.6515,0.635,0.628,0.6148,0.5885,0.5851,0.5855,0.5723,0.5488,0.5422,0.5322,0.5289,0.5256,0.516,0.5093,0.496,0.4861,0.4824,0.4725,0.4622,0.4519,0.4456,0.4323,0.4192,0.3992,0.3823,0.3288,0.282,0.288,0.2904,0.2786,0.2706,0.2683,0.2537,0.9755,0.9403,0.9178,0.8443,0.7458,0.7507,0.7255,0.6853,0.693,0.6731,0.6424,0.634,0.6426,0.6501,0.6555,0.6637,0.6746,0.6858,0.6915,0.698,0.7021,0.7119,0.7082,0.6985,0.6996,0.7218,0.7031,0.7101,0.73,0.7191,0.6957,0.6657,0.6623,0.682,0.7015,0.7151,0.7187,0.7195,0.7171,0.7157,0.712,0.7124,0.7145,0.6996,0.7049,0.7078,0.6968,0.6885,0.6801,0.6652,0.6537,0.6463,0.6411,0.6416,0.6445,0.6482,0.635,0.635,0.6383,0.5984,0.5756,0.5888,0.6119,0.6321,0.6317,0.6511,0.6642,0.6679,0.6638,0.6638,0.6671,0.6671,0.6802,0.6835,0.6937,0.6975,0.6975,0.6975,0.6905,0.6876,0.6942,0.704,0.7106,0.7003,0.6708,0.6445,0.6284,0.6288,0.6284,0.6115,0.6083,0.605,0.6017,0.5954,0.5826,0.5693,0.5491,0.5388,0.5352,0.5253,0.512,0.5054,0.5054,0.4855,0.4725,0.4522,0.4256,0.3756,0.3384,0.3203,0.3115,0.3044,0.2806,0.2658,0.2475,1.0257,0.9597,0.9806,0.9271,0.8295,0.8299,0.8074,0.7749,0.7446,0.6999,0.6535,0.6552,0.6598,0.6661,0.6668,0.6833,0.7157,0.7133,0.7196,0.7273,0.7298,0.7179,0.7037,0.6967,0.6965,0.7193,0.7094,0.718,0.7454,0.7522,0.7369,0.7138,0.7173,0.7211,0.7407,0.7557,0.755,0.7462,0.7533,0.7593,0.7422,0.7459,0.7568,0.7697,0.7552,0.7565,0.7475,0.7364,0.7214,0.7061,0.6903,0.6839,0.6832,0.6815,0.6876,0.6946,0.6782,0.6876,0.6942,0.6544,0.6251,0.6482,0.6745,0.6876,0.6909,0.7068,0.7232,0.7297,0.7335,0.7265,0.7456,0.7493,0.7526,0.7526,0.7493,0.7466,0.7433,0.74,0.7396,0.7363,0.7498,0.7661,0.7694,0.7689,0.733,0.7007,0.6848,0.6716,0.6745,0.6712,0.6642,0.6544,0.6478,0.6379,0.6255,0.6086,0.5951,0.5918,0.5848,0.5716,0.5617,0.5785,0.5716,0.5521,0.5256,0.5057,0.4722,0.4256,0.3915,0.3642,0.3444,0.3302,0.303,0.2697,0.2487,1.0789,1.0165,1.0463,0.9979,0.9045,0.8832,0.8646,0.84,0.7987,0.7521,0.7071,0.7278,0.7282,0.7217,0.7073,0.7293,0.7578,0.7614,0.7608,0.7703,0.778,0.762,0.75,0.7551,0.7847,0.7677,0.7767,0.7964,0.7944,0.7829,0.7902,0.794,0.794,0.794,0.7642,0.7748,0.7766,0.7748,0.7736,0.7816,0.7616,0.7594,0.7661,0.7893,0.7762,0.7686,0.7638,0.7546,0.739,0.7228,0.7093,0.6992,0.7006,0.704,0.7106,0.7143,0.7143,0.7204,0.7204,0.7106,0.6942,0.7204,0.7335,0.7433,0.7493,0.7559,0.7657,0.7727,0.7759,0.7857,0.8014,0.7884,0.7857,0.7787,0.7787,0.7787,0.7787,0.7787,0.7819,0.7852,0.7954,0.7922,0.7922,0.7884,0.7759,0.7498,0.7433,0.7335,0.7335,0.7269,0.7138,0.697,0.6802,0.6675,0.6548,0.6445,0.6313,0.628,0.621,0.6115,0.6083,0.6214,0.6181,0.5818,0.5587,0.5524,0.5322,0.4987,0.4522,0.402,0.3821,0.3612,0.316,0.2865,0.2666,1.1059,1.1249,1.1197,1.0449,0.9378,0.9106,0.8851,0.8667,0.8553,0.8337,0.8132,0.8482,0.8508,0.8254,0.7988,0.8139,0.8361,0.8262,0.8178,0.8329,0.8602,0.8513,0.8451,0.8574,0.8626,0.8899,0.8841,0.869,0.8627,0.8775,0.8808,0.877,0.8775,0.8699,0.7915,0.803,0.8284,0.8533,0.8228,0.8027,0.7844,0.7815,0.7851,0.8011,0.7879,0.7838,0.7992,0.7851,0.7664,0.7519,0.7398,0.7294,0.7288,0.74,0.7493,0.7596,0.7629,0.7661,0.7661,0.7661,0.7694,0.7787,0.7792,0.7819,0.7917,0.7949,0.7949,0.7949,0.7987,0.7987,0.8014,0.8014,0.8047,0.8079,0.8079,0.8079,0.8117,0.8117,0.8149,0.8149,0.8084,0.8014,0.8014,0.8019,0.8052,0.7987,0.7982,0.7917,0.7824,0.7727,0.7526,0.7396,0.7232,0.7167,0.704,0.6839,0.6704,0.6675,0.6609,0.6511,0.6412,0.6449,0.6317,0.6086,0.5954,0.5888,0.5888,0.5785,0.5153,0.4549,0.4161,0.3851,0.3412,0.308,0.2915,1.0683,1.0644,1.0644,1.0446,1.0155,0.9903,0.9807,0.9849,0.9862,0.9553,0.9126,0.9437,0.9466,0.9266,0.9164,0.9215,0.953,0.9512,0.9423,0.9495,0.9554,0.9275,0.9156,0.9102,0.9129,0.901,0.9096,0.9302,0.9074,0.9377,0.9301,0.9188,0.942,0.9236,0.897,0.8917,0.9002,0.8599,0.8444,0.8401,0.814,0.8063,0.8176,0.8577,0.8324,0.8299,0.8502,0.8264,0.8118,0.7976,0.7903,0.7805,0.7769,0.7852,0.7852,0.7889,0.7922,0.7949,0.7982,0.8014,0.8014,0.8047,0.8014,0.8047,0.7982,0.7982,0.8047,0.8112,0.8177,0.8209,0.8312,0.8349,0.8349,0.8349,0.8349,0.8382,0.8382,0.8382,0.8387,0.8382,0.8349,0.8317,0.8317,0.8376,0.8409,0.8344,0.8339,0.8112,0.7987,0.7949,0.7819,0.7759,0.7661,0.7661,0.7559,0.7297,0.7195,0.7167,0.7068,0.697,0.6909,0.6778,0.6679,0.6548,0.6416,0.6284,0.6129,0.5963,0.556,0.5063,0.4544,0.4088,0.365,0.3418,0.3295,1.0768,1.0757,1.0639,1.0601,1.0556,1.0329,1.0356,1.0578,1.0863,1.0605,1.0148,1.0419,1.0503,1.0319,1.0231,1.0296,1.0595,1.0456,1.0424,1.0527,1.0428,1.012,0.9857,0.9805,1.0048,0.9829,0.9872,1.0013,0.9906,0.99,0.9976,1.0019,1.0019,1.0099,0.989,0.9718,0.9446,0.9168,0.9195,0.9003,0.881,0.8745,0.8713,0.8924,0.8877,0.8648,0.8816,0.8797,0.8648,0.8595,0.851,0.8404,0.8312,0.8284,0.8279,0.8279,0.8214,0.8247,0.8274,0.8274,0.8306,0.8409,0.8247,0.8182,0.8182,0.8214,0.8247,0.8312,0.8371,0.8474,0.8571,0.8608,0.8641,0.8641,0.8641,0.8641,0.8641,0.8641,0.8608,0.8608,0.8576,0.8614,0.8646,0.8738,0.8797,0.8732,0.8668,0.8436,0.8242,0.8209,0.8209,0.8144,0.8084,0.8079,0.7949,0.7754,0.7689,0.7657,0.7526,0.7396,0.7297,0.7199,0.7138,0.704,0.6942,0.6724,0.6351,0.6032,0.5685,0.5236,0.4717,0.4268,0.388,0.3778,0.3711,1.1347,1.1523,1.1273,1.0956,1.0634,1.042,1.0412,1.0619,1.1321,1.133,1.0978,1.1615,1.1603,1.131,1.1105,1.1164,1.1347,1.1184,1.117,1.1159,1.1194,1.0941,1.0925,1.1075,1.0942,1.1149,1.1187,1.0892,1.0856,1.0693,1.081,1.0896,1.0677,1.066,1.0448,1.012,0.9871,0.9799,0.956,0.9403,0.9292,0.9254,0.924,0.9284,0.9085,0.8959,0.8997,0.8975,0.8848,0.883,0.8867,0.8894,0.8867,0.8802,0.8802,0.877,0.8646,0.8608,0.8603,0.8603,0.87,0.8791,0.8668,0.8576,0.8511,0.8511,0.8538,0.8576,0.8668,0.8732,0.8797,0.8861,0.8894,0.8894,0.8894,0.8926,0.8926,0.8894,0.8861,0.8829,0.8797,0.8802,0.8861,0.8958,0.9122,0.921,0.9177,0.9075,0.8882,0.8662,0.8624,0.8528,0.8495,0.8468,0.8371,0.8306,0.8177,0.8144,0.7884,0.7689,0.7657,0.7559,0.7433,0.7368,0.7428,0.7242,0.6857,0.6372,0.5883,0.543,0.517,0.4738,0.4429,0.4292,0.4158,1.0901,1.0839,1.0889,1.093,1.0988,1.1035,1.0962,1.0869,1.1666,1.1904,1.1617,1.2023,1.2039,1.198,1.1747,1.1905,1.2106,1.2248,1.2242,1.214,1.181,1.1597,1.1456,1.1433,1.1427,1.1428,1.1446,1.1552,1.1385,1.1261,1.1028,1.0997,1.0773,1.0729,1.0597,1.0286,1.0225,1.0128,0.9814,0.9676,0.9614,0.9497,0.9535,0.9587,0.9571,0.9468,0.9547,0.9518,0.9452,0.9484,0.951,0.951,0.9332,0.93,0.9274,0.9145,0.9081,0.9081,0.9081,0.9081,0.9145,0.9242,0.9145,0.899,0.8926,0.8861,0.8861,0.8829,0.8894,0.8926,0.8958,0.899,0.9022,0.9022,0.9022,0.9022,0.9022,0.9055,0.9022,0.9087,0.9055,0.9079,0.9148,0.9253,0.9426,0.9595,0.9671,0.9589,0.9448,0.9218,0.9075,0.8973,0.8979,0.8985,0.9017,0.8952,0.8797,0.8603,0.8339,0.8144,0.8079,0.7982,0.7759,0.7629,0.7624,0.7526,0.7358,0.6826,0.63,0.6147,0.5882,0.5403,0.5006,0.4845,0.4774,1.0962,1.0887,1.0962,1.1111,1.1223,1.1335,1.1298,1.1264,1.1751,1.1902,1.1805,1.2,1.2115,1.2097,1.193,1.2023,1.2272,1.2231,1.2237,1.213,1.2169,1.1833,1.1621,1.1552,1.1596,1.1595,1.1632,1.1769,1.1661,1.1361,1.1102,1.0904,1.0578,1.069,1.0766,1.0669,1.0561,1.0411,1.0199,0.9938,0.9864,0.9883,1.0079,1.0124,1.0145,1.0173,1.0232,1.0162,1.0091,1.0091,1.0117,1.018,1.0002,0.9913,0.9773,0.9652,0.9594,0.9562,0.9562,0.9568,0.9626,0.9716,0.9748,0.969,0.9402,0.9247,0.9087,0.899,0.9049,0.9113,0.9113,0.9087,0.9087,0.9092,0.9092,0.9092,0.9125,0.9157,0.9247,0.9312,0.9372,0.9388,0.9485,0.9592,0.9631,0.9655,0.9828,1.0042,0.985,0.9553,0.9494,0.9454,0.9492,0.953,0.9562,0.953,0.9376,0.9151,0.8952,0.8759,0.8598,0.8468,0.8312,0.8052,0.7792,0.7689,0.7657,0.7295,0.6862,0.6684,0.6524,0.6172,0.5704,0.5355,0.5314,1.1484,1.1484,1.149,1.1558,1.1521,1.1515,1.1595,1.1695,1.1598,1.1516,1.1588,1.1787,1.189,1.1912,1.1821,1.1924,1.2111,1.2169,1.2215,1.1958,1.1852,1.1706,1.1652,1.1727,1.1691,1.187,1.1946,1.1853,1.1786,1.1413,1.0988,1.0839,1.072,1.0858,1.115,1.0994,1.0978,1.1222,1.0917,1.0632,1.0682,1.0807,1.0895,1.0814,1.0681,1.062,1.0666,1.0632,1.0561,1.0624,1.0681,1.0814,1.0681,1.0523,1.0351,1.0186,1.0104,1.0142,1.0142,1.0174,1.0301,1.0421,1.0541,1.0421,1.0136,0.9696,0.9472,0.928,0.9338,0.9402,0.9402,0.9466,0.9466,0.953,0.9594,0.9664,0.976,0.9792,0.9824,0.9881,0.9907,0.9914,0.9945,1.0057,1.0182,0.9953,1.0023,1.0418,1.0393,1.0083,1.0008,1.0002,1.0072,1.011,1.0015,0.9983,0.9894,0.9696,0.9498,0.9338,0.9151,0.9022,0.8894,0.8598,0.8306,0.8052,0.7887,0.7693,0.7497,0.7152,0.7006,0.6857,0.6511,0.6086,0.5987,1.2077,1.2114,1.2268,1.2305,1.2268,1.2157,1.204,1.1892,1.1733,1.1714,1.1703,1.1666,1.1702,1.1801,1.1674,1.1801,1.2189,1.2124,1.2331,1.2171,1.1967,1.1727,1.1592,1.1743,1.1735,1.1755,1.1827,1.1902,1.1703,1.1286,1.0983,1.1041,1.0963,1.1064,1.1534,1.138,1.1509,1.1998,1.1861,1.1403,1.1214,1.1114,1.1083,1.1061,1.0969,1.1026,1.104,1.0978,1.0972,1.0965,1.0996,1.1028,1.1003,1.0972,1.0839,1.0643,1.0643,1.0713,1.0776,1.08,1.0933,1.1021,1.1083,1.0989,1.0713,1.0238,0.9919,0.976,0.9664,0.9728,0.9754,0.9811,0.9907,1.0002,1.0098,1.0263,1.0421,1.0421,1.0428,1.046,1.046,1.047,1.049,1.055,1.0688,1.0743,1.0788,1.0968,1.1088,1.0927,1.0791,1.0769,1.0776,1.0744,1.0555,1.0396,1.0308,1.0149,0.9919,0.9792,0.9702,0.9472,0.9242,0.9081,0.8856,0.8598,0.8441,0.8484,0.8222,0.7718,0.7538,0.7465,0.7299,0.6935,0.6875,1.2562,1.2562,1.2673,1.2716,1.2746,1.2716,1.2636,1.2532,1.2409,1.2287,1.2086,1.1797,1.1651,1.1765,1.1583,1.1689,1.2144,1.2099,1.2068,1.2035,1.2107,1.1977,1.1886,1.1952,1.2177,1.219,1.1965,1.1837,1.1753,1.1559,1.1411,1.1431,1.131,1.1601,1.2102,1.2089,1.2221,1.2797,1.2717,1.2494,1.2004,1.2005,1.1724,1.1613,1.1502,1.1521,1.1375,1.1322,1.1247,1.131,1.1404,1.1529,1.1536,1.156,1.1498,1.1404,1.1341,1.1279,1.1365,1.1421,1.1452,1.1577,1.1709,1.1646,1.1397,1.0989,1.0706,1.0516,1.0295,1.0295,1.0263,1.0295,1.0351,1.0446,1.0541,1.0667,1.0832,1.0958,1.0989,1.109,1.1118,1.1188,1.1157,1.1004,1.1043,1.0817,1.0977,1.1187,1.1339,1.1503,1.1454,1.1404,1.1348,1.116,1.0902,1.0807,1.0744,1.0555,1.0364,1.0206,1.0079,0.9792,0.9562,0.944,0.9274,0.9049,0.8952,0.8926,0.8603,0.8055,0.8038,0.8113,0.7884,0.7652,0.7562,1.3039,1.301,1.3046,1.301,1.3017,1.32,1.3229,1.3193,1.3229,1.301,1.27,1.222,1.1935,1.1744,1.1744,1.1781,1.1874,1.2081,1.1974,1.2022,1.1994,1.2217,1.2471,1.2629,1.2701,1.2639,1.2427,1.2283,1.2178,1.2037,1.1951,1.1924,1.2284,1.2794,1.3007,1.3117,1.3211,1.3441,1.3555,1.3686,1.3478,1.3204,1.2638,1.2307,1.2055,1.1992,1.179,1.1599,1.1512,1.1591,1.1716,1.1809,1.1842,1.1851,1.1927,1.1811,1.1524,1.1591,1.1773,1.1781,1.1912,1.2104,1.2266,1.2205,1.1957,1.1771,1.149,1.1272,1.1083,1.0832,1.08,1.0863,1.0926,1.1014,1.1108,1.117,1.1334,1.1454,1.1525,1.1618,1.1614,1.1707,1.1556,1.1398,1.1248,1.1002,1.101,1.1233,1.1413,1.1556,1.1645,1.1649,1.1661,1.1442,1.1247,1.1153,1.1122,1.0965,1.0776,1.0618,1.046,1.0301,1.011,0.9862,0.9664,0.953,0.9274,0.9087,0.8727,0.8398,0.8312,0.8317,0.8144,0.7977,0.8009,1.3775,1.3645,1.3811,1.3702,1.3455,1.3608,1.3572,1.3455,1.3463,1.3382,1.3309,1.32,1.2783,1.1959,1.1929,1.204,1.2268,1.2305,1.2526,1.2666,1.2558,1.272,1.292,1.3078,1.3165,1.3121,1.3006,1.2854,1.2797,1.2616,1.2623,1.2767,1.2819,1.3244,1.3603,1.3697,1.3762,1.3936,1.3937,1.3994,1.3787,1.3503,1.326,1.2875,1.2428,1.23,1.2061,1.176,1.1786,1.1872,1.1865,1.1943,1.189,1.1828,1.1858,1.1912,1.1653,1.1797,1.1912,1.2019,1.2195,1.2451,1.2552,1.259,1.2459,1.2521,1.2305,1.2143,1.1864,1.1428,1.1365,1.1615,1.174,1.1856,1.1981,1.1957,1.2027,1.192,1.1881,1.1766,1.1629,1.1558,1.14,1.1302,1.1302,1.1144,1.1136,1.1317,1.144,1.16,1.1783,1.1806,1.1859,1.184,1.1709,1.1529,1.1466,1.131,1.1146,1.0965,1.087,1.0909,1.0719,1.0371,1.0244,1.0142,0.9824,0.9402,0.9113,0.8818,0.8571,0.8447,0.8339,0.8236,0.8209]}]]